GFSCGP_925_thetae_000.txt.gz
Theta_e
331 334 333 329 322 319 318 319 318 316 316 319 318 319 318 316 312 311 312 313 314 315 315 316 317 318 319 319 319 320 321 323 326 329 330 331 332 333 333 333 333 333 332 331
332 334 330 326 320 318 318 318 317 317 319 320 319 318 317 313 313 314 314 314 316 316 315 314 316 316 316 318 319 319 320 322 326 325 329 331 331 332 332 332 333 333 333 333
333 332 328 324 319 321 318 317 318 321 320 319 320 320 317 316 316 316 315 315 315 316 316 314 314 315 315 315 315 316 319 321 322 326 327 328 331 332 332 331 331 331 331 331
329 321 326 325 321 317 319 317 320 322 320 322 319 322 316 315 317 317 314 314 314 314 314 313 313 314 315 315 316 316 315 315 316 319 321 322 322 323 323 324 324 324 325 325
329 322 324 322 320 316 319 320 320 319 318 318 319 320 316 315 318 317 314 313 313 312 313 313 313 315 315 316 316 315 315 315 315 315 315 315 314 315 315 315 315 315 315 314
320 316 317 318 318 318 318 318 316 315 316 321 318 320 318 317 317 316 315 313 312 312 313 313 314 315 315 315 315 315 315 315 315 315 315 314 314 314 314 314 314 314 314 314
320 314 312 315 315 314 315 317 322 324 323 324 317 318 319 315 315 317 315 313 311 311 312 312 312 313 314 314 314 315 315 314 314 314 314 314 314 314 313 313 313 313 312 311
321 320 313 312 316 316 315 317 322 329 326 325 317 319 318 313 314 314 314 312 311 312 312 312 311 313 314 314 313 313 312 313 313 312 313 313 313 313 312 312 311 311 309 308
319 319 314 314 313 315 316 319 318 322 320 322 321 319 316 314 315 315 314 312 312 312 312 312 311 313 313 312 311 312 312 312 312 312 312 312 311 310 309 309 307 306 305 305
319 319 317 314 314 313 316 314 320 318 326 325 320 320 320 318 317 316 315 314 312 311 311 311 311 312 311 311 311 312 311 310 309 309 308 308 308 307 306 305 304 303 303 303
319 319 321 316 317 317 315 315 314 315 317 322 321 319 313 313 314 316 315 314 312 310 311 310 310 310 310 310 310 309 308 307 306 305 305 305 304 304 303 302 301 300 300 301
324 319 321 322 317 315 315 316 314 317 319 315 314 318 312 313 311 312 314 314 312 311 310 309 308 309 309 309 308 306 305 304 303 303 303 302 301 301 299 298 297 297 297 298
323 323 324 326 321 319 321 318 315 315 315 320 319 319 312 314 312 315 315 314 311 311 309 306 305 307 308 307 305 303 302 301 300 300 299 299 297 296 295 294 294 293 294 295
319 319 322 326 323 319 322 322 317 316 318 317 317 318 317 315 316 316 315 314 310 311 307 304 305 306 306 304 302 301 299 298 297 297 296 295 293 292 291 290 290 290 291 293
316 319 318 317 317 316 319 319 319 319 317 318 317 316 316 313 312 311 310 310 311 308 306 305 306 304 303 301 299 298 297 296 295 294 293 291 289 288 288 288 289 289 290 290
315 317 314 312 312 313 313 312 312 314 317 317 316 316 313 312 311 315 314 310 310 306 305 308 305 302 300 299 297 296 295 294 292 292 290 288 287 287 287 287 288 288 288 288
314 312 311 311 313 314 317 315 312 310 309 310 312 311 312 314 314 314 313 310 308 304 308 306 302 300 299 297 296 295 293 291 289 289 287 287 287 286 286 286 287 287 287 287
312 311 311 313 315 321 317 313 313 313 314 312 312 312 312 314 310 308 308 309 304 307 305 302 300 298 297 295 294 292 290 288 287 287 287 286 286 286 286 286 286 286 286 286
308 310 313 316 317 316 317 316 317 318 317 314 315 315 315 312 308 309 307 305 304 303 301 300 298 297 295 292 291 289 287 287 286 286 286 286 286 285 285 285 285 285 285 285
308 308 312 308 315 320 316 315 313 313 314 314 315 314 315 313 314 311 306 304 303 301 300 298 297 295 292 289 288 287 286 286 285 285 285 285 285 285 285 285 285 285 285 285
311 310 313 314 315 314 312 312 313 317 312 312 311 311 311 313 310 306 303 301 300 299 298 296 294 291 289 287 287 286 286 285 285 285 285 285 285 285 284 284 284 284 284 284
313 312 312 312 314 314 312 314 318 311 310 309 308 308 308 307 306 304 302 301 300 298 295 293 291 289 287 287 286 285 285 284 284 285 285 285 284 284 284 284 284 284 284 284
316 314 315 313 312 311 309 310 309 308 308 308 308 308 307 307 305 304 303 301 300 296 292 290 289 288 287 286 285 284 284 284 284 284 284 284 284 283 283 284 283 283 283 283
312 310 314 314 312 310 309 308 307 307 307 306 306 306 306 306 305 303 300 299 297 293 289 288 287 286 286 285 285 284 284 284 284 284 284 283 283 283 283 283 283 283 283 283
309 312 312 312 311 309 307 307 305 305 304 305 304 303 303 302 302 300 299 298 294 290 289 287 286 285 285 285 284 284 284 284 284 283 283 283 283 283 283 283 283 283 283 284
308 311 311 311 309 309 308 307 306 306 305 303 301 301 299 299 299 299 296 293 290 288 287 286 285 285 284 284 284 284 284 284 283 283 283 283 283 283 283 282 282 282 283 284

GFSCGP_925_thetae_003.txt.gz
Theta_e
331 332 333 329 326 325 320 319 319 315 314 316 316 317 317 315 313 310 311 312 314 314 313 314 314 315 317 318 319 319 321 324 323 326 328 329 330 331 331 332 332 332 332 331
332 333 329 327 323 319 319 319 319 317 317 316 317 317 315 313 312 311 312 313 314 314 312 312 314 314 314 315 316 318 320 322 325 323 327 329 330 330 331 330 330 330 331 331
331 329 330 329 328 323 319 320 319 318 318 317 318 319 318 314 315 314 314 314 314 314 313 312 312 313 314 314 314 314 315 317 319 325 326 328 328 326 321 320 319 319 319 319
331 326 331 329 326 328 331 317 318 318 320 322 317 322 316 314 316 315 313 312 313 312 312 312 311 312 313 313 314 314 314 314 314 314 315 314 314 315 313 313 313 313 313 312
328 327 330 333 329 319 325 316 317 318 318 317 318 319 317 313 316 315 312 311 311 312 312 312 311 313 313 314 313 313 313 313 314 314 314 314 313 313 313 313 313 313 312 310
321 322 328 328 322 315 317 316 315 315 315 320 317 319 319 314 316 314 313 310 311 311 311 311 312 312 312 313 313 313 313 312 312 313 313 312 312 312 311 311 310 309 308 307
317 317 315 314 315 315 315 317 322 323 323 323 316 317 320 316 312 315 313 310 310 311 311 310 310 311 311 311 312 312 312 311 311 311 311 311 310 309 308 306 305 305 304 304
321 325 312 311 315 315 314 318 321 326 325 321 314 319 318 312 310 312 312 309 309 310 310 310 310 310 310 310 310 311 310 310 310 310 309 308 307 306 305 304 303 302 302 301
319 319 313 312 312 314 314 318 316 321 319 321 319 317 315 313 313 312 311 310 310 310 310 309 309 309 308 309 309 309 308 307 307 306 305 305 304 303 302 301 299 298 298 298
316 316 315 313 312 311 314 313 320 317 326 325 318 317 319 317 316 313 312 311 310 309 310 309 308 307 308 309 308 307 305 304 304 304 303 302 300 299 298 297 296 295 295 295
315 315 319 314 316 315 312 313 312 315 316 320 320 318 312 314 314 314 312 311 310 309 309 308 306 307 308 307 305 305 304 303 302 301 300 299 296 295 293 292 291 290 290 291
321 316 318 318 316 313 313 313 312 316 317 313 313 317 309 311 312 313 313 312 310 309 308 306 306 307 306 305 303 302 301 300 299 298 297 294 293 291 289 288 288 288 288 289
321 320 323 324 320 317 319 315 312 312 313 315 317 317 310 310 310 312 313 312 310 308 307 304 305 305 304 303 300 299 298 297 296 295 294 291 289 288 287 287 287 287 287 287
318 318 319 322 322 318 320 318 314 315 316 315 315 316 316 313 314 315 315 314 309 309 306 304 305 304 302 300 299 297 296 294 293 293 291 288 287 287 287 286 286 286 286 287
315 319 317 315 315 317 319 320 315 315 314 316 315 315 315 314 312 310 309 309 310 309 304 305 305 302 300 298 296 295 295 293 291 290 288 287 287 286 286 286 286 286 286 286
312 316 313 311 311 311 313 313 317 317 317 315 316 315 311 312 311 314 313 309 310 306 303 306 304 300 298 296 295 294 292 290 288 287 287 286 286 286 286 286 285 285 285 285
311 310 310 312 312 314 314 312 310 309 309 310 310 310 311 313 313 313 313 309 309 304 305 305 301 299 297 294 294 292 290 288 287 286 286 286 285 285 285 285 285 285 285 285
310 309 309 311 314 318 314 313 312 312 313 310 314 314 313 313 312 309 308 308 306 303 305 301 298 297 294 293 292 290 287 287 286 285 285 285 285 285 285 284 284 284 284 284
308 310 313 318 316 315 317 315 313 316 317 313 315 314 312 310 309 309 306 304 304 303 300 299 297 295 293 292 290 287 286 286 285 285 285 285 285 285 284 284 284 284 284 283
309 308 314 311 318 322 316 314 312 311 318 312 313 312 313 311 312 309 306 303 301 300 299 297 296 294 292 288 287 286 285 285 284 284 284 284 284 284 284 284 283 283 283 283
311 311 314 316 317 315 312 312 312 317 312 310 308 309 309 309 309 306 302 301 300 299 297 296 294 291 288 286 286 285 284 284 284 284 284 284 284 284 283 283 283 283 283 283
312 311 313 312 316 318 311 313 316 310 308 307 307 307 308 308 307 305 302 300 298 295 294 293 291 288 286 286 285 285 284 284 284 284 284 284 283 283 283 283 283 283 282 282
317 313 314 312 312 310 309 309 307 306 307 307 308 307 306 306 305 304 302 299 298 295 292 291 290 287 286 285 285 284 284 284 283 283 283 283 283 283 283 283 282 282 282 282
310 308 313 313 311 310 308 307 307 307 308 307 306 306 305 305 304 303 300 298 295 292 290 289 287 286 285 285 284 284 284 283 283 283 283 282 282 283 283 282 282 282 282 282
309 310 311 311 310 308 307 307 307 306 305 305 303 304 303 302 301 301 298 297 294 291 289 287 286 285 285 284 284 284 284 283 283 282 282 282 282 282 282 282 282 282 282 283
307 310 311 312 308 307 307 306 305 305 305 304 302 301 299 299 298 298 297 296 292 289 287 286 285 284 284 284 284 284 283 283 282 282 282 282 282 282 282 282 281 281 282 283

GFSCGP_925_thetae_006.txt.gz
Theta_e
328 332 333 328 329 325 322 320 323 317 315 315 314 314 315 314 313 312 310 313 313 312 311 312 313 314 315 316 318 320 323 325 323 325 327 328 328 329 329 329 329 329 329 329
332 332 328 325 325 327 320 321 319 318 316 315 315 316 314 313 313 311 310 312 314 312 311 311 312 313 313 313 314 316 318 323 325 325 327 328 329 325 318 316 317 317 315 315
329 330 327 328 324 326 321 322 322 322 316 316 315 317 316 313 313 311 311 312 313 312 312 310 310 311 312 312 313 313 314 315 317 322 323 323 315 313 313 312 312 312 311 310
330 327 330 329 329 327 331 319 320 319 319 321 316 321 316 313 314 313 312 312 312 312 312 311 310 310 311 311 312 313 313 313 313 314 313 313 312 311 311 311 311 310 309 307
329 329 331 331 330 326 330 319 320 319 317 316 317 318 316 312 315 314 311 311 311 311 310 310 309 310 311 312 311 312 312 312 312 312 312 312 311 310 309 308 307 306 305 304
323 323 327 330 326 323 320 318 316 314 314 320 317 318 317 315 313 314 312 309 310 310 310 309 310 310 310 311 311 311 311 310 310 310 309 308 307 306 305 304 304 303 302 302
319 327 320 323 320 316 318 320 326 324 322 323 315 316 317 315 312 313 312 309 309 309 309 309 308 308 309 310 310 310 310 308 308 307 306 305 304 303 302 300 299 299 298 298
326 328 316 314 324 323 320 319 321 327 324 321 313 319 317 313 310 309 311 309 309 309 308 308 307 307 308 309 309 308 307 306 306 304 303 302 302 300 298 297 296 294 294 294
325 325 311 312 312 321 315 320 316 319 317 321 319 315 314 313 311 310 310 309 309 309 308 308 306 306 307 308 307 306 305 304 303 302 302 300 298 297 294 292 291 290 290 290
316 315 314 311 311 310 314 313 320 317 327 326 320 316 319 315 316 312 309 309 309 309 308 307 305 306 307 306 304 303 303 302 301 300 299 296 294 292 290 289 288 288 288 288
312 314 317 312 314 313 312 314 312 315 316 321 320 318 311 312 312 312 310 309 308 309 308 306 304 306 306 304 302 301 301 300 298 297 295 293 291 289 288 288 287 287 287 287
317 313 316 317 315 311 311 312 313 318 317 312 313 317 310 309 309 311 311 310 307 308 307 305 304 305 303 301 300 299 298 297 295 295 293 289 288 287 287 287 286 286 286 287
318 318 321 324 320 317 316 313 310 311 311 313 316 317 310 307 310 311 312 311 309 307 306 304 304 303 302 299 297 296 296 295 293 291 289 288 287 287 286 286 286 286 286 286
319 317 318 323 321 317 319 315 312 314 315 314 313 316 314 312 312 313 313 312 309 307 306 304 304 302 300 297 296 295 294 293 291 289 287 287 286 286 286 286 286 286 285 285
317 319 316 313 316 317 317 317 313 314 315 318 317 314 314 312 312 311 310 309 309 308 305 306 304 300 297 296 295 294 293 291 289 287 287 286 286 286 286 285 285 285 285 285
313 316 313 311 311 312 316 317 313 314 313 314 314 315 311 311 311 313 313 311 310 308 304 305 302 299 296 295 294 293 291 289 287 286 286 286 286 285 285 285 285 285 284 284
311 311 313 315 312 313 313 310 315 313 312 313 316 312 310 314 313 314 313 311 310 307 303 304 300 298 295 294 294 292 289 287 286 286 286 285 285 285 285 284 284 284 284 284
309 309 309 309 313 312 311 312 308 310 311 310 312 312 312 312 311 309 307 308 307 305 304 301 298 295 294 293 291 289 287 286 286 285 285 285 284 284 284 284 284 284 283 283
307 310 312 314 312 313 317 312 313 315 316 313 313 312 311 309 309 309 306 304 303 302 300 299 298 295 293 291 289 287 286 286 285 284 284 284 284 284 284 283 283 283 283 282
309 308 312 309 316 318 315 313 311 313 319 312 312 312 312 310 312 310 306 303 301 299 299 296 295 293 291 288 287 286 285 284 284 284 284 284 284 283 283 283 283 283 282 282
311 311 313 317 317 315 312 312 311 318 315 311 309 308 309 309 308 305 302 301 299 297 296 294 293 291 289 287 286 285 284 284 284 284 284 284 283 283 283 283 283 283 282 282
311 311 312 313 316 318 310 312 315 310 307 307 306 306 307 306 306 304 301 299 296 294 294 293 291 289 287 286 285 284 284 284 284 283 283 283 283 283 282 283 283 282 282 281
315 311 312 312 313 310 308 310 307 306 306 306 307 306 306 306 306 305 302 299 296 294 293 291 290 287 286 285 285 284 284 283 283 283 283 283 282 282 282 282 282 281 281 281
310 308 313 312 311 310 308 306 306 306 307 306 305 305 305 305 303 303 300 298 295 293 291 290 288 286 285 285 284 284 283 283 283 283 282 282 282 282 282 282 282 281 281 281
308 309 310 310 309 309 308 307 306 305 304 304 303 303 302 302 302 301 297 296 294 292 290 288 286 285 285 284 284 284 283 283 282 282 282 282 281 282 282 281 281 281 281 282
306 309 311 311 308 308 307 305 304 304 303 300 302 302 299 299 298 298 296 297 294 290 288 286 285 284 284 284 284 283 283 282 282 281 281 281 281 282 281 281 281 281 281 282

GFSCGP_925_thetae_009.txt.gz
Theta_e
322 329 333 329 329 325 321 324 325 322 316 316 317 316 317 316 314 314 311 314 315 314 312 311 311 313 314 316 318 322 324 323 325 326 327 328 325 321 319 317 316 315 314 313
324 329 328 326 326 324 321 323 322 319 315 316 319 319 318 315 315 313 312 314 315 314 313 311 310 311 312 312 313 315 319 324 326 328 328 325 316 313 312 311 310 309 308 307
324 328 327 327 328 330 324 324 322 324 318 316 316 320 317 314 312 311 311 313 313 314 313 312 311 310 311 311 312 313 313 314 318 321 315 313 313 312 311 309 307 306 306 305
325 326 328 329 328 328 331 320 323 321 325 329 316 325 318 317 313 313 313 314 314 313 312 312 311 310 310 310 312 312 313 313 313 313 313 312 309 308 306 305 304 304 304 303
327 331 328 330 329 325 329 323 325 322 321 316 317 321 319 312 314 315 313 313 313 313 313 311 310 309 309 310 311 311 311 311 310 310 309 307 305 304 303 303 303 302 300 299
325 324 328 328 325 326 315 320 320 316 316 322 318 321 321 317 315 313 312 312 313 312 311 310 308 309 309 309 309 309 308 307 307 307 305 305 303 302 301 300 298 297 296 296
324 329 326 327 323 319 320 327 332 328 324 326 314 317 320 315 312 314 314 312 312 312 311 310 309 308 308 308 308 307 307 304 304 303 302 301 300 298 296 295 294 293 293 293
328 333 322 324 324 324 326 327 329 331 326 323 313 321 320 313 312 310 312 311 312 312 311 310 308 308 307 307 306 305 304 303 302 301 299 298 296 294 292 291 290 290 291 291
324 325 316 317 317 323 320 328 318 319 316 322 321 318 316 313 312 310 311 311 313 311 310 309 307 307 306 305 304 303 302 301 300 298 296 295 293 291 289 289 288 288 288 289
320 318 314 310 314 311 320 318 326 319 327 327 321 317 322 316 314 311 310 313 311 310 310 308 306 306 304 303 302 301 300 299 297 296 294 292 290 289 288 288 288 287 287 287
311 314 315 311 314 314 316 321 316 317 318 324 322 321 312 313 311 313 311 311 311 310 310 308 306 305 302 301 300 299 298 297 296 294 292 290 288 288 287 287 287 287 287 286
312 313 315 315 314 311 312 316 317 321 318 313 315 320 310 309 308 310 310 309 310 310 309 306 305 303 300 298 298 297 296 295 293 291 289 288 288 287 287 287 286 286 286 286
315 316 321 322 318 316 314 310 312 312 312 314 319 320 310 310 312 310 311 310 309 309 307 305 304 302 299 297 296 295 294 293 291 289 288 288 287 287 286 286 286 286 285 285
317 316 319 323 320 316 318 312 310 315 316 315 314 316 314 313 313 311 311 311 309 308 307 306 305 302 298 296 295 294 293 291 289 288 288 287 287 286 285 285 285 285 285 285
317 320 316 312 317 316 317 316 312 314 316 319 317 314 313 311 312 311 310 309 309 308 306 306 304 301 297 294 294 293 292 290 288 287 287 286 286 285 285 285 285 284 284 284
314 317 312 312 312 315 318 316 314 313 312 313 313 314 310 310 309 312 311 310 310 308 306 306 304 299 296 294 294 293 291 288 287 286 286 285 285 285 285 284 284 284 284 283
317 312 314 316 311 312 316 313 314 314 311 314 317 316 309 313 312 312 311 310 310 308 305 306 303 299 295 294 294 292 289 287 286 285 285 285 285 284 284 284 284 284 283 283
313 312 311 311 311 315 314 311 312 314 310 309 310 308 310 311 309 307 307 308 307 306 304 304 299 296 294 293 292 290 287 286 285 285 285 284 284 284 284 284 283 283 283 282
307 310 312 314 312 312 315 311 311 314 314 310 312 311 310 308 308 309 306 304 304 303 302 300 298 295 293 292 290 288 286 285 285 285 284 284 284 283 283 283 283 283 282 282
309 309 315 312 315 316 314 313 310 313 317 312 311 311 309 309 313 310 305 303 300 299 299 297 294 293 292 289 288 286 285 285 284 284 284 283 283 283 283 283 282 282 282 282
312 311 313 317 315 314 312 312 310 318 316 311 310 310 309 310 308 305 302 300 298 296 295 294 293 292 290 287 286 285 284 284 284 283 283 283 283 282 282 282 283 282 282 281
313 313 313 313 315 316 310 312 315 311 307 307 306 306 307 305 305 304 302 299 296 294 293 293 290 288 287 286 286 284 284 284 284 283 283 283 283 282 282 282 282 281 281 281
314 310 312 312 313 309 308 310 306 306 306 306 306 305 305 305 305 303 302 299 296 294 293 291 290 287 286 285 285 284 284 284 283 283 283 282 282 282 282 282 281 281 281 281
309 308 312 311 311 309 307 306 305 305 306 304 304 304 304 305 303 302 300 298 295 293 291 290 288 286 285 285 284 284 283 283 283 282 282 282 282 282 282 281 281 281 281 281
308 309 310 309 309 308 308 306 304 303 302 302 301 302 302 301 301 300 298 297 295 292 290 289 287 286 285 284 284 283 283 283 282 282 282 282 281 281 281 280 280 281 281 281
306 308 311 312 308 308 307 304 303 303 302 301 301 300 298 299 298 298 296 296 294 291 288 287 286 285 284 283 283 283 282 282 282 281 281 281 281 281 280 280 280 281 281 282

GFSCGP_925_thetae_012.txt.gz
Theta_e
319 321 324 329 330 327 325 327 329 327 324 323 327 328 324 325 323 322 321 320 320 320 317 316 316 317 317 318 321 324 327 328 329 330 330 327 322 319 315 313 312 311 310 310
319 323 322 327 328 326 329 328 328 326 321 322 327 329 327 326 323 321 321 321 320 319 317 316 315 315 315 316 316 319 323 327 329 330 325 320 316 314 312 311 310 309 308 307
320 319 322 328 329 328 328 327 327 328 325 325 324 329 327 320 317 316 317 320 320 319 318 317 316 315 315 315 315 315 316 317 317 317 316 315 314 313 312 310 308 306 306 304
318 319 324 329 329 328 331 327 327 328 331 334 325 334 328 325 321 318 319 320 319 318 317 317 316 315 315 314 314 313 313 313 314 314 314 313 312 310 308 307 306 305 303 301
319 318 327 330 330 326 329 327 328 329 330 328 331 330 328 320 322 319 320 320 319 318 317 317 315 314 313 313 313 312 311 310 310 310 310 309 308 307 305 304 303 302 301 299
316 322 321 329 327 327 324 325 326 325 325 333 329 328 328 325 321 320 319 320 319 318 317 316 314 313 313 312 311 310 309 308 307 306 306 305 304 303 303 301 300 299 297 297
317 324 326 327 329 322 326 330 336 336 335 333 320 324 327 322 318 319 319 320 318 318 316 315 315 314 313 312 310 308 307 305 304 303 302 302 301 300 298 297 296 295 295 294
321 332 330 328 328 326 326 329 331 334 333 330 319 327 325 318 317 316 319 319 319 318 317 316 315 314 312 311 309 307 306 304 302 301 299 298 297 296 295 294 294 293 292 292
322 327 324 327 323 324 327 331 323 324 322 327 326 324 322 318 317 316 317 319 319 318 317 315 314 313 311 309 307 306 305 302 300 298 297 295 294 293 293 292 292 291 291 290
319 323 321 318 323 317 327 326 328 325 331 330 327 326 326 321 319 316 317 319 319 317 316 315 313 312 309 307 305 304 303 300 298 296 295 293 292 291 291 291 290 290 290 289
320 322 317 318 325 327 328 329 328 325 324 329 328 326 320 319 318 317 317 319 319 317 316 314 313 310 307 305 304 302 300 298 296 294 293 292 291 290 290 290 289 289 289 288
319 321 327 321 316 319 325 326 326 330 326 322 323 325 316 316 316 315 317 317 317 317 316 313 312 309 306 304 302 300 299 297 295 293 292 291 290 290 289 289 288 288 288 288
318 322 325 325 321 316 325 323 327 324 320 325 328 326 315 317 318 315 316 316 316 316 315 313 311 308 306 303 301 299 298 295 293 292 291 290 290 289 289 288 288 287 287 287
317 321 322 326 324 323 324 323 325 327 328 326 324 324 319 319 319 317 316 316 316 315 314 313 311 309 305 302 300 298 296 294 291 290 290 289 289 288 288 287 287 287 286 286
321 323 321 320 320 321 321 322 320 323 325 326 325 323 322 320 320 319 317 316 315 315 314 312 312 309 305 301 299 296 294 292 290 289 289 288 288 287 287 287 287 286 286 286
319 323 318 318 318 320 321 320 321 323 324 323 322 322 319 317 317 316 316 316 316 315 313 312 311 309 304 301 298 295 293 290 289 288 288 287 287 287 287 286 286 286 286 286
322 321 320 324 316 318 322 321 320 320 320 320 322 322 317 315 315 316 317 315 315 314 312 312 311 308 302 299 297 296 292 289 288 287 287 286 286 286 286 286 285 286 286 286
322 322 319 318 317 326 321 314 319 320 320 318 319 317 317 317 316 314 314 314 313 312 311 311 309 304 300 297 295 292 290 289 287 287 286 286 286 285 285 285 285 286 285 285
319 322 324 321 320 319 315 314 315 319 321 316 317 315 315 313 314 313 310 309 309 309 308 309 306 301 297 295 293 291 289 287 287 287 286 285 285 285 285 285 285 285 285 285
312 320 325 318 321 325 317 315 313 315 319 314 315 315 315 314 318 316 309 307 306 305 304 303 299 297 296 292 290 290 288 286 287 286 285 285 284 284 284 285 285 284 284 284
318 317 322 323 326 319 315 314 314 319 321 314 314 314 314 316 314 310 306 304 303 302 300 297 296 296 293 290 289 288 286 286 285 285 284 284 284 284 284 284 284 284 284 284
318 321 320 322 325 323 313 313 318 317 314 314 314 313 312 310 308 308 306 303 301 299 297 296 295 293 290 289 287 286 286 285 284 284 284 284 284 284 283 284 284 284 283 283
318 319 317 318 318 313 311 313 311 313 313 311 311 309 309 309 308 307 306 303 301 299 296 294 294 291 289 287 286 286 286 284 284 284 284 284 284 284 284 284 283 283 283 283
311 311 316 314 313 311 310 309 309 310 310 309 308 308 308 308 307 307 306 304 302 298 296 294 292 291 289 286 285 285 284 283 283 284 284 284 284 284 283 283 283 282 282 282
313 313 315 313 311 310 310 310 309 307 307 307 306 306 306 306 305 305 304 303 301 298 295 293 292 291 289 286 285 284 283 283 283 283 284 284 283 283 283 283 282 282 282 282
311 315 317 319 314 314 312 309 307 308 307 307 305 304 302 303 303 302 302 301 300 297 294 292 290 289 286 285 284 283 283 283 283 283 284 283 283 283 282 282 282 282 282 282

GFSCGP_925_thetae_015.txt.gz
Theta_e
315 320 322 322 323 326 327 330 330 329 327 328 329 327 327 325 326 326 324 323 323 323 320 320 320 321 322 325 328 330 330 331 332 332 331 326 321 318 315 313 312 311 311 310
316 320 319 319 322 327 331 329 329 327 327 326 326 327 327 327 327 327 324 323 323 322 320 320 319 319 319 320 324 327 329 331 330 326 323 320 318 315 313 312 310 309 307 306
316 317 318 318 322 329 330 330 327 328 327 325 327 330 329 328 328 325 323 323 323 321 320 319 319 318 318 318 319 320 320 320 319 319 318 316 315 314 312 310 308 306 305 302
314 315 314 319 322 325 333 327 327 328 330 332 328 331 328 328 323 321 321 323 323 321 320 319 319 318 318 317 317 316 317 317 317 317 316 316 313 311 309 308 307 305 303 300
317 316 316 322 323 328 330 327 327 329 331 332 332 333 329 328 326 324 322 323 322 321 319 319 319 317 317 317 315 314 313 313 313 312 312 311 309 308 307 306 305 303 301 299
314 313 318 321 323 325 328 328 329 328 329 333 330 331 329 328 325 324 322 322 321 320 319 318 317 316 316 315 314 312 311 310 309 309 308 308 307 306 305 303 302 300 299 298
315 315 318 322 329 328 330 331 335 335 336 331 327 330 329 322 321 322 322 322 321 320 319 318 317 316 315 314 312 310 309 308 306 306 305 304 303 302 300 300 299 298 297 296
319 322 317 321 326 327 329 331 330 331 331 329 324 328 327 322 320 321 321 321 320 320 319 317 317 316 315 313 311 309 307 306 304 303 302 301 300 299 298 296 296 295 294 293
322 323 322 325 326 325 327 332 325 328 327 330 328 327 322 321 320 319 321 321 321 320 319 318 317 316 314 312 311 309 306 304 302 301 300 298 297 296 296 295 294 293 293 292
318 325 321 325 325 323 328 328 330 328 331 331 329 327 327 323 322 320 320 322 321 320 319 318 317 315 313 311 309 307 305 303 301 299 298 297 295 294 294 293 292 292 291 291
318 316 320 323 329 329 329 331 329 328 328 331 331 328 324 322 320 320 320 321 321 320 319 317 316 314 311 309 308 306 303 301 300 298 297 296 294 293 293 292 291 291 290 290
321 324 325 324 321 325 326 329 328 330 329 327 326 326 319 320 320 319 320 320 321 320 318 317 316 313 310 309 306 305 303 301 299 297 295 294 293 293 292 291 290 290 290 289
321 323 331 328 323 321 328 326 328 328 328 329 328 327 319 321 320 318 319 320 320 319 318 316 315 312 310 308 306 303 302 299 297 295 294 294 293 292 291 290 290 289 289 289
320 322 325 328 326 326 329 328 327 327 329 328 328 326 321 322 321 319 319 320 320 319 318 316 315 313 310 308 305 303 301 298 295 294 293 293 292 290 290 289 289 289 288 288
322 324 323 322 323 324 326 327 327 328 328 328 327 325 324 323 322 321 319 319 319 318 317 316 315 313 310 307 304 301 299 296 294 293 292 291 290 289 289 289 288 288 288 288
321 325 322 323 322 322 324 324 325 326 327 327 326 326 324 322 321 321 320 319 319 318 317 316 315 313 310 307 303 300 297 294 293 292 290 289 289 289 288 288 288 288 288 288
322 324 324 325 320 323 325 323 323 323 323 324 325 325 324 319 319 320 320 319 318 317 316 316 314 313 310 306 302 299 296 293 292 290 289 288 288 288 288 287 287 288 288 288
323 324 323 324 321 328 322 318 321 322 322 322 323 323 320 320 318 318 318 317 317 316 315 314 313 312 308 304 300 298 293 292 290 289 289 288 288 287 287 287 287 287 287 287
321 324 326 325 327 327 323 317 319 322 322 321 321 321 319 318 316 314 313 314 314 313 313 313 312 308 303 300 297 294 292 290 289 289 288 288 287 287 287 287 287 287 287 287
321 323 327 326 325 327 319 317 315 319 323 321 322 320 318 316 320 317 311 310 310 309 310 309 306 302 300 297 295 293 292 290 289 288 287 287 286 286 286 286 286 286 286 286
320 324 325 326 327 327 317 315 315 320 323 315 317 318 317 317 317 312 309 308 307 306 304 302 301 300 297 294 294 293 290 288 287 286 286 286 286 286 286 286 286 286 286 285
324 324 326 326 328 328 316 315 319 319 316 315 316 316 316 312 310 309 307 305 304 302 300 300 299 296 294 293 292 290 288 287 286 286 286 286 286 286 286 286 286 285 285 285
325 323 323 323 325 315 315 315 314 316 316 315 315 314 312 311 309 308 306 304 302 300 299 298 297 294 293 291 290 289 288 286 286 286 286 286 286 286 286 285 285 285 284 284
314 313 319 316 315 315 314 312 313 315 314 313 311 311 310 310 309 308 306 304 302 300 299 298 296 294 291 289 287 287 286 285 285 286 286 286 286 286 285 285 285 284 284 284
315 313 317 316 314 312 312 312 311 311 310 309 309 309 309 309 308 307 307 306 304 301 298 297 296 295 292 289 287 286 285 285 285 285 285 286 286 285 285 285 284 284 283 283
314 317 318 318 316 316 315 312 310 310 309 308 307 306 306 307 306 306 305 304 303 300 297 296 295 293 290 288 287 286 285 284 285 285 285 285 285 285 284 284 284 283 284 284

GFSCGP_925_thetae_018.txt.gz
Theta_e
314 317 320 320 320 321 323 326 330 327 328 328 328 327 326 325 324 323 322 321 319 319 318 320 321 323 327 329 330 330 330 331 331 332 325 320 316 314 312 311 310 308 308 307
315 317 315 316 318 320 323 326 329 328 327 327 327 328 326 324 324 323 322 321 319 318 317 318 320 321 325 328 330 331 331 328 328 325 322 318 315 313 310 308 307 305 304 303
314 315 314 315 316 320 320 326 328 331 329 326 326 327 325 323 323 322 323 322 319 318 317 317 317 319 320 321 321 322 325 323 322 319 317 314 313 311 309 308 306 304 302 300
313 312 313 315 316 317 321 321 325 331 330 333 324 328 325 325 325 325 322 319 319 318 316 316 316 317 318 318 318 318 319 318 318 317 315 315 311 309 308 306 305 302 300 299
314 313 314 316 317 317 321 323 326 328 333 333 332 329 328 325 326 325 318 317 319 317 316 316 316 317 317 316 315 314 314 314 313 313 312 310 308 307 306 304 302 300 299 297
312 313 314 314 315 315 316 322 327 330 332 336 330 331 328 326 324 320 318 318 319 317 316 315 317 317 315 314 312 311 310 309 309 309 308 307 306 305 302 301 299 298 297 296
314 314 313 314 318 316 319 324 331 336 336 332 325 328 327 320 320 321 319 319 318 317 316 315 315 315 315 313 311 309 308 307 306 305 304 303 302 300 299 298 297 296 295 294
315 315 315 314 314 321 323 319 329 336 333 328 325 329 326 320 318 319 319 319 318 317 316 315 314 315 314 312 310 308 306 304 303 302 301 300 299 298 296 295 295 294 293 292
319 318 317 314 313 321 325 320 323 330 322 327 325 325 319 318 318 318 319 319 318 317 316 315 314 315 314 311 309 307 304 303 301 300 298 297 297 296 295 294 293 293 292 291
313 319 320 319 319 319 327 323 332 330 331 332 328 326 324 319 318 317 319 319 318 316 316 315 314 314 313 311 308 305 303 301 300 299 297 296 294 294 293 293 292 291 291 290
312 315 322 321 325 324 325 329 331 329 328 331 329 325 320 319 318 317 317 319 318 317 316 315 313 313 311 309 307 305 302 300 299 297 296 295 294 293 293 292 291 290 290 289
313 316 322 322 321 322 323 329 328 329 330 327 325 322 317 317 317 316 316 319 318 317 316 314 312 311 309 308 306 303 301 299 298 296 295 294 293 293 292 291 290 290 289 289
314 317 326 327 324 327 328 327 328 328 327 329 325 321 317 316 315 318 316 318 318 317 315 313 311 309 308 307 305 303 301 298 296 295 294 293 292 292 291 290 289 289 289 288
320 322 321 331 328 327 330 330 328 328 329 328 326 319 320 319 317 317 316 316 317 317 315 313 311 308 309 307 305 303 300 297 295 294 293 292 291 290 290 289 289 288 288 288
317 327 323 323 326 326 328 328 328 327 327 327 325 322 318 319 317 316 316 317 317 317 315 313 311 308 308 306 304 302 299 296 294 293 292 291 290 289 289 289 288 288 288 288
316 325 324 323 324 325 328 327 327 326 325 324 325 325 322 317 316 315 315 316 317 317 315 313 312 309 307 305 303 300 297 294 293 292 291 290 289 289 288 288 288 287 287 288
321 323 325 322 321 322 324 324 325 325 324 325 327 324 322 317 318 316 315 315 316 315 314 313 311 309 307 305 301 298 296 293 292 291 289 289 288 288 288 287 287 287 287 287
322 323 324 323 321 325 321 317 320 321 321 321 320 320 320 317 315 313 314 314 314 314 314 312 310 310 307 303 300 297 294 292 291 290 289 288 288 287 287 287 287 287 287 287
319 323 327 323 325 324 323 317 319 320 321 319 319 319 316 314 312 311 310 310 311 310 310 310 311 306 303 301 297 294 292 291 290 289 288 288 287 287 286 286 286 286 286 286
321 321 326 324 324 326 319 316 314 317 321 315 317 317 315 314 316 312 309 308 308 308 308 306 304 302 300 295 294 293 291 290 289 288 287 287 286 286 286 286 286 286 286 286
324 324 327 326 326 324 317 315 314 321 321 314 315 316 314 314 312 309 307 306 305 304 302 301 300 299 296 295 294 291 290 288 287 287 287 286 286 286 286 286 286 286 286 285
323 324 326 324 327 326 315 314 319 317 315 314 314 313 311 309 308 306 305 303 301 300 300 300 296 294 294 294 292 290 288 287 287 286 286 286 286 286 286 286 286 285 285 284
324 321 323 323 324 316 313 314 314 315 314 313 311 310 309 307 306 305 303 301 300 299 299 297 294 293 292 292 290 288 287 286 286 286 286 286 286 286 286 286 285 285 284 284
316 313 317 317 314 314 313 312 313 313 311 310 309 308 308 307 306 304 302 300 299 298 298 295 293 291 290 289 288 287 287 286 285 286 285 285 286 286 285 285 285 284 284 283
313 312 315 315 314 312 312 311 310 309 308 308 307 307 307 306 305 304 302 301 299 298 297 295 294 291 289 288 287 286 286 285 285 285 285 285 285 285 285 284 284 284 284 284
312 314 316 318 314 314 312 309 308 308 307 306 306 305 304 304 304 303 302 301 299 297 297 296 294 291 289 287 286 286 285 285 284 284 284 284 284 284 284 283 283 283 283 283

GFSCGP_925_thetae_021.txt.gz
Theta_e
313 314 316 316 317 317 318 320 322 323 324 327 327 328 327 325 323 320 316 315 316 317 315 320 321 324 326 329 329 330 332 332 332 329 324 321 314 313 312 311 310 308 307 306
313 315 313 315 317 319 319 320 321 321 323 325 327 328 326 325 323 321 320 318 316 316 316 316 320 325 328 328 329 330 331 331 329 327 322 317 312 310 309 307 305 304 303 301
314 313 313 314 315 318 319 320 319 321 323 325 326 329 326 323 323 321 319 319 318 317 316 314 315 320 321 323 325 326 328 327 324 322 317 313 310 308 306 305 304 301 301 299
313 311 312 314 315 314 317 316 318 319 324 330 327 334 326 324 321 319 317 316 318 316 316 315 313 315 318 318 320 322 322 320 319 318 314 311 309 308 306 304 302 300 299 298
313 312 312 313 314 313 315 315 317 318 322 324 328 334 325 321 324 323 320 314 316 316 316 315 314 315 316 316 316 317 317 317 315 314 313 310 308 306 304 302 300 298 297 296
312 311 312 312 311 312 314 315 316 320 323 328 326 332 326 324 323 322 320 316 316 315 315 315 314 315 313 313 312 312 311 311 312 311 309 307 305 303 301 299 298 297 295 294
313 313 312 314 316 313 315 316 316 323 324 326 326 330 329 321 318 322 316 317 316 315 316 315 314 312 311 310 309 309 308 306 307 307 306 304 302 300 299 297 296 295 294 292
312 310 313 312 314 316 316 314 317 319 325 326 328 334 326 323 316 318 317 317 315 316 315 314 313 311 310 309 308 306 305 304 304 303 301 300 299 298 297 296 295 293 292 292
312 313 314 312 312 313 315 316 314 324 325 329 329 322 317 316 317 318 317 317 316 315 315 314 312 311 310 308 306 305 303 302 301 300 299 298 297 296 295 294 293 292 291 291
313 315 312 312 314 313 317 317 319 320 330 333 327 322 321 318 317 319 318 317 316 315 314 313 312 311 309 307 305 303 302 300 299 298 297 296 295 294 294 293 292 291 290 290
312 314 316 312 317 317 319 319 321 322 322 331 328 325 317 317 317 319 318 316 315 315 314 313 312 310 309 306 304 302 301 299 298 296 295 295 294 293 293 292 291 290 290 289
312 314 316 317 320 318 318 320 320 322 330 328 321 320 314 314 314 316 317 316 315 314 313 312 311 308 306 305 303 301 299 298 297 296 295 294 293 293 292 291 290 290 289 289
313 315 316 325 322 322 323 322 324 322 327 329 322 319 315 313 313 312 316 316 315 314 313 311 308 307 306 303 301 300 299 297 296 295 294 293 293 292 291 290 289 289 288 288
312 317 320 327 327 326 326 324 321 323 330 327 323 319 318 315 315 313 316 316 315 314 314 311 308 306 305 303 302 300 298 296 295 294 293 293 292 291 290 289 289 288 288 288
316 319 320 319 321 325 327 325 324 328 327 328 319 320 317 315 314 313 316 316 315 315 313 311 308 306 304 302 302 299 297 295 294 293 293 292 291 290 289 289 288 288 288 288
315 317 323 326 326 325 329 328 326 326 325 325 324 325 316 314 312 313 315 317 316 315 313 311 308 306 304 302 299 297 295 294 294 293 292 290 290 289 288 288 288 287 287 287
317 320 327 323 326 327 330 327 326 326 324 324 326 323 315 315 315 314 314 317 316 314 312 311 309 306 303 300 298 295 294 293 292 291 290 289 289 288 288 287 287 287 286 286
318 321 324 323 319 323 318 318 323 325 323 322 323 320 317 314 311 310 311 313 314 313 312 311 308 305 302 299 297 295 293 292 291 290 289 288 288 287 287 287 286 286 286 286
317 320 326 323 323 320 318 315 318 319 320 317 320 317 314 311 311 310 308 309 310 310 309 308 306 302 299 297 295 294 292 291 290 289 288 288 287 287 286 286 286 286 286 286
320 321 324 321 320 324 318 315 312 315 320 315 314 315 314 312 315 311 307 307 305 304 304 301 299 297 296 293 294 292 291 290 289 288 288 287 287 286 286 286 286 286 285 285
323 324 321 324 325 320 317 313 312 319 318 313 313 313 312 312 310 307 305 302 300 300 299 298 296 294 293 293 293 291 290 288 288 287 287 286 286 286 286 286 286 285 285 285
323 325 326 324 326 322 314 313 317 314 313 311 309 308 308 307 306 304 302 301 300 298 296 296 294 293 293 293 292 289 288 288 287 287 286 286 286 285 286 286 285 285 284 284
323 321 324 320 322 316 313 314 313 312 312 311 308 306 306 305 304 302 300 299 298 297 294 294 292 292 292 291 291 288 287 287 286 286 286 286 285 286 286 285 285 284 284 283
317 313 317 317 314 313 312 312 312 310 309 307 306 305 305 304 302 300 299 298 297 296 293 292 291 289 288 289 289 288 287 286 286 285 285 285 285 286 285 284 284 283 283 283
311 311 314 313 312 311 311 311 308 307 306 306 305 305 304 303 302 300 299 297 296 295 293 292 290 288 287 287 287 287 286 285 285 285 285 285 285 284 284 283 283 283 283 283
309 312 315 317 312 311 310 308 307 307 307 306 305 304 303 303 302 300 299 297 296 294 293 292 290 289 287 287 286 286 285 285 284 284 284 284 284 284 283 282 282 282 282 283

GFSCGP_925_thetae_024.txt.gz
Theta_e
312 313 315 314 315 316 316 317 318 318 319 321 324 324 323 323 323 321 318 316 313 314 315 317 320 322 325 326 327 326 323 327 332 328 324 322 318 316 317 314 313 311 308 306
314 316 312 311 313 317 318 318 318 317 316 319 323 324 323 323 323 323 323 319 313 315 315 315 321 324 327 327 329 328 327 325 326 327 323 321 315 311 310 307 305 304 303 302
313 312 311 313 314 316 318 319 317 318 317 316 317 319 322 323 322 322 321 320 314 317 316 315 318 322 325 326 328 329 327 326 325 324 320 313 310 306 304 303 301 300 300 300
313 312 312 313 314 315 317 316 318 318 318 319 321 325 321 323 323 322 322 318 316 317 315 314 315 316 321 323 326 327 326 325 323 322 317 313 307 304 303 302 300 299 298 297
313 312 313 313 313 313 315 313 314 316 318 319 318 322 321 321 324 324 322 319 316 316 315 316 315 315 318 320 321 323 323 321 319 319 316 310 307 305 302 300 299 297 296 295
311 310 312 312 311 312 313 314 314 314 316 320 315 321 321 324 324 323 322 316 315 316 315 314 314 313 313 316 317 317 317 316 315 313 310 308 305 303 300 298 297 296 295 294
314 314 312 313 313 312 312 314 315 318 316 315 313 318 318 320 321 320 321 315 315 315 314 314 312 310 308 309 312 313 314 312 312 310 308 306 303 301 299 298 297 295 294 293
316 314 313 312 313 314 314 314 314 313 315 312 321 323 322 320 318 318 317 316 315 314 315 314 311 309 307 306 307 308 309 307 307 306 304 302 301 300 298 297 296 295 293 291
314 313 311 311 312 312 314 316 311 312 316 322 323 324 321 321 315 315 315 315 315 315 315 313 310 308 306 305 305 305 304 303 303 302 300 299 299 298 297 295 294 293 291 290
309 309 310 311 312 312 313 312 315 315 315 318 325 325 325 321 318 316 316 316 316 315 314 312 310 307 305 304 304 304 303 301 300 299 299 297 297 296 295 294 293 291 290 290
310 309 313 312 313 313 315 315 315 313 315 320 323 327 320 319 319 317 317 317 316 315 314 312 309 307 304 303 303 302 300 299 298 297 296 296 295 294 293 293 291 290 289 289
311 313 313 312 312 312 314 314 315 316 315 323 323 322 315 314 316 317 317 315 315 314 313 311 309 305 303 301 301 300 298 297 296 296 295 294 293 293 292 291 290 289 289 288
313 315 316 316 316 314 316 316 316 318 319 317 327 323 314 312 313 316 315 314 314 313 312 310 307 305 302 300 299 299 297 296 295 295 294 293 293 292 291 290 289 289 288 288
313 316 316 320 324 322 320 319 318 320 322 317 318 322 316 313 313 314 314 314 313 313 312 310 307 305 302 299 298 298 297 296 294 294 293 293 292 292 290 289 289 288 288 288
313 319 318 317 316 317 323 321 321 316 320 321 324 324 320 314 313 315 314 314 313 313 312 310 307 304 301 299 297 297 296 295 294 293 293 292 291 290 289 289 288 288 287 287
314 316 313 317 318 320 323 324 322 319 317 317 320 326 315 312 310 313 314 314 314 313 312 309 307 304 301 299 296 295 294 294 294 293 292 291 290 289 288 288 287 287 287 287
316 316 319 327 325 325 330 327 316 316 320 319 327 321 314 315 313 313 313 315 314 313 311 309 306 304 302 298 296 294 294 293 293 293 291 290 289 288 287 287 287 286 286 286
315 316 322 326 326 324 318 317 325 325 324 321 322 317 315 314 309 309 310 313 313 313 311 308 306 304 300 297 295 295 293 293 292 291 290 289 288 287 287 287 286 286 286 286
315 318 323 327 323 319 317 315 319 324 324 316 321 315 313 311 311 311 307 310 311 310 309 307 305 300 297 295 294 294 292 292 291 290 289 288 287 287 286 286 286 286 286 285
317 318 322 317 321 324 318 314 312 314 319 314 314 313 312 311 316 312 306 305 304 304 303 301 298 296 294 292 294 292 291 290 289 289 288 287 287 286 286 286 286 286 285 284
323 321 322 320 325 319 316 313 312 320 316 313 312 312 312 312 309 305 300 299 298 298 296 296 295 293 291 293 293 290 290 289 289 288 287 287 286 286 285 286 285 285 284 284
323 324 324 321 322 318 314 313 316 312 311 310 308 308 307 306 304 302 300 299 297 295 294 293 291 290 291 293 293 289 289 288 288 287 286 286 286 285 286 285 285 284 283 283
321 320 321 319 318 314 312 313 313 310 310 309 306 306 305 304 303 301 299 297 294 293 292 292 291 290 291 292 292 288 287 287 287 286 286 285 285 286 285 284 283 283 283 283
316 313 319 319 316 314 312 312 311 310 308 305 304 305 304 302 301 299 297 295 293 292 291 290 289 288 287 289 290 289 287 287 286 285 285 285 285 285 284 283 283 282 282 282
314 312 314 314 312 311 311 310 307 305 304 303 302 302 301 300 299 298 297 295 292 291 290 289 288 287 287 288 288 287 286 286 285 285 285 284 284 284 283 283 282 282 282 283
308 313 316 317 312 311 310 307 306 306 305 304 303 302 300 300 299 297 296 295 292 291 290 289 287 287 286 287 286 285 285 285 285 284 284 284 284 283 283 282 282 282 282 282

GFSCGP_925_thetae_027.txt.gz
Theta_e
311 312 314 314 313 315 316 316 316 317 316 316 317 319 320 319 319 321 319 318 319 314 313 316 318 319 321 323 324 324 325 331 334 330 322 320 319 318 316 317 316 318 313 306
313 314 311 310 310 313 315 317 317 315 315 315 315 316 315 314 315 320 320 320 320 314 314 314 317 320 324 324 325 324 323 329 328 327 323 321 314 312 310 307 306 305 303 302
313 311 311 312 312 313 314 315 314 316 314 314 315 316 313 313 315 318 320 320 319 316 314 314 315 321 324 325 326 324 322 324 324 325 321 314 310 305 302 302 301 300 301 300
313 311 311 311 312 312 314 313 315 317 318 316 315 316 314 314 315 317 319 320 319 313 314 315 316 318 322 325 326 324 322 322 322 321 320 318 309 302 300 300 299 299 299 298
313 312 312 312 313 312 314 313 315 316 315 315 315 316 313 314 315 317 318 319 317 314 314 315 317 318 322 323 325 323 321 320 319 320 321 317 308 304 300 299 298 298 297 296
310 310 311 312 311 311 312 313 314 315 315 316 312 314 313 310 313 318 318 317 316 315 314 315 314 316 316 319 322 320 319 317 318 319 317 316 308 302 299 297 297 296 295 294
315 314 311 312 312 311 313 315 316 317 317 313 310 312 312 310 313 317 318 317 315 313 314 314 313 311 310 313 316 316 317 314 315 314 312 308 305 302 300 298 297 295 294 293
316 317 313 312 313 313 313 314 316 314 313 310 310 315 313 311 311 311 312 314 312 313 314 315 314 311 309 309 312 313 313 311 310 309 307 305 304 301 299 298 296 295 294 292
314 310 311 312 312 313 315 315 312 314 311 315 316 314 315 311 316 315 314 313 313 313 315 315 311 308 307 306 308 310 309 307 307 306 304 301 300 298 297 296 295 294 292 290
310 309 309 311 311 312 313 311 315 315 314 311 308 313 321 315 313 312 311 314 313 313 315 312 309 306 304 304 306 307 307 305 303 302 300 299 298 297 296 295 293 292 290 289
310 309 308 311 313 313 314 314 313 312 311 309 312 308 307 315 316 314 313 313 314 314 313 310 307 305 302 302 302 302 302 301 299 298 297 297 296 295 294 293 292 291 289 289
311 311 311 311 311 311 311 312 313 313 312 311 312 314 313 312 312 314 315 316 315 314 311 309 305 302 301 299 299 298 298 298 297 297 296 295 294 293 293 292 290 289 289 288
312 314 315 316 313 312 314 313 314 313 314 312 313 311 312 311 313 314 316 316 315 313 310 307 304 302 300 298 297 297 297 296 295 295 294 293 293 293 292 290 289 288 288 288
311 315 316 316 318 315 316 315 315 315 316 315 314 312 311 310 314 315 315 316 315 312 311 308 305 302 299 297 296 295 295 295 294 294 293 293 292 292 290 289 288 288 287 287
313 317 316 315 314 314 316 319 316 316 316 318 316 314 312 314 319 316 314 313 313 313 310 308 305 301 298 296 295 295 294 294 294 293 293 292 291 290 289 288 288 287 287 287
313 316 313 315 315 316 319 318 318 316 315 318 318 318 315 315 312 313 313 314 314 313 311 308 305 301 297 296 294 293 293 293 294 293 292 291 290 289 288 288 287 287 286 287
314 314 317 319 323 321 322 319 320 319 318 318 319 317 315 315 313 314 313 314 313 312 310 308 305 301 298 296 294 293 293 293 293 293 291 290 289 288 287 287 287 286 286 286
316 315 317 322 323 328 323 320 319 320 318 315 316 316 316 315 311 311 311 313 312 311 310 307 304 301 297 295 294 294 293 293 292 291 290 289 288 287 287 286 286 286 286 285
316 317 322 327 324 322 315 319 319 319 321 315 315 317 313 311 311 311 308 310 309 310 308 305 303 299 296 294 294 294 292 292 291 290 289 288 288 287 286 286 286 286 285 285
318 318 320 322 323 323 317 314 311 315 319 313 318 317 313 312 316 314 307 306 306 306 304 301 298 296 294 293 294 292 291 291 290 289 288 288 287 286 286 286 286 285 284 284
320 322 323 321 324 318 315 313 311 318 316 312 312 312 311 313 309 302 300 298 299 299 297 296 295 293 291 292 292 290 290 290 289 288 288 286 286 285 285 286 285 284 283 283
321 322 322 318 321 317 310 311 315 310 311 309 308 308 306 303 301 299 298 296 296 294 293 292 290 289 290 291 293 289 289 288 288 287 286 286 285 285 285 285 284 283 283 282
319 318 318 316 316 312 311 313 312 309 310 307 306 305 303 302 300 298 295 294 293 292 291 290 289 288 290 292 293 289 287 287 287 286 285 285 285 285 285 284 283 283 282 282
314 312 317 317 314 314 312 311 309 307 306 303 303 304 303 301 298 295 294 293 292 291 290 289 289 287 287 290 290 289 287 287 286 285 285 285 285 285 284 283 283 282 282 282
313 312 314 314 311 311 311 310 306 304 303 303 301 302 301 300 298 296 293 292 290 289 289 289 288 286 286 288 287 286 286 286 285 284 284 285 284 284 283 283 282 282 282 282
308 313 316 317 313 312 310 307 304 305 304 302 301 300 299 299 297 295 293 291 290 288 288 287 286 286 285 286 285 285 285 285 285 284 284 284 284 283 282 282 282 281 281 282

GFSCGP_925_thetae_030.txt.gz
Theta_e
310 312 316 316 314 315 316 316 318 315 314 314 315 315 314 313 314 316 317 318 316 316 316 316 317 317 319 320 323 325 328 331 332 332 328 323 322 320 321 318 317 316 314 314
312 314 310 310 310 313 315 317 316 314 312 314 314 314 313 312 313 314 316 317 317 317 313 312 315 317 319 321 322 322 328 329 329 328 325 322 318 313 315 313 310 306 305 303
311 310 310 311 311 312 312 312 312 312 311 312 312 313 310 309 310 311 311 312 315 317 316 312 312 316 320 322 323 322 325 327 326 326 322 315 311 306 303 303 302 300 301 301
311 311 311 311 311 311 313 311 312 313 314 314 313 315 311 311 310 309 309 312 316 317 313 312 312 316 320 323 324 323 322 324 323 322 319 318 309 302 299 299 299 298 298 298
313 311 312 313 311 310 312 311 312 314 315 314 314 316 310 308 309 309 310 311 313 315 314 313 312 316 320 323 324 323 321 320 320 319 317 313 306 303 299 298 297 296 296 296
311 309 310 310 310 310 312 313 314 315 315 317 313 312 311 308 308 307 310 310 314 315 311 312 313 317 319 321 322 320 318 317 317 316 313 313 311 300 297 296 296 295 295 294
314 315 312 311 311 311 313 316 316 317 317 314 309 312 312 307 307 309 309 311 312 312 311 312 313 314 313 316 317 316 316 312 313 313 311 311 307 302 299 297 296 295 294 292
316 310 313 311 311 311 313 314 316 316 314 308 308 311 310 307 308 308 308 309 310 312 310 313 314 315 313 313 315 314 313 311 311 311 310 308 305 301 299 298 296 295 294 292
314 311 310 311 311 311 315 315 312 316 314 316 312 310 310 310 308 311 309 308 307 308 311 313 314 314 312 311 311 313 311 310 309 308 306 303 301 299 297 296 295 294 292 290
311 312 308 310 310 311 313 312 315 315 316 316 309 307 309 308 306 307 307 307 309 310 312 313 313 310 309 308 308 309 310 307 305 304 302 300 299 297 296 295 293 292 290 289
311 311 309 311 312 312 315 314 315 313 313 308 309 306 303 304 305 309 312 309 307 311 313 312 309 306 303 303 304 304 304 303 301 300 298 297 295 295 294 293 291 290 289 288
310 313 313 311 311 310 311 312 312 312 311 310 307 309 308 308 310 313 314 311 310 311 311 308 303 301 301 299 299 299 298 299 298 297 296 295 294 293 293 291 290 289 288 288
310 313 312 312 312 311 313 313 312 312 311 311 309 309 305 306 307 312 314 314 312 310 307 303 302 301 298 296 296 295 296 296 296 295 294 293 292 292 291 290 289 288 288 288
311 314 313 315 315 314 316 313 314 314 315 313 313 310 309 309 310 310 314 314 312 310 308 305 302 299 297 295 294 293 293 295 294 294 293 292 292 291 290 289 288 288 287 287
312 317 315 315 314 314 315 317 314 314 314 316 314 312 310 310 312 313 313 313 314 312 308 305 301 298 295 294 293 292 293 293 293 293 292 292 291 290 289 288 288 287 287 287
314 316 313 315 315 315 316 316 316 315 314 315 314 315 314 313 313 314 311 314 316 313 309 305 301 297 295 293 292 291 292 292 293 292 291 291 290 289 288 287 287 286 287 287
314 314 317 318 316 318 323 319 317 317 316 315 316 314 314 315 317 315 314 315 315 313 309 305 301 298 295 293 292 291 292 292 293 292 290 290 289 288 287 287 286 286 286 286
315 316 315 319 320 328 323 321 319 318 317 314 315 315 315 315 314 310 311 312 312 311 308 304 300 297 294 293 293 293 292 292 292 291 290 289 288 287 286 286 286 286 286 286
315 318 319 325 323 323 320 321 317 317 318 316 316 315 314 312 310 311 309 310 310 310 307 303 300 296 294 293 293 293 291 292 291 289 289 288 288 287 286 286 286 286 285 285
315 315 320 320 324 326 317 313 314 315 320 313 313 314 314 313 319 314 307 308 308 306 303 299 296 294 293 292 293 292 290 290 290 289 288 287 286 286 286 286 286 285 284 284
320 321 322 322 323 317 315 312 310 317 315 312 313 313 314 315 312 304 302 300 301 301 298 296 295 293 291 292 292 289 290 289 289 288 287 286 286 285 286 285 285 284 284 283
319 322 321 319 321 316 310 311 315 310 310 310 309 309 309 303 301 299 298 297 297 296 294 292 291 289 290 291 292 289 289 288 287 286 286 285 285 285 285 285 284 283 283 282
318 316 317 316 315 311 310 312 310 308 308 307 306 304 302 300 298 296 294 293 292 291 290 290 289 288 289 291 292 288 286 287 286 286 285 285 285 285 285 284 283 283 282 281
313 311 316 316 314 312 311 310 306 305 304 303 302 302 300 297 295 293 293 292 291 290 289 289 288 287 286 289 289 287 286 286 286 285 284 285 285 285 284 283 283 282 282 281
312 312 314 313 312 309 309 308 304 302 302 301 300 300 297 296 295 293 291 290 289 289 289 289 287 285 284 287 286 286 286 286 285 284 284 284 284 284 283 283 282 282 281 282
307 313 315 316 313 311 309 305 303 303 302 301 300 299 297 296 294 292 291 290 289 288 287 285 284 284 284 285 285 285 285 285 285 284 284 284 283 283 282 282 282 281 281 281

GFSCGP_925_thetae_033.txt.gz
Theta_e
310 314 316 316 314 313 314 316 317 317 315 315 316 315 315 314 314 314 314 314 315 316 317 317 318 319 318 318 319 321 323 327 330 331 331 328 330 327 326 326 324 321 318 313
312 314 311 311 313 314 316 317 315 313 312 313 313 314 312 312 312 312 313 313 314 315 316 316 315 316 318 319 319 321 326 328 329 328 325 321 320 315 317 315 314 313 312 305
312 311 310 311 311 312 312 314 314 313 311 311 311 312 310 309 310 310 311 312 312 314 316 317 315 315 317 318 319 321 326 327 326 326 325 319 314 310 307 305 305 303 302 300
311 310 311 311 311 311 313 310 312 312 313 314 311 313 310 310 310 309 309 310 310 311 312 315 316 315 316 318 320 321 324 324 324 325 323 320 313 307 301 301 300 298 299 299
311 312 312 312 312 310 312 310 311 312 314 313 313 314 312 309 310 309 309 308 308 311 312 314 316 315 316 318 321 321 321 322 321 320 321 314 310 304 300 298 297 296 296 297
309 308 310 310 310 310 310 311 313 314 314 318 314 314 314 311 309 308 309 308 309 311 312 314 314 314 316 318 321 321 319 318 317 317 314 313 310 301 298 295 296 294 294 294
314 314 312 310 311 310 312 316 316 317 318 316 310 314 313 309 310 309 307 308 307 309 312 313 314 316 316 317 319 318 316 314 314 313 311 310 306 303 299 295 295 293 293 292
314 311 313 312 312 312 313 313 316 316 314 311 307 314 312 308 309 308 308 307 309 309 312 312 313 316 316 316 315 314 312 311 309 309 308 306 302 299 296 296 295 295 294 292
315 311 309 310 310 311 314 315 312 315 314 317 313 309 308 307 307 307 308 309 309 308 309 312 313 315 315 315 314 312 310 307 308 306 306 304 302 300 297 296 295 294 292 291
310 310 307 309 310 311 313 311 315 315 315 315 313 311 310 307 308 307 306 311 311 308 308 311 314 315 315 314 311 309 308 306 306 306 305 303 300 297 295 295 293 292 291 290
310 310 308 311 311 311 314 313 315 313 315 315 312 310 305 306 305 306 312 312 312 311 308 312 314 312 310 307 306 304 304 304 301 301 300 298 296 295 294 293 292 291 290 289
309 312 312 309 308 309 310 313 313 315 314 314 312 312 307 305 307 311 308 313 313 311 311 311 308 304 305 303 302 301 299 298 297 297 296 295 294 294 293 291 291 290 289 289
309 312 312 308 310 309 312 312 312 314 313 315 314 311 306 305 305 307 311 314 313 310 306 304 304 304 302 300 298 298 295 294 294 294 294 293 292 292 291 290 289 289 288 288
310 311 310 312 312 314 314 312 312 313 315 314 314 311 309 308 308 308 311 313 312 308 305 304 303 301 299 297 296 294 292 293 293 293 292 291 291 291 290 289 288 288 288 287
311 316 312 312 312 313 314 315 314 314 314 315 313 313 311 310 309 311 312 313 312 309 306 303 301 298 296 294 293 292 291 291 292 291 291 291 290 290 289 288 287 287 287 287
312 316 314 315 315 315 316 316 315 314 314 314 314 314 311 310 312 313 315 313 314 311 306 302 299 297 295 293 292 291 290 290 292 291 290 290 289 288 288 287 287 287 287 287
315 314 316 318 317 318 323 321 321 317 314 313 316 313 311 312 313 315 314 314 315 314 306 301 299 297 294 293 292 291 290 291 291 291 289 289 288 287 287 286 286 286 287 286
315 314 315 318 319 326 323 320 318 319 316 314 314 314 313 313 313 313 310 312 315 311 305 301 298 295 293 291 291 290 290 291 290 289 289 288 288 287 286 286 286 286 286 286
312 315 319 322 323 320 318 315 318 321 320 315 315 314 313 314 311 310 308 310 312 309 304 301 297 294 292 291 290 290 290 290 289 288 288 288 287 286 286 286 286 286 285 285
315 315 319 319 323 324 318 314 312 314 319 315 315 314 314 314 319 313 304 307 307 305 301 297 295 293 291 290 290 290 289 289 288 288 287 287 287 286 286 286 286 285 284 284
319 318 319 320 324 317 313 311 311 316 317 311 313 313 313 317 310 304 302 302 302 301 297 295 294 293 290 290 290 289 288 287 288 287 287 286 286 286 286 286 285 284 284 283
319 321 323 320 320 318 310 311 315 311 308 309 309 312 313 305 301 299 298 298 298 296 294 292 291 290 289 290 290 288 286 287 287 287 286 285 285 286 285 285 284 283 283 282
317 315 317 315 315 311 310 311 309 306 307 306 306 304 304 301 298 296 295 293 293 292 291 290 289 288 288 289 290 286 285 287 286 286 285 285 285 285 284 284 283 283 282 281
312 310 315 317 315 312 310 309 304 303 303 301 301 300 299 297 295 293 293 292 291 290 289 289 288 287 285 287 288 287 286 286 286 285 285 285 285 284 284 283 283 282 281 281
311 311 314 313 312 310 309 307 304 302 301 299 297 297 295 295 293 292 291 290 290 289 288 288 286 285 284 286 286 286 286 286 285 285 285 284 284 284 283 282 282 281 281 282
307 313 315 316 312 311 308 305 303 303 301 299 298 296 295 294 293 291 290 289 288 287 286 285 284 283 283 285 285 285 285 286 285 284 284 283 283 283 282 281 281 281 280 281

GFSCGP_925_thetae_036.txt.gz
Theta_e
315 317 318 316 316 316 316 318 319 318 316 316 317 317 316 316 316 316 316 317 317 319 319 319 320 321 322 321 322 322 323 325 329 332 335 337 336 327 324 324 329 329 325 320
315 316 314 313 315 316 316 317 318 316 314 314 314 314 313 312 313 313 314 314 314 314 316 317 318 320 321 321 322 323 324 327 330 332 331 330 327 318 318 319 320 320 319 319
316 314 311 313 314 316 316 317 316 316 314 312 313 314 314 313 312 312 312 312 313 313 314 314 316 318 320 321 322 323 325 329 330 329 329 321 313 310 308 307 311 309 314 311
314 313 312 313 314 314 315 312 313 313 314 317 313 317 315 314 314 313 313 313 313 313 314 314 314 316 318 320 322 323 325 327 328 325 320 318 320 314 308 305 304 307 305 303
314 313 314 313 313 312 314 312 312 313 315 314 315 316 315 314 314 313 313 314 313 313 313 314 314 314 316 319 322 323 325 326 323 321 322 323 321 315 307 302 298 299 298 297
312 311 312 313 312 312 312 313 313 313 315 319 315 316 315 314 314 314 312 312 312 312 313 313 313 314 315 318 323 323 323 323 321 322 322 324 318 308 302 298 295 296 295 295
314 314 312 312 313 312 313 315 317 319 318 317 312 314 315 312 312 312 313 312 312 312 312 313 316 316 317 318 322 323 322 321 320 320 321 320 311 307 304 298 296 295 294 294
317 318 314 313 313 313 314 314 317 317 315 314 311 314 313 312 312 312 312 312 311 312 314 313 315 318 318 319 322 322 321 319 318 318 317 313 307 302 298 296 295 294 294 293
317 314 310 313 312 312 314 316 313 316 315 317 313 311 312 311 311 311 311 311 312 313 313 314 313 316 318 320 322 321 320 317 316 316 310 303 301 299 297 295 295 294 294 292
313 316 310 311 312 312 314 312 315 316 315 314 313 312 313 311 311 311 310 311 312 312 313 315 314 315 317 320 321 320 318 315 314 311 307 301 298 297 297 295 294 293 292 292
312 311 311 310 312 313 313 314 315 313 314 316 315 314 310 310 309 310 309 311 312 314 315 316 314 315 318 320 320 317 315 312 309 306 302 298 296 297 295 294 293 293 292 291
311 312 313 312 310 310 311 312 313 317 315 315 316 316 310 310 310 310 310 310 312 315 316 316 315 317 318 317 316 314 310 308 304 301 298 295 294 294 294 293 292 292 291 290
311 313 315 314 314 311 312 312 312 314 314 317 318 315 310 309 308 309 310 310 311 315 314 313 312 313 315 313 312 309 306 301 299 297 294 293 293 293 293 292 291 291 290 290
311 313 313 315 316 316 317 314 313 314 316 316 317 315 312 311 311 311 311 311 314 316 313 311 312 312 312 311 308 303 298 295 294 293 293 292 293 293 292 291 290 290 289 289
311 315 314 314 313 314 315 316 316 315 315 316 315 315 315 313 313 312 312 314 315 316 312 310 309 309 308 304 299 295 293 292 292 292 292 292 292 291 290 289 289 289 289 288
312 316 316 315 314 315 317 318 318 317 316 315 315 316 313 313 313 312 312 313 316 315 312 308 307 306 302 297 294 293 292 291 291 291 290 291 290 290 289 289 288 288 288 287
314 315 316 320 316 318 325 323 321 320 317 316 318 315 313 313 313 313 315 315 316 315 310 307 305 301 298 295 293 292 291 292 291 291 291 290 290 289 289 288 288 288 288 287
315 315 316 320 319 327 324 319 319 319 318 315 314 314 314 314 314 315 313 313 314 314 309 306 301 297 295 294 293 292 292 292 292 291 290 289 289 288 288 288 288 287 287 287
314 315 319 321 322 320 320 318 316 319 321 317 316 315 315 314 315 313 309 313 316 311 307 304 298 296 296 294 293 293 293 292 291 291 289 289 288 288 287 287 287 287 286 286
313 313 317 321 322 324 320 316 313 316 325 315 317 315 316 316 323 316 309 310 306 306 303 300 297 297 296 294 294 293 292 292 290 289 288 288 288 288 288 287 286 285 285 285
320 318 318 320 322 321 317 316 313 319 318 313 313 315 316 319 311 306 307 307 305 302 300 298 297 296 294 293 293 292 291 290 289 288 288 287 287 287 286 286 285 285 285 284
320 321 323 322 323 323 314 318 320 316 313 312 312 312 314 307 303 303 302 301 300 299 297 295 293 292 292 292 292 292 290 288 287 287 286 285 286 285 286 285 285 284 284 284
320 319 321 319 320 316 314 315 313 310 310 310 309 309 308 304 302 299 300 299 297 295 295 295 294 293 293 292 290 288 286 286 286 285 285 286 285 285 285 285 285 285 284 284
316 314 320 320 319 317 314 311 308 307 307 305 305 305 305 302 300 298 297 296 295 294 294 293 292 291 290 288 287 286 286 286 286 286 285 285 285 284 284 284 284 284 284 283
318 315 318 319 318 317 312 310 307 305 303 302 301 301 301 300 298 297 295 293 293 292 292 292 290 289 288 287 286 286 286 286 286 286 285 285 285 284 284 283 283 283 283 282
314 318 319 321 316 315 312 308 305 305 302 300 300 298 298 298 296 295 293 292 291 290 289 289 288 287 286 286 285 285 285 286 286 285 285 285 284 284 283 283 283 281 280 281

GFSCGP_925_thetae_039.txt.gz
Theta_e
316 318 319 319 318 319 318 319 320 319 318 318 319 318 318 317 318 318 318 319 319 319 321 320 321 321 322 322 324 325 325 325 325 328 332 336 338 338 339 337 334 327 321 323
317 319 317 316 316 317 318 319 319 318 316 316 316 316 315 315 315 316 315 316 316 317 317 318 319 320 320 322 324 324 324 325 326 330 333 336 337 337 334 328 324 319 315 318
319 316 313 315 316 317 317 317 317 317 316 315 315 316 317 316 316 315 315 314 314 315 315 316 316 317 320 321 322 324 324 325 327 330 333 335 330 324 319 316 314 311 315 316
317 315 313 314 316 315 317 314 314 314 316 318 315 320 316 316 316 316 315 315 314 314 314 314 315 316 316 319 322 323 324 325 329 332 333 332 324 318 312 310 308 306 307 308
317 314 315 315 314 313 315 313 314 314 316 316 316 318 317 315 315 315 315 315 315 315 315 315 315 315 315 316 321 324 324 326 330 331 331 328 321 320 310 307 305 305 305 306
315 312 313 314 313 313 313 313 313 313 314 319 316 317 316 315 314 314 315 315 314 313 314 313 314 314 315 315 319 324 325 327 330 330 326 323 325 316 306 303 301 302 300 300
315 314 312 312 314 313 313 315 319 321 319 318 314 315 315 314 314 313 314 314 314 313 313 312 313 314 315 316 317 323 325 327 328 326 325 325 325 313 307 303 301 299 297 297
316 320 315 313 314 315 313 315 318 319 315 316 315 315 314 314 313 312 312 313 312 312 312 314 314 315 317 317 317 322 325 326 325 325 325 327 318 312 307 303 300 299 298 296
317 316 312 313 313 312 314 315 313 315 314 316 313 313 313 313 313 312 312 312 312 312 313 313 314 315 314 318 318 322 324 324 323 324 325 321 314 310 306 302 298 297 296 296
315 318 312 313 312 313 314 313 315 317 317 317 315 315 315 314 313 312 312 311 312 313 313 314 315 316 314 317 319 322 323 322 322 323 320 315 308 300 297 297 296 295 295 294
313 313 313 312 313 314 314 315 314 314 316 318 318 317 312 311 312 311 311 311 312 312 314 315 316 317 315 317 321 322 323 321 320 317 309 305 301 297 296 294 295 294 293 293
312 314 314 313 311 311 312 313 313 316 316 316 318 318 313 312 311 311 311 312 311 311 312 316 316 317 317 320 322 322 320 319 316 310 304 299 296 295 295 295 294 294 294 293
312 313 315 316 314 312 313 312 313 314 316 319 320 318 311 312 311 311 311 311 311 311 312 316 315 316 319 321 321 319 316 313 309 304 299 296 296 295 295 295 294 293 293 292
312 313 314 317 319 316 319 315 315 316 318 317 318 317 315 314 314 313 311 311 312 313 315 315 314 315 316 318 316 314 311 307 304 300 297 295 295 294 294 294 293 292 292 291
312 315 313 314 314 314 317 317 318 318 317 318 317 317 317 316 314 314 314 313 313 313 315 314 313 314 314 314 312 306 303 302 299 297 296 294 294 293 293 292 292 291 291 290
312 315 317 314 314 316 319 318 319 320 320 319 318 318 315 314 313 313 314 313 313 315 316 313 311 312 311 306 302 299 297 295 294 294 294 293 293 292 292 291 290 290 290 289
314 315 315 317 316 317 324 324 322 321 320 320 319 317 315 314 314 315 314 315 315 315 314 310 309 308 301 297 295 294 293 293 292 292 292 291 291 291 290 290 290 290 289 289
315 314 314 321 318 327 323 319 319 318 319 318 317 317 316 315 315 313 311 313 313 314 310 308 304 300 296 294 293 292 293 292 291 291 291 291 290 290 290 290 290 289 289 289
313 314 319 319 319 319 321 319 318 319 321 317 318 318 317 317 317 312 311 312 313 310 308 303 299 295 293 293 293 293 292 292 291 291 291 290 290 290 290 289 289 289 288 288
314 314 318 317 321 322 320 318 315 318 324 316 315 317 319 318 321 313 310 306 307 303 299 297 296 294 294 294 294 294 294 293 292 292 291 290 290 289 289 289 288 287 287 287
318 317 318 318 320 320 318 317 315 322 320 315 314 315 317 314 311 309 307 303 303 300 298 298 297 296 296 295 295 295 294 293 291 290 289 289 289 288 288 287 287 287 286 286
320 321 321 320 323 324 316 319 322 319 315 314 313 313 309 307 305 304 303 302 301 300 299 299 297 297 296 295 294 292 290 289 288 288 287 287 287 287 287 287 286 286 286 286
321 318 324 322 322 319 319 318 315 312 312 312 311 311 308 305 304 303 300 298 297 296 295 293 293 293 293 292 290 289 288 287 287 287 287 287 287 287 287 287 287 286 286 286
318 317 319 320 320 320 319 316 312 309 308 307 308 309 309 305 302 301 300 300 298 297 296 294 294 292 290 288 287 286 287 287 287 287 287 286 286 286 286 285 285 285 285 285
319 318 319 320 319 318 314 312 310 307 305 304 304 306 304 302 300 299 298 297 296 296 295 294 292 289 287 286 286 286 287 287 287 287 287 287 286 286 286 285 284 284 284 283
317 318 318 319 317 317 314 310 308 307 303 303 303 302 301 300 299 298 296 295 294 294 292 291 289 287 286 286 286 287 288 287 287 287 287 286 286 285 285 284 284 283 282 281

GFSCGP_925_thetae_042.txt.gz
Theta_e
320 322 323 322 322 322 321 319 319 317 318 317 317 317 317 316 315 315 316 315 316 317 317 320 320 321 321 321 322 326 326 325 324 326 335 338 339 338 337 336 335 334 332 329
317 318 317 317 317 318 317 318 318 317 316 315 315 315 314 314 314 314 314 314 315 315 315 316 318 320 321 321 322 322 325 325 324 324 327 333 338 338 337 337 336 334 330 323
318 316 316 317 317 317 316 317 317 316 315 313 313 314 314 315 313 313 313 313 313 312 313 314 314 316 319 320 321 321 323 325 325 325 328 333 337 335 335 334 331 326 322 318
317 315 314 315 317 316 317 315 315 315 315 316 314 317 314 313 313 313 311 311 311 311 311 312 312 312 315 317 319 320 321 324 324 325 331 334 331 327 324 326 322 319 316 314
317 315 316 315 315 314 315 314 314 314 315 314 314 315 314 314 313 313 313 312 311 311 310 310 310 312 314 314 316 320 320 323 324 326 332 333 329 324 319 317 316 314 313 309
315 313 313 314 313 313 313 313 314 313 314 315 314 315 314 312 312 312 311 313 312 311 312 312 312 313 313 314 314 314 322 322 325 329 333 331 326 321 314 311 310 310 307 304
314 314 312 313 314 313 313 314 313 318 317 313 313 315 314 312 311 311 311 313 311 311 311 310 309 309 312 313 314 314 316 324 327 331 332 328 321 321 314 309 307 305 301 299
315 317 314 312 313 314 313 315 313 318 317 316 313 314 311 311 311 311 311 310 310 309 309 310 312 310 313 314 314 315 320 325 329 331 329 325 320 315 310 307 306 303 301 299
316 317 313 313 313 313 313 314 312 315 312 310 311 309 309 310 310 310 310 310 309 308 309 311 311 311 314 314 316 316 320 325 329 329 325 322 316 311 306 304 303 302 300 298
316 317 313 314 312 312 313 312 315 312 308 314 313 312 312 311 311 311 309 308 308 310 311 311 311 312 315 315 315 317 321 325 326 325 323 315 311 309 305 303 301 299 298 296
313 313 313 312 313 314 313 314 313 313 315 313 316 314 311 312 312 312 311 310 310 309 309 310 312 313 315 315 316 318 323 324 324 324 315 311 308 304 301 299 298 296 296 295
312 314 314 313 311 311 312 313 312 313 312 313 313 315 312 311 309 310 309 309 309 309 309 309 312 312 314 316 319 320 323 322 314 310 305 303 302 298 297 295 295 296 295 295
312 314 310 315 313 311 311 312 313 313 314 315 316 314 310 310 312 312 310 308 309 310 309 311 311 312 312 318 321 321 320 310 305 303 300 297 296 295 295 295 295 294 294 293
312 313 313 314 315 314 312 313 312 314 316 315 315 314 313 314 315 315 314 312 311 310 310 312 312 311 312 318 318 314 307 304 300 298 297 296 296 295 295 294 294 293 293 292
311 314 313 313 312 312 313 315 315 317 317 318 318 318 317 317 315 314 313 312 311 312 312 312 311 311 313 314 310 306 304 299 297 296 296 295 295 294 294 293 292 292 292 291
311 313 310 310 312 312 313 315 316 316 318 320 321 321 316 314 312 314 314 314 314 314 314 311 310 312 310 305 301 301 300 299 296 295 294 294 293 292 292 292 291 291 291 290
313 312 314 316 316 316 319 319 320 321 321 320 321 319 316 316 316 315 315 314 314 314 313 309 309 302 299 297 297 295 296 295 294 294 293 293 292 292 291 291 291 291 289 289
313 314 314 316 316 321 321 320 319 319 318 319 318 318 318 317 312 310 311 310 313 312 310 308 301 298 296 295 294 293 293 293 292 292 291 291 290 290 290 290 290 289 289 289
313 314 316 318 316 315 317 318 318 317 319 319 318 316 318 317 313 310 306 305 305 306 303 299 295 294 293 293 292 292 292 291 292 291 291 290 290 290 290 290 289 289 288 288
313 313 317 316 317 320 318 316 316 316 321 315 315 316 317 312 318 311 304 301 298 297 295 294 293 293 293 293 292 292 292 292 292 291 291 290 292 292 289 289 288 288 288 287
317 317 318 317 319 315 315 316 315 321 319 314 314 314 310 310 310 306 302 300 299 298 296 295 295 295 295 295 294 294 293 292 291 291 290 290 289 289 288 288 288 287 287 287
317 319 319 315 318 317 317 318 321 316 313 312 313 313 308 306 304 303 301 300 300 299 298 297 296 296 296 295 293 292 291 291 289 288 288 288 288 288 287 287 287 287 286 286
319 317 320 317 316 315 316 317 311 309 310 309 310 311 307 305 303 300 298 297 295 294 294 295 295 294 293 291 289 288 287 288 288 287 287 287 287 287 287 287 286 286 286 285
316 315 317 319 318 318 313 312 308 306 305 305 308 309 306 303 302 301 298 297 296 295 295 292 291 289 289 288 287 287 287 287 287 287 287 287 286 286 286 286 286 285 285 284
317 316 317 317 316 315 312 309 308 305 304 304 304 306 303 301 300 298 297 296 295 294 292 290 288 287 286 286 287 287 287 288 287 287 286 286 286 286 285 285 284 283 284 282
314 316 316 315 315 315 312 308 307 304 303 302 302 301 300 298 297 295 294 295 294 291 289 288 287 286 286 287 288 288 288 288 287 286 286 286 285 285 284 284 283 283 282 282

GFSCGP_925_thetae_045.txt.gz
Theta_e
322 321 323 320 319 319 320 319 317 315 316 315 316 316 314 314 313 314 314 311 313 315 315 317 318 318 318 319 320 321 325 336 338 339 340 340 340 339 337 335 334 333 331 332
318 319 318 319 320 321 319 316 316 315 314 313 312 313 312 312 312 312 313 311 312 313 311 312 316 317 318 319 320 320 322 328 337 338 338 339 339 338 338 336 334 334 332 332
316 315 315 316 316 316 315 316 316 315 312 310 311 313 311 311 310 311 312 311 311 311 311 311 310 314 316 316 319 320 321 322 325 331 333 335 337 337 336 335 335 334 333 332
317 314 314 315 316 315 317 313 314 314 313 313 310 315 310 311 310 310 308 308 310 309 308 308 308 309 313 314 316 318 320 320 322 323 324 329 334 333 335 334 333 332 331 328
315 315 314 314 315 314 315 313 313 313 312 311 311 312 310 309 312 310 309 306 306 308 308 309 308 310 312 313 313 314 318 319 320 323 324 326 332 333 332 329 329 327 324 323
313 311 312 314 313 312 312 312 312 312 310 311 311 312 309 310 311 311 310 310 309 307 307 308 308 310 311 312 313 313 314 317 318 320 325 327 330 329 324 319 317 316 316 316
313 313 311 312 314 312 314 312 306 318 317 311 311 313 311 310 310 309 308 308 309 307 308 308 309 308 311 312 313 312 313 314 315 320 327 329 329 329 327 319 313 311 309 307
309 310 313 311 312 313 313 312 308 316 315 313 310 314 311 308 310 307 308 308 307 307 305 307 310 307 310 313 314 315 312 314 315 324 328 329 327 323 320 316 313 310 307 305
312 314 313 312 312 311 313 313 310 313 308 302 308 306 306 307 309 307 307 306 305 305 305 308 309 310 312 313 313 314 315 314 319 328 326 325 323 324 321 315 312 310 306 304
315 316 313 314 312 312 309 309 309 304 303 311 310 309 310 310 311 309 308 307 306 306 308 308 310 311 313 313 313 315 315 315 326 326 324 319 319 321 316 312 308 307 302 299
313 312 313 314 312 312 312 315 312 310 309 309 314 312 307 309 311 309 308 309 309 308 306 305 310 311 312 313 314 316 314 318 324 322 316 317 315 313 310 308 305 302 299 298
312 312 315 311 310 309 310 311 309 304 307 309 306 313 309 309 308 310 311 312 309 305 306 310 311 311 312 312 316 318 316 321 317 316 315 311 308 307 305 303 300 298 297 297
312 313 303 314 310 310 310 311 310 310 311 306 310 312 307 307 310 312 314 313 312 311 307 309 310 310 310 312 318 317 312 309 308 309 304 302 302 300 299 297 297 296 295 295
311 311 307 309 310 311 309 311 310 311 312 313 312 312 311 311 315 315 313 312 312 311 310 309 309 310 311 314 309 305 303 301 302 300 299 297 297 296 295 295 295 295 294 294
310 310 312 311 311 311 310 311 312 312 313 315 313 315 316 317 318 316 313 313 313 312 312 310 310 311 310 307 304 300 299 298 298 297 297 296 296 295 295 294 293 293 293 293
309 306 308 303 309 310 310 312 312 313 313 315 316 318 317 317 316 315 315 315 313 311 312 311 310 305 302 302 300 298 297 296 297 296 295 294 294 293 292 292 292 292 293 293
312 311 302 306 312 313 315 315 314 315 316 317 322 319 319 318 318 312 310 308 309 312 313 309 299 296 297 297 296 295 294 294 294 293 293 292 292 291 291 291 291 290 290 289
312 312 307 307 310 315 317 315 317 317 318 317 318 318 317 317 311 307 303 301 303 311 307 300 296 295 294 293 293 293 293 293 292 292 292 291 291 291 291 291 292 292 292 290
311 311 314 314 312 313 319 318 317 317 316 318 317 316 316 313 313 308 301 298 297 296 295 294 293 293 293 292 292 292 292 291 291 291 291 291 292 292 291 289 290 291 292 289
312 313 315 316 314 317 318 315 314 314 318 314 315 316 315 311 317 310 301 298 295 294 294 293 293 293 292 292 292 292 292 291 291 291 291 291 291 291 291 291 289 288 287 287
315 317 317 316 318 313 311 312 315 320 317 312 313 314 309 311 308 303 300 298 296 296 295 295 295 294 293 293 293 292 293 292 291 291 291 292 293 294 292 289 288 287 287 286
315 317 319 318 317 315 311 315 320 314 311 310 312 311 307 305 303 300 300 299 298 297 296 295 294 292 293 293 293 292 291 291 292 292 293 291 289 287 287 289 287 286 286 286
318 314 316 313 313 310 313 315 309 308 308 308 309 308 306 303 301 298 296 295 298 297 295 294 292 292 292 292 293 292 292 293 289 287 288 288 288 289 287 286 286 285 285 284
315 314 317 316 316 314 312 307 306 305 305 305 307 305 304 304 300 298 296 295 294 293 293 292 291 291 289 288 288 288 287 287 288 288 287 287 287 286 286 286 285 285 284 282
312 314 315 315 314 312 310 308 305 303 303 303 304 304 302 301 299 297 297 296 295 292 290 289 287 286 286 287 287 287 288 288 287 287 286 286 286 285 285 284 283 283 282 282
312 314 316 316 312 313 311 307 304 302 302 302 301 299 299 297 296 295 294 293 291 289 288 287 287 287 287 287 287 287 288 288 287 286 285 285 285 284 283 283 282 283 283 282

GFSCGP_925_thetae_048.txt.gz
Theta_e
323 324 325 324 322 318 318 320 318 315 314 313 313 312 312 312 311 312 313 312 311 311 312 314 315 316 316 317 318 318 319 326 338 338 338 337 337 338 338 337 335 333 330 328
322 321 319 320 320 321 321 320 317 314 313 313 312 312 311 311 311 311 312 312 312 311 310 309 314 316 317 318 318 318 317 319 332 338 338 338 338 338 338 336 335 334 332 329
318 315 316 317 319 320 315 315 315 315 312 310 310 311 310 309 309 309 310 311 311 311 311 311 308 312 314 315 317 317 318 318 321 336 338 338 338 336 335 335 334 332 331 330
315 314 316 316 316 314 316 312 313 313 312 313 310 312 310 309 309 308 306 306 307 308 307 308 308 309 313 315 316 316 316 317 320 330 336 336 335 334 335 336 335 333 331 330
315 314 314 314 315 313 314 312 312 312 311 310 310 312 309 307 310 309 308 306 305 304 305 305 305 308 312 312 313 314 314 315 316 322 330 333 333 334 334 335 334 333 329 328
312 311 312 312 311 312 311 310 310 309 307 306 309 311 309 309 311 310 309 305 306 306 305 304 306 308 309 310 311 311 310 312 313 316 320 323 332 333 331 330 329 327 327 324
313 313 311 311 312 311 310 307 304 307 306 309 309 311 310 308 309 308 307 305 303 303 304 305 306 306 309 311 313 313 312 312 313 314 317 321 326 331 333 330 326 323 321 319
312 311 312 310 312 312 311 308 305 310 315 311 308 312 310 308 306 305 304 305 305 304 302 302 306 306 310 312 313 313 313 314 313 313 314 318 324 326 326 326 325 322 318 316
308 312 312 310 311 310 311 306 308 308 303 302 307 305 303 306 308 307 306 306 306 306 305 303 306 309 310 311 312 312 312 312 314 314 314 321 324 323 324 323 321 318 316 313
312 311 313 312 312 311 309 309 307 299 300 309 308 308 308 307 310 308 307 307 307 307 308 306 306 309 311 311 311 312 313 314 314 314 319 322 322 321 320 319 316 314 311 308
312 308 314 313 312 311 312 312 310 306 305 307 312 310 305 308 309 308 307 308 312 311 309 307 302 308 311 311 312 314 316 316 314 319 321 318 316 316 316 312 312 311 309 307
312 310 311 313 310 308 310 310 309 304 305 305 304 310 307 307 307 307 310 312 311 311 308 306 306 309 310 311 312 316 317 317 317 319 316 314 314 312 310 309 308 308 304 300
311 310 306 312 309 309 310 310 309 307 309 302 310 310 306 306 308 309 314 314 310 310 310 307 306 308 309 310 315 314 315 315 314 313 311 309 307 307 305 303 301 300 298 296
311 308 306 308 307 307 305 310 309 307 307 307 308 310 310 309 311 314 316 315 310 313 312 309 309 308 308 311 307 305 302 302 303 305 303 301 301 301 300 298 296 295 294 294
309 309 310 309 310 311 310 310 309 306 311 311 312 313 312 313 315 316 314 314 314 314 312 309 308 306 306 302 299 299 299 299 298 298 297 296 295 295 295 294 293 293 293 293
307 304 308 303 308 309 308 309 310 310 311 313 313 314 312 313 316 313 311 308 308 308 312 310 300 298 298 297 297 297 298 298 298 297 296 295 294 293 293 292 292 293 293 294
311 310 303 305 309 312 311 312 312 312 311 313 316 315 316 317 316 309 305 302 302 304 309 302 297 295 295 295 295 295 295 295 295 294 293 292 291 291 291 291 292 292 292 292
312 310 302 304 308 312 313 314 313 313 313 313 315 317 315 316 310 304 300 298 298 297 297 294 293 293 293 293 293 293 293 292 292 292 292 292 292 292 293 294 293 291 290 291
309 309 307 311 311 311 317 317 317 316 316 315 315 313 316 313 311 306 300 296 295 295 294 293 293 293 292 292 292 292 292 292 291 291 292 293 295 292 292 291 291 291 291 290
311 310 311 314 311 317 315 314 313 312 316 313 313 314 316 312 318 310 299 296 295 294 293 293 292 292 292 292 292 292 292 292 292 291 292 292 292 292 291 291 291 291 290 288
315 315 315 314 316 314 309 310 314 319 316 312 312 314 310 312 308 303 299 297 296 295 295 294 293 293 293 292 292 292 291 291 291 291 291 291 292 293 292 291 288 288 289 286
313 313 316 315 317 313 309 313 319 314 311 310 310 308 308 305 302 301 300 298 297 296 295 293 292 292 293 293 292 291 290 291 292 292 292 292 291 291 289 288 287 286 286 285
314 311 314 314 312 308 310 313 309 307 307 308 309 307 305 303 300 298 298 297 296 295 293 292 291 291 291 292 292 291 291 292 292 292 291 289 288 287 286 286 285 285 284 284
312 311 315 314 314 311 310 308 306 305 305 304 306 305 302 302 299 296 295 295 296 296 295 294 294 291 290 293 293 292 293 292 289 287 287 287 286 286 285 285 284 284 282 282
312 313 315 314 312 311 310 308 306 304 303 303 305 303 303 300 298 296 295 294 293 292 290 289 287 287 287 289 289 289 287 287 287 287 286 286 285 284 284 283 283 282 282 282
310 313 315 316 313 312 311 307 304 302 302 302 302 301 300 300 298 296 295 294 291 289 288 287 287 287 287 287 287 287 287 288 287 286 285 285 284 284 283 283 283 283 283 282

GFSCGP_925_thetae_051.txt.gz
Theta_e
322 324 326 323 319 318 317 319 319 316 314 313 312 311 311 310 309 309 310 312 312 312 311 312 314 315 315 316 315 316 316 318 333 338 339 338 338 339 338 337 336 335 334 333
323 324 321 323 323 322 321 321 320 314 313 313 311 311 311 311 310 310 311 311 311 311 309 308 311 313 314 316 317 315 316 316 329 336 337 337 337 337 338 338 337 335 335 335
321 317 321 322 321 323 319 316 315 315 312 309 309 310 309 308 308 308 308 308 309 309 310 310 307 310 312 313 315 316 317 317 318 332 336 336 336 335 335 335 335 335 335 334
315 313 318 316 319 315 315 312 313 312 313 314 309 312 309 308 307 308 306 304 304 305 306 306 306 307 309 311 313 314 315 315 317 319 336 336 335 333 333 334 335 336 334 333
315 314 314 316 315 312 314 311 311 311 310 309 310 311 308 306 309 309 306 304 303 302 303 304 304 306 308 309 311 312 312 313 313 316 321 335 335 333 333 333 334 335 332 330
312 311 312 312 311 311 310 309 308 308 307 306 308 310 308 308 309 306 305 303 303 302 302 303 303 306 307 309 310 311 311 312 312 313 315 327 334 333 333 333 331 332 332 330
313 312 310 310 311 310 308 307 304 306 306 309 308 310 309 308 308 308 306 305 303 303 305 305 301 301 306 308 310 310 311 312 311 311 312 316 325 332 332 332 329 326 326 327
314 315 312 310 311 312 310 308 305 309 313 311 307 312 309 306 305 303 306 306 306 307 305 304 304 305 308 310 311 311 312 312 313 312 312 313 317 321 326 330 329 328 327 323
308 312 310 310 310 310 311 307 306 306 302 304 307 305 301 306 307 307 306 306 306 307 307 306 304 308 310 311 311 310 311 311 311 311 312 313 314 319 322 325 327 324 322 322
309 312 313 312 311 310 309 307 308 300 299 307 305 306 305 306 308 307 306 305 306 309 308 307 305 305 306 308 310 310 311 312 312 313 313 313 314 318 321 322 322 321 318 316
310 308 314 312 312 312 311 309 307 305 304 304 310 307 304 306 307 307 305 306 309 312 310 308 307 307 307 309 310 310 313 314 315 315 315 315 317 319 319 317 316 314 313 311
310 308 314 314 309 308 309 309 307 304 304 302 302 308 305 305 305 305 308 307 313 311 308 306 305 305 306 309 310 311 313 313 315 315 315 314 314 314 313 312 311 310 309 307
310 306 305 309 307 307 309 309 307 305 301 302 304 308 305 304 307 307 311 313 314 309 310 313 308 306 307 307 308 307 306 306 309 310 310 309 309 309 308 307 306 305 302 299
309 306 306 308 306 305 306 309 308 304 303 306 305 307 308 308 308 311 315 313 312 312 311 311 308 306 304 304 301 300 300 301 303 304 304 303 303 303 303 303 301 300 298 296
308 309 308 308 308 309 309 309 308 303 308 305 308 309 309 309 310 313 311 309 307 306 304 306 306 301 299 297 298 299 299 299 299 298 299 297 298 296 296 294 294 293 293 293
306 308 308 303 307 308 308 309 309 308 309 309 310 311 309 310 313 314 308 304 304 302 303 306 297 295 294 294 295 296 297 297 297 295 294 294 293 293 292 292 292 292 292 292
310 310 304 305 307 310 309 309 309 309 308 311 312 311 314 315 316 310 304 300 300 298 297 295 293 293 293 294 294 293 293 294 293 292 292 292 291 291 291 291 292 292 292 294
309 309 303 304 306 310 310 311 310 310 311 310 311 312 314 315 310 303 300 297 297 296 294 294 293 292 293 294 294 294 293 293 292 292 292 292 292 292 292 293 292 292 293 291
308 309 308 309 311 308 314 317 315 314 315 312 311 312 313 312 308 306 300 295 294 294 294 293 292 292 292 292 292 292 292 292 293 292 292 292 292 292 292 291 291 291 292 292
309 308 310 314 314 314 313 312 312 312 316 312 312 312 316 312 318 312 299 296 295 294 293 293 292 292 292 292 292 292 292 292 292 291 291 291 291 291 292 291 291 291 291 290
315 314 314 314 313 311 309 309 313 319 315 311 311 311 311 313 310 302 298 296 296 295 294 294 293 293 293 292 292 291 291 290 290 291 292 292 292 292 292 291 290 290 289 286
313 314 315 313 316 314 308 313 319 313 310 310 309 310 309 305 302 301 299 297 296 295 294 293 292 293 292 292 292 290 290 291 292 291 291 291 291 291 291 290 288 286 285 284
313 308 310 310 311 308 307 312 310 307 307 307 308 307 306 304 301 301 299 297 296 294 293 291 292 292 292 292 292 290 290 291 292 292 291 291 290 288 285 285 284 284 284 283
311 309 312 313 314 310 309 307 307 305 305 304 304 305 303 303 299 297 297 297 296 296 294 293 292 292 292 292 292 292 292 292 292 289 288 286 286 285 285 285 284 283 282 281
312 311 313 313 312 311 310 308 307 305 303 303 304 303 302 298 298 297 296 294 295 293 293 290 289 289 290 292 292 292 291 288 287 286 286 285 285 284 283 283 282 282 282 281
308 311 312 315 312 311 310 308 305 304 303 301 303 302 301 300 297 296 295 293 292 289 289 288 289 289 289 290 289 287 287 287 287 286 285 284 284 283 283 283 283 283 283 283

GFSCGP_925_thetae_054.txt.gz
Theta_e
322 322 325 322 319 317 317 318 319 316 313 313 313 311 311 310 308 308 308 308 309 310 311 312 314 314 314 314 315 316 315 316 327 338 339 338 336 338 337 338 338 337 335 332
324 321 322 321 319 321 319 319 320 316 312 312 311 310 310 311 310 309 310 310 309 308 308 307 310 311 312 313 314 314 315 315 317 332 336 337 337 337 338 337 338 337 336 334
321 321 322 323 322 323 320 319 316 316 311 308 308 310 309 308 307 306 306 306 305 305 305 306 306 308 309 310 312 314 315 316 314 323 332 336 337 336 336 335 336 337 337 336
315 318 323 321 321 321 321 314 313 312 313 315 308 314 309 307 306 306 302 301 301 300 301 302 302 304 306 308 309 310 311 313 314 316 333 334 334 334 333 334 336 336 336 336
316 318 317 321 319 318 315 311 311 310 309 309 310 311 308 306 308 306 304 303 303 303 302 303 300 303 305 307 307 308 310 312 313 314 322 333 333 333 334 333 334 333 334 334
311 310 311 311 310 312 309 309 307 306 306 306 308 309 307 307 308 306 305 304 304 304 305 306 306 306 308 309 309 307 307 309 311 311 313 319 330 332 333 333 332 333 332 331
312 312 310 310 311 309 309 311 307 304 305 308 308 310 308 307 306 306 307 305 304 305 306 305 305 304 308 309 310 311 310 309 309 309 310 312 318 330 332 332 332 330 329 328
312 315 312 310 311 311 309 308 306 307 311 309 306 311 309 305 304 304 306 304 304 306 306 306 305 305 307 307 308 310 310 310 310 310 311 311 312 316 325 330 330 330 329 329
309 312 310 310 310 309 309 305 305 303 301 302 306 304 301 305 306 306 304 304 304 306 308 307 305 306 307 309 309 308 310 310 310 311 311 311 311 312 314 318 324 327 327 325
308 312 312 311 310 309 309 306 308 298 300 306 304 305 304 307 308 305 305 305 304 305 308 307 305 307 308 309 308 310 310 311 312 313 314 314 313 313 314 315 319 322 323 322
307 309 314 311 311 310 310 307 306 304 304 305 308 304 302 305 308 307 304 305 305 309 308 306 305 308 309 310 309 309 309 310 311 313 315 315 314 314 316 317 318 318 318 316
309 309 314 312 308 307 308 308 306 303 304 301 303 306 305 304 305 305 304 306 308 310 308 307 308 308 307 307 306 307 307 306 307 311 311 312 312 312 313 314 313 313 312 310
309 306 303 311 308 306 309 308 305 303 301 301 304 306 304 303 304 305 307 311 310 310 308 305 306 305 302 300 300 301 302 303 305 307 307 307 307 308 309 310 308 307 307 305
307 305 306 307 306 305 306 309 306 304 306 305 303 305 306 307 306 306 308 311 308 305 302 302 304 300 297 297 299 300 300 301 302 302 303 302 303 303 302 302 301 300 298 297
307 309 308 308 307 308 308 308 307 302 305 303 306 306 307 307 307 307 310 306 303 301 300 299 297 293 294 295 296 297 298 297 296 296 295 295 295 295 295 294 294 293 293 293
305 307 306 302 307 307 308 308 307 307 308 307 309 310 309 308 309 315 307 304 302 299 298 295 295 293 294 294 294 294 294 294 294 293 293 293 293 292 292 292 292 292 292 291
310 309 303 306 306 308 309 309 308 307 307 310 310 310 309 313 315 312 304 301 298 298 296 293 292 293 294 294 294 293 293 293 293 292 292 292 292 292 292 292 292 291 291 292
308 309 308 309 305 309 308 309 308 308 308 307 308 309 310 313 310 303 301 298 296 296 295 293 292 292 293 294 294 294 294 293 293 293 293 292 292 292 292 292 292 292 293 293
308 309 311 310 310 307 313 313 311 312 315 308 308 308 311 312 307 306 300 295 294 294 293 292 292 292 292 292 292 292 292 292 292 291 291 291 291 291 292 292 292 292 292 292
308 307 310 312 312 312 310 311 312 312 316 311 310 312 313 312 314 313 299 297 295 294 293 293 293 293 292 292 292 292 291 291 291 291 291 291 291 292 292 291 291 291 291 290
313 313 311 312 313 308 306 308 311 320 314 311 311 310 313 314 310 302 297 296 295 295 294 294 293 293 292 292 292 291 291 290 291 291 292 292 292 292 291 291 291 291 288 285
312 311 314 311 314 312 307 313 318 314 310 310 309 309 311 306 302 301 297 296 295 294 293 293 293 293 292 292 292 291 290 290 292 292 292 291 291 291 291 289 286 284 284 283
312 307 308 308 308 307 307 311 311 307 308 308 308 308 307 304 302 300 297 296 295 293 292 292 292 292 292 292 292 291 290 292 292 291 291 290 288 286 285 284 284 283 283 283
310 307 310 312 313 311 310 308 306 306 306 305 304 306 303 304 301 299 298 295 295 294 293 293 293 293 292 292 292 292 291 292 291 289 286 285 284 284 284 283 283 282 281 281
309 309 309 310 311 311 310 308 307 306 303 303 304 304 303 300 299 298 298 296 296 295 293 291 292 292 292 292 292 292 292 290 288 286 285 284 284 283 282 282 283 283 282 281
306 312 314 315 310 310 309 307 306 305 304 302 302 303 300 298 298 297 296 294 293 292 290 290 291 291 291 292 292 290 288 288 287 285 283 283 283 283 283 284 284 284 283 283

GFSCGP_925_thetae_057.txt.gz
Theta_e
320 322 322 322 319 316 316 317 319 317 312 314 314 313 312 311 310 311 311 311 311 310 310 310 311 311 312 313 314 314 314 315 328 338 338 335 337 337 334 336 337 336 337 334
321 323 321 320 318 317 317 318 318 315 312 312 311 311 311 312 311 310 310 310 309 307 305 305 306 308 309 310 312 313 313 314 315 330 334 335 335 336 335 335 338 336 337 336
318 320 322 321 321 322 319 319 316 317 311 308 309 313 310 308 306 304 303 304 304 305 305 305 303 304 306 307 308 310 312 312 313 315 329 335 335 335 334 334 332 336 336 337
316 319 323 323 323 322 324 316 313 313 314 318 309 319 312 307 307 306 305 306 307 307 306 306 305 305 305 306 306 307 309 310 312 313 326 332 332 333 333 333 332 334 334 335
314 321 319 320 320 318 319 311 311 310 310 310 310 314 311 305 307 306 306 306 307 307 307 308 307 305 307 308 309 307 307 308 309 310 313 327 331 332 332 332 332 333 333 333
312 312 315 313 318 316 310 308 308 306 307 313 308 310 308 308 307 306 306 306 306 307 308 308 307 307 308 308 309 310 309 308 307 309 311 320 330 331 331 332 332 332 332 332
314 312 310 310 312 310 310 314 313 310 312 313 308 310 310 306 306 306 308 306 305 306 309 309 308 307 308 309 309 309 309 309 309 309 308 309 314 326 330 330 330 330 328 328
312 318 312 310 311 313 309 314 312 310 312 310 307 312 309 305 304 305 305 305 304 306 309 309 308 307 308 309 310 309 309 310 310 311 310 310 309 310 314 322 327 328 329 328
310 313 310 309 309 309 309 309 304 304 301 307 307 305 302 305 304 306 305 307 307 306 308 309 307 307 308 308 309 308 309 310 311 310 312 313 312 312 311 311 314 319 325 327
308 313 311 309 310 308 309 306 310 303 306 308 303 304 304 307 308 306 307 306 307 308 310 309 308 308 307 307 308 307 308 308 309 309 311 312 313 313 313 313 313 315 319 322
308 310 313 311 311 310 310 309 306 305 305 307 306 305 302 304 305 307 306 306 307 311 310 308 307 307 305 304 304 304 305 306 307 308 310 311 312 313 313 314 315 316 316 316
308 310 314 311 308 307 308 309 305 308 307 303 305 307 304 303 304 304 306 306 311 309 306 303 303 303 300 299 299 301 302 304 305 306 308 309 308 309 308 310 311 311 312 313
308 307 311 312 310 307 309 307 305 303 303 306 308 306 303 303 304 304 306 310 308 305 302 302 301 298 296 297 298 298 298 299 301 303 305 306 307 307 307 307 307 307 306 305
307 306 307 311 308 306 307 309 305 304 306 305 305 305 305 305 306 306 308 308 305 302 299 298 296 295 294 295 295 295 296 296 296 298 298 298 299 300 300 300 299 298 298 298
307 309 308 308 307 307 308 309 307 304 305 307 306 306 306 306 306 306 309 306 303 300 298 295 295 294 294 294 294 294 294 293 294 294 294 294 295 295 295 296 295 295 295 294
305 309 303 303 307 307 308 309 308 307 307 307 307 309 308 308 308 313 308 304 300 299 297 294 294 293 294 294 294 294 293 293 293 293 293 293 293 293 293 292 292 292 292 292
309 305 303 307 306 307 309 309 309 307 306 309 310 309 308 310 311 313 307 302 299 298 296 294 292 292 294 295 294 294 294 294 293 293 293 292 292 292 292 291 292 291 292 292
308 309 306 309 305 309 306 307 307 308 308 307 308 308 309 308 311 304 302 299 297 296 295 293 292 292 293 293 294 294 294 293 293 292 292 292 292 291 291 291 291 291 291 292
308 309 308 308 310 306 312 310 309 310 315 307 307 307 307 311 308 306 299 296 294 294 293 293 292 292 292 292 293 293 293 292 292 292 291 291 292 291 292 292 292 292 292 291
308 307 306 308 311 312 308 310 311 311 317 311 307 308 312 312 315 312 298 296 295 294 294 294 293 293 293 292 292 292 292 292 291 291 291 291 291 291 291 291 291 290 289 289
312 312 310 307 309 307 305 306 310 320 316 311 310 310 312 313 309 302 297 296 295 294 293 294 293 293 292 292 292 291 291 291 291 291 291 291 291 291 291 290 290 290 287 284
309 310 310 308 311 308 306 312 319 315 310 310 309 308 311 307 302 299 297 295 294 293 293 294 293 293 292 292 292 291 290 290 291 291 291 291 291 291 289 286 284 283 283 283
312 307 307 306 306 305 307 310 310 309 309 308 307 307 308 305 302 300 298 296 295 293 292 292 293 292 292 291 292 291 291 291 291 291 290 289 286 285 284 284 284 284 283 283
309 306 309 311 311 307 308 308 306 306 306 306 304 305 304 305 302 300 297 295 294 293 292 292 292 292 292 292 292 292 292 291 291 287 285 284 284 284 283 283 282 282 281 281
307 307 310 308 308 309 310 309 307 307 304 303 303 304 303 302 301 300 298 296 295 294 293 293 293 293 292 292 292 292 292 290 286 285 284 284 283 283 282 283 283 282 281 281
305 309 312 315 308 308 309 308 306 306 305 302 301 303 301 300 299 299 298 297 295 293 291 292 292 292 292 293 293 292 289 288 286 284 284 283 283 283 283 284 284 284 284 283

GFSCGP_925_thetae_060.txt.gz
Theta_e
320 321 324 323 320 316 318 319 317 318 315 318 320 320 319 318 317 317 317 317 317 317 315 312 312 312 313 314 316 316 317 317 323 332 338 337 338 337 336 339 337 337 335 334
320 322 321 320 320 318 318 317 318 318 315 317 318 318 317 317 317 315 315 315 315 312 311 310 308 309 310 311 313 314 315 316 317 323 333 336 337 337 338 336 336 336 336 335
320 319 319 320 321 320 319 318 320 319 315 313 315 318 316 310 309 309 309 311 312 313 313 312 311 310 310 310 310 311 312 314 315 316 323 331 334 335 336 337 336 333 335 335
317 316 321 321 321 319 321 318 318 317 320 322 314 319 315 311 312 313 314 315 315 314 314 313 313 312 311 311 310 308 309 310 311 313 317 325 331 332 332 332 334 334 333 332
315 317 323 323 321 320 321 317 316 315 317 316 315 319 313 311 313 313 313 313 315 315 315 314 313 312 312 312 312 312 310 308 309 311 314 320 327 328 329 331 332 333 333 332
312 313 315 317 319 315 311 313 313 313 315 321 315 316 312 311 312 312 311 312 313 315 316 316 314 313 313 313 312 312 312 311 310 309 311 314 320 326 329 330 332 332 333 331
310 313 312 316 314 314 313 317 323 322 323 321 311 312 313 310 309 311 313 313 313 315 316 316 315 313 314 313 313 312 311 312 312 312 311 310 312 318 326 328 330 330 331 331
321 320 314 313 314 316 314 318 323 319 315 314 310 315 313 310 308 310 309 311 313 315 316 316 314 314 314 313 313 312 312 312 313 313 313 313 312 312 313 317 322 325 326 328
318 317 311 311 310 312 314 318 310 313 309 314 313 311 309 308 308 310 310 312 313 315 315 314 313 313 312 312 311 311 310 311 311 311 313 313 314 314 314 314 315 318 321 325
313 318 312 310 311 310 313 310 316 316 318 316 310 308 312 310 311 311 312 312 314 315 314 312 311 311 309 308 308 308 308 308 308 309 311 311 312 312 313 314 316 316 317 319
312 315 315 313 314 314 312 314 310 311 310 314 310 309 311 313 312 311 311 311 314 314 311 310 309 307 305 305 305 305 305 306 307 307 309 309 309 309 309 310 310 311 312 313
311 315 316 314 310 310 311 312 311 315 314 310 313 311 308 311 311 309 310 311 313 310 308 308 306 304 304 304 304 303 303 303 304 305 307 308 309 309 309 309 309 310 311 312
311 314 316 314 312 310 313 311 309 308 311 314 315 311 308 309 309 309 310 314 312 309 306 305 304 302 302 302 301 301 300 300 300 302 303 304 304 303 303 302 302 303 304 303
310 310 312 314 314 313 314 312 309 314 317 313 313 310 310 310 310 311 312 313 311 307 304 303 303 301 300 300 299 299 298 298 298 299 299 299 297 296 296 296 296 295 296 296
311 314 312 310 309 310 312 312 310 311 313 319 311 310 311 310 311 311 313 310 307 305 303 301 301 300 300 300 299 298 298 297 297 297 296 296 295 294 295 294 294 294 294 293
309 314 309 311 309 309 311 311 311 311 311 311 312 312 311 311 311 313 314 309 305 301 300 299 298 299 300 300 299 298 298 296 296 295 294 294 293 293 292 293 293 293 293 293
311 311 312 314 309 310 314 312 312 311 311 312 314 312 311 311 311 314 311 307 303 300 299 298 297 297 298 298 297 297 297 296 296 295 294 293 292 291 291 291 292 292 292 292
311 312 312 313 311 317 311 309 310 311 311 310 311 311 311 311 311 309 307 305 302 299 298 296 296 296 296 296 296 296 296 294 293 293 292 292 291 291 291 291 292 292 292 292
309 311 313 313 312 311 313 310 311 313 318 311 310 311 311 310 313 312 304 300 299 298 296 295 294 294 295 295 295 295 294 294 292 292 292 291 291 291 291 290 290 290 291 290
309 310 312 311 313 314 315 312 312 311 322 314 311 313 313 315 321 318 304 299 298 297 296 296 295 294 294 293 294 294 293 293 291 291 291 291 291 291 290 290 290 290 290 289
313 312 314 313 314 311 309 309 309 322 320 314 313 314 314 316 316 307 301 299 298 297 296 295 294 294 293 293 293 292 292 291 291 291 291 291 291 291 291 290 290 289 286 285
311 312 312 310 312 312 308 313 319 317 313 312 312 312 312 311 304 302 300 299 297 296 295 295 294 294 293 292 292 292 291 291 291 291 291 290 290 289 287 285 285 285 285 284
313 311 312 311 311 308 309 311 311 310 311 311 311 310 310 308 304 303 299 298 297 295 294 294 293 293 292 291 293 292 291 291 291 290 288 286 285 285 285 285 285 284 284 284
312 309 311 311 312 310 309 309 309 309 310 309 308 308 309 310 306 302 300 297 295 294 294 294 294 294 292 292 293 293 292 291 289 287 285 285 285 284 284 283 283 283 283 283
313 310 312 312 311 311 312 312 310 308 307 306 305 306 307 308 306 304 300 297 296 295 294 294 295 294 293 292 292 292 291 289 287 286 285 285 284 284 284 284 283 283 282 282
311 313 314 313 312 313 313 309 306 308 308 307 306 306 306 306 306 304 301 298 296 295 295 295 295 294 293 292 291 291 289 287 286 285 285 284 284 284 285 285 285 284 284 283

GFSCGP_925_thetae_063.txt.gz
Theta_e
320 322 322 320 319 317 316 318 317 317 319 319 318 319 318 318 318 318 318 317 317 317 317 317 316 315 316 317 318 318 319 319 320 325 331 341 339 337 338 339 341 340 339 337
321 322 319 319 318 318 318 318 318 318 317 318 317 319 319 318 318 317 318 317 317 317 316 314 312 312 312 314 315 316 318 318 319 319 323 335 338 337 337 337 337 338 339 338
321 320 318 322 320 319 317 318 317 318 318 317 317 319 317 316 313 312 312 313 314 315 314 314 314 313 313 313 313 313 314 316 317 318 319 323 334 336 338 339 337 336 336 337
319 319 319 322 322 318 319 317 316 319 318 317 317 315 318 315 314 314 315 316 316 315 315 315 314 314 314 314 315 312 311 312 313 315 317 319 324 331 334 334 335 336 336 335
317 320 320 323 323 319 321 319 319 319 321 319 318 319 317 314 315 315 316 316 317 317 317 316 315 315 315 315 315 315 314 312 311 312 314 315 318 323 328 330 330 331 333 335
311 312 315 320 316 318 319 319 318 318 319 324 320 319 316 315 315 314 314 314 316 317 317 317 316 316 316 316 316 314 314 314 313 312 312 314 316 320 325 327 329 330 332 333
311 311 311 313 316 314 317 321 326 327 326 325 314 316 316 313 314 313 314 314 315 316 317 317 317 316 316 316 316 315 315 314 314 315 314 313 313 315 319 324 327 329 330 331
322 320 310 312 315 318 320 322 327 326 323 321 312 316 315 311 311 313 313 314 315 317 317 317 316 316 316 315 315 314 314 314 314 314 314 315 315 314 314 314 317 321 325 325
321 320 312 314 312 315 317 321 314 317 313 317 314 313 311 310 311 311 312 314 315 317 317 315 314 313 314 312 311 312 312 312 312 312 313 314 315 315 316 317 316 316 317 319
316 319 314 312 312 312 316 314 319 320 321 316 314 313 314 311 311 311 313 314 315 317 316 314 312 312 310 309 309 309 309 310 310 311 311 312 312 312 313 313 315 315 316 318
315 316 316 314 316 317 314 316 314 313 313 318 312 311 313 312 311 313 313 314 316 316 313 312 311 309 308 308 308 307 307 308 308 309 311 311 311 311 312 311 311 311 311 313
314 316 318 316 312 311 313 315 315 317 317 314 316 312 312 313 312 312 313 313 316 313 311 310 308 307 307 306 306 305 304 304 304 306 307 307 307 307 306 305 305 305 307 307
313 316 317 315 314 312 314 314 313 311 314 320 318 314 312 313 312 310 312 315 315 312 310 308 307 306 305 305 304 304 303 302 302 303 303 302 301 301 300 299 299 298 297 298
311 313 315 317 317 316 315 314 313 314 318 315 314 312 311 311 312 312 314 315 315 311 308 307 307 305 304 303 303 303 301 301 301 301 300 299 299 297 296 296 295 295 295 296
313 315 313 312 311 312 314 314 313 314 315 321 314 313 312 312 312 313 314 314 312 309 306 305 305 304 304 303 303 302 301 300 299 299 298 297 297 296 295 295 295 295 294 293
312 315 313 314 311 311 313 313 313 313 312 313 313 313 312 312 312 314 315 314 311 306 304 302 302 302 303 303 302 301 300 299 299 297 297 296 295 294 293 293 293 293 292 292
313 314 315 315 311 311 315 313 313 313 312 313 315 313 312 312 313 313 316 313 310 306 303 302 301 301 301 301 300 299 299 298 297 296 295 294 293 293 292 292 292 292 292 292
313 313 314 315 313 318 315 311 312 313 312 312 312 313 312 312 311 313 312 312 308 304 302 300 300 299 299 299 298 298 297 295 294 293 293 293 293 292 291 291 291 291 291 291
311 312 314 315 315 314 312 311 312 314 317 312 312 312 312 312 313 316 310 306 305 303 301 299 298 297 297 297 297 297 296 295 293 292 292 292 291 290 290 291 290 290 290 290
310 311 313 313 315 316 317 314 312 313 322 316 314 314 315 314 321 321 308 303 301 300 299 298 297 296 296 295 296 296 294 293 292 292 292 292 291 292 291 290 290 290 290 289
313 314 315 314 313 313 311 313 310 322 321 315 315 315 316 317 317 312 305 303 301 300 299 298 297 296 296 295 295 292 292 291 291 291 291 292 292 291 290 290 290 288 287 287
313 313 313 312 313 314 309 312 315 318 315 314 314 314 314 313 307 305 303 302 300 299 298 297 297 296 295 294 293 292 292 292 292 291 291 291 291 290 288 287 287 287 286 286
313 312 313 311 312 310 311 313 312 312 314 314 313 312 311 311 306 305 302 300 300 299 297 297 296 294 293 293 293 292 291 291 292 292 290 288 287 287 287 287 286 286 286 285
312 311 311 312 313 311 310 311 311 311 311 311 310 310 310 312 309 305 302 299 298 297 296 296 295 294 293 294 293 293 293 293 292 290 287 287 286 286 285 285 284 285 284 284
313 313 313 313 312 313 314 313 313 311 310 310 309 307 308 309 310 306 303 300 298 297 296 296 296 295 294 293 294 294 294 292 290 287 287 286 286 285 285 285 285 284 284 284
312 313 314 314 312 313 314 313 309 310 310 309 309 308 307 308 309 307 305 301 299 297 296 296 296 295 294 294 294 294 292 290 288 287 286 286 286 286 286 286 286 284 284 283

GFSCGP_925_thetae_066.txt.gz
Theta_e
320 320 321 321 321 319 318 318 318 317 319 319 319 320 318 316 317 316 315 314 315 315 315 316 315 315 315 315 317 318 319 320 320 322 326 341 341 340 338 337 340 341 339 337
320 321 318 319 320 321 319 318 317 317 319 319 318 318 317 316 316 316 315 314 314 315 314 313 312 312 312 312 314 315 317 318 318 319 320 326 340 340 338 335 335 338 340 340
318 318 318 318 318 320 318 317 316 318 317 316 317 316 317 316 316 313 312 311 312 313 313 312 313 314 314 315 314 312 313 313 315 317 319 319 325 338 336 336 335 335 336 337
318 319 319 321 321 320 321 316 317 318 318 317 315 313 316 316 313 312 311 310 312 313 313 313 313 314 314 315 315 314 312 311 312 314 315 316 317 324 336 336 338 337 336 336
316 319 320 318 318 320 318 318 318 318 318 319 317 317 317 313 313 312 312 314 314 315 313 313 314 315 316 316 315 314 314 313 312 311 312 313 315 316 318 324 332 333 332 332
313 312 316 317 318 321 319 319 318 319 319 321 319 317 315 313 313 313 313 314 315 315 315 314 315 316 316 316 316 315 314 314 314 314 313 312 313 314 316 319 327 328 329 331
314 312 310 314 315 317 321 318 322 322 323 321 314 317 316 313 313 313 312 312 313 315 315 315 314 316 316 316 315 315 314 314 314 314 315 315 313 312 313 315 318 323 327 329
320 317 313 311 317 319 319 320 320 320 322 317 312 315 312 311 312 311 312 313 314 315 314 315 314 314 314 313 312 312 313 313 312 312 313 314 315 316 316 316 316 316 316 317
321 319 311 313 313 317 318 320 314 316 313 314 312 312 310 309 311 310 311 312 314 315 314 313 312 313 311 310 309 310 310 310 311 311 312 312 313 313 313 315 316 316 317 317
316 319 314 313 314 313 318 317 318 315 315 317 312 313 312 309 310 310 311 312 314 315 313 311 311 310 309 309 308 308 308 308 309 310 311 312 312 312 312 312 311 311 312 313
315 317 317 314 317 317 316 317 316 312 313 316 312 309 310 309 310 309 311 313 314 314 311 310 309 308 308 307 307 306 305 305 305 307 308 308 308 307 307 306 306 306 308 308
314 315 317 316 312 312 313 315 315 315 316 311 311 310 309 307 309 311 311 313 314 312 310 308 307 307 306 306 305 304 303 302 303 304 303 302 302 302 302 301 301 301 301 302
313 315 313 315 313 312 313 314 314 312 313 317 316 309 310 308 308 309 311 313 314 311 309 307 306 305 304 304 304 303 301 301 301 301 301 300 299 298 297 297 298 299 299 298
312 313 315 315 316 314 313 314 313 310 310 314 312 310 310 310 310 309 311 313 313 311 308 306 304 304 303 303 303 302 301 300 300 299 298 297 297 296 296 296 296 296 295 295
313 314 313 312 311 313 314 314 314 310 312 309 314 312 309 309 310 310 312 313 311 309 306 305 304 302 303 303 302 301 300 299 298 297 297 296 295 295 295 295 295 294 294 293
312 312 309 308 311 311 311 313 313 313 312 311 312 312 310 310 310 311 312 313 311 308 305 302 302 302 303 302 301 301 299 299 298 297 296 295 294 293 293 293 292 292 291 292
312 311 309 312 311 311 310 311 312 312 311 311 312 311 311 311 312 312 315 313 311 306 303 302 300 300 301 300 300 299 297 297 296 295 294 293 293 292 292 291 290 291 291 291
312 313 311 310 311 311 314 311 311 312 312 311 311 311 312 311 311 312 312 312 308 304 302 300 299 299 299 299 299 298 296 294 294 293 292 292 292 291 290 290 291 290 291 290
310 312 312 311 313 312 312 310 311 312 314 311 310 310 310 312 312 313 309 306 304 301 300 299 298 298 298 298 298 297 295 293 293 292 291 291 290 290 291 291 291 289 288 289
310 310 311 313 313 316 317 311 312 312 320 314 310 310 313 313 317 317 305 302 300 300 299 298 297 297 296 296 297 296 294 293 292 291 291 291 291 291 290 290 290 289 289 288
312 312 312 312 315 311 313 312 310 320 320 314 314 315 315 314 313 308 303 302 300 299 299 298 297 296 295 296 295 293 292 292 292 292 292 292 292 292 292 290 288 287 287 287
311 312 312 312 314 310 311 310 314 315 313 313 313 313 314 310 306 305 304 302 300 298 298 297 296 296 295 294 293 292 292 292 291 291 291 292 291 291 287 287 287 286 286 285
311 310 310 309 310 310 309 311 311 311 313 312 311 310 311 309 306 304 303 301 300 299 297 297 296 294 293 293 292 292 292 292 292 292 291 289 287 287 287 286 286 286 285 284
311 309 310 310 310 309 308 309 311 312 311 310 309 309 309 311 306 305 302 300 299 299 297 297 294 293 293 293 293 293 292 292 292 290 287 286 286 286 286 285 285 284 284 284
311 310 310 310 309 311 313 310 309 309 309 309 307 307 307 308 308 304 301 299 298 298 297 296 294 294 294 294 293 292 293 293 291 288 287 286 286 285 285 284 284 284 283 284
309 311 311 312 311 310 311 309 308 310 309 308 308 308 306 307 307 305 302 300 298 297 297 296 295 294 293 293 293 294 294 292 288 287 287 286 286 286 286 285 285 285 283 282

GFSCGP_925_thetae_069.txt.gz
Theta_e
319 320 320 319 319 319 318 320 318 317 317 319 319 319 318 316 315 313 313 313 311 312 313 313 313 314 315 315 315 316 317 318 322 340 341 341 341 340 339 339 339 340 340 337
320 320 316 317 319 321 319 319 317 315 315 318 319 319 318 316 314 314 314 313 312 312 310 310 311 311 312 312 312 313 315 316 317 318 319 332 337 340 339 339 338 336 335 338
319 317 317 319 320 321 320 318 316 316 316 315 316 318 318 315 313 313 312 311 311 311 310 309 311 314 314 314 313 313 312 313 314 314 316 318 320 336 337 338 339 336 332 330
319 318 318 319 319 318 320 316 316 316 316 318 314 317 313 315 313 311 309 308 309 311 310 311 312 313 314 314 314 314 313 311 311 312 313 314 315 317 327 334 336 335 335 335
316 319 319 319 319 319 319 318 317 316 315 316 316 315 313 314 312 310 308 308 310 310 311 311 313 315 316 315 315 314 314 313 314 313 311 312 312 313 314 316 319 327 335 334
313 312 315 317 316 318 320 318 317 316 317 316 316 314 314 313 315 310 310 312 312 313 311 312 314 315 316 315 315 314 314 314 314 314 314 314 312 312 313 314 315 319 325 328
312 313 312 314 315 315 319 320 320 320 316 315 314 315 315 312 310 311 313 312 312 312 312 312 313 314 314 313 312 313 313 312 312 313 314 314 315 315 314 315 315 315 317 318
311 312 315 312 315 316 315 317 313 317 318 316 311 317 314 307 310 311 311 311 312 313 312 312 311 312 310 310 310 310 310 310 311 312 312 313 313 314 314 315 315 316 316 316
314 314 311 312 314 314 318 319 314 313 311 310 311 310 309 310 311 311 312 312 313 313 312 310 310 309 308 308 308 308 309 309 310 310 311 312 312 312 312 311 312 313 314 314
316 315 314 314 314 314 318 317 318 312 314 316 311 310 310 310 312 311 312 311 313 313 310 308 307 308 308 308 307 306 306 306 307 308 309 309 309 309 309 309 308 308 309 310
315 315 317 314 316 318 318 319 316 313 311 312 311 309 306 309 310 310 310 310 313 311 308 307 306 307 307 306 305 304 303 304 304 305 305 306 305 305 305 304 302 303 305 305
313 312 316 316 315 314 315 317 316 313 315 308 307 311 307 305 307 308 310 313 312 309 308 305 305 306 305 304 303 302 302 302 302 302 302 301 301 301 302 301 301 301 302 302
312 311 309 313 310 311 312 312 316 312 310 312 309 309 305 306 308 309 310 313 312 309 307 305 304 303 303 303 302 301 301 300 300 300 300 299 298 298 298 297 297 298 298 299
310 311 311 310 312 310 311 312 312 310 310 312 310 310 309 308 308 307 309 310 311 309 307 304 302 302 302 302 302 301 300 299 299 298 297 297 296 296 296 295 295 295 295 295
310 311 311 311 312 313 312 312 311 307 310 308 311 309 310 308 307 306 308 311 310 307 305 304 302 300 301 301 301 300 299 298 298 297 296 295 295 295 295 294 294 294 293 293
309 307 303 302 310 310 311 311 311 311 310 311 311 311 308 307 307 310 311 311 309 307 304 302 301 301 300 301 301 299 298 297 296 295 294 294 293 293 293 293 293 293 292 292
311 306 304 307 310 309 307 310 310 311 310 311 311 309 309 310 310 311 310 311 310 307 303 300 299 300 300 300 299 297 297 296 295 294 293 293 293 292 292 291 291 291 290 289
310 309 304 306 308 306 305 309 309 310 311 309 310 309 309 309 309 310 311 310 309 305 301 299 298 299 299 299 298 297 295 294 294 293 293 293 292 291 291 291 290 289 289 288
307 312 307 309 309 306 311 310 310 310 311 309 309 308 309 311 311 312 309 307 305 301 299 298 299 299 298 298 297 296 294 294 293 293 292 292 291 291 291 290 289 288 288 288
309 309 307 311 309 314 314 310 310 311 317 313 309 309 309 311 313 312 304 300 299 298 298 297 297 297 297 297 296 295 293 293 292 292 291 291 291 291 290 289 289 288 289 289
311 311 312 309 310 310 309 312 311 319 316 313 308 309 311 312 311 308 302 300 298 298 297 297 296 296 295 296 295 294 293 292 292 292 291 291 291 291 291 290 288 287 288 287
310 312 311 309 314 310 309 310 315 314 312 312 312 312 312 310 305 303 302 301 299 297 297 296 295 295 295 295 294 293 292 292 292 292 292 292 292 291 287 287 286 286 286 285
309 308 308 307 308 306 307 310 311 310 313 311 311 310 310 308 306 304 302 300 299 298 297 296 295 294 294 293 293 292 292 292 292 291 292 292 290 287 287 286 286 285 285 284
309 306 308 308 308 307 307 308 310 311 310 309 309 309 309 309 306 304 302 300 299 298 297 296 294 293 293 293 293 293 293 292 292 292 290 288 287 287 286 286 285 284 284 283
307 307 307 307 308 308 308 306 308 308 307 307 306 306 306 307 307 304 301 299 299 298 297 295 294 293 293 293 293 293 293 293 292 290 287 286 286 286 285 284 284 284 284 284
307 309 308 309 307 308 310 308 306 307 308 307 307 307 306 306 306 304 301 299 298 297 296 295 294 294 294 293 293 292 292 293 292 288 286 286 286 284 285 285 285 285 284 282

GFSCGP_925_thetae_072.txt.gz
Theta_e
319 320 319 317 317 316 319 320 320 319 317 319 320 319 318 317 315 313 313 312 312 311 309 312 312 313 314 314 315 316 317 329 337 340 340 340 339 340 339 341 340 340 339 336
320 320 316 317 318 319 319 319 319 315 315 317 318 319 317 317 315 313 313 312 312 311 309 308 310 312 313 313 313 313 313 315 316 319 336 339 340 339 339 338 338 338 338 338
320 318 317 318 319 320 320 317 316 316 315 315 316 317 316 315 313 313 311 312 310 309 308 309 311 313 313 313 313 313 313 312 312 313 314 317 326 335 337 334 334 335 338 337
318 316 317 318 320 319 322 316 317 315 316 319 314 318 311 315 316 314 311 308 308 308 308 309 311 313 313 313 313 313 312 312 311 311 312 313 314 322 327 331 331 334 335 335
316 318 317 320 319 317 319 319 316 315 315 315 315 315 312 311 314 314 309 306 306 307 309 310 312 314 315 315 314 314 313 313 314 313 311 311 312 312 313 314 315 318 319 330
314 312 314 316 315 317 318 316 315 315 317 317 314 314 313 311 312 312 307 306 307 308 309 310 314 315 314 314 314 314 313 313 313 314 314 314 312 311 312 312 313 315 319 325
314 314 313 312 314 314 318 315 320 323 323 318 312 314 315 311 310 311 308 309 310 309 309 310 311 313 312 312 312 312 312 311 312 312 313 314 314 314 314 314 315 315 316 318
315 319 316 313 314 314 318 318 313 319 318 314 311 316 315 308 306 309 311 311 311 310 310 311 310 310 309 309 310 310 310 310 310 311 312 312 312 312 313 313 313 314 314 314
314 315 312 312 315 314 317 319 315 309 308 307 310 309 307 310 310 311 312 312 312 312 311 308 309 308 308 308 308 308 308 308 309 310 311 311 311 311 310 309 310 310 311 311
312 316 313 314 314 314 316 316 317 306 311 314 311 309 312 311 311 312 313 313 313 312 309 308 306 307 307 307 306 306 306 306 307 308 308 308 307 307 306 306 306 305 306 306
314 311 314 315 316 317 317 318 315 312 309 311 311 309 304 308 311 313 313 313 313 310 308 306 305 306 306 305 304 303 303 304 304 304 303 303 303 303 303 303 302 302 303 303
312 310 315 316 315 314 316 317 314 313 316 306 305 307 304 304 308 310 310 312 312 309 307 305 304 305 304 303 303 302 301 302 301 301 301 301 300 300 300 300 300 300 301 300
311 307 315 315 311 313 316 316 317 312 306 303 307 308 306 305 306 308 310 312 311 308 307 304 302 302 302 302 301 301 300 300 300 300 300 299 298 298 297 297 297 297 297 297
310 310 308 311 309 309 309 311 315 317 314 310 308 309 308 308 308 309 310 312 311 309 307 304 302 301 302 302 301 300 299 299 299 298 298 297 296 296 296 295 295 295 295 295
308 310 310 309 311 310 310 311 310 309 313 314 314 309 309 308 308 308 309 309 310 308 306 304 302 300 301 300 300 299 299 298 297 297 296 295 295 295 295 295 294 293 293 293
307 305 302 301 309 309 309 310 310 310 309 310 309 311 309 307 306 306 305 309 310 307 304 303 301 300 300 300 300 299 298 297 296 296 294 294 294 294 293 293 292 292 292 293
310 305 302 305 309 307 308 309 310 310 309 310 311 310 308 307 307 309 308 309 309 306 303 301 300 300 300 300 299 298 297 296 295 294 293 293 293 292 292 291 291 291 291 291
308 305 302 304 305 305 307 308 308 309 309 308 309 308 307 308 307 308 308 309 309 308 303 299 298 300 300 300 298 297 296 295 295 294 293 293 292 291 291 291 290 290 290 290
306 308 306 307 307 306 308 309 309 309 309 308 309 307 307 308 309 310 308 308 308 304 301 299 299 300 299 298 297 296 295 294 294 293 293 292 292 291 291 290 289 289 288 287
307 309 307 309 309 312 308 310 307 309 313 309 308 307 307 309 310 308 307 303 301 300 299 298 299 298 298 297 296 295 294 294 293 293 292 292 292 291 291 290 289 288 287 287
312 312 312 310 313 307 306 310 310 316 313 313 308 307 306 310 307 307 302 300 299 298 297 297 297 297 297 296 295 294 294 293 293 292 292 292 291 291 290 289 288 287 288 287
311 313 313 312 313 311 308 309 313 312 311 311 309 309 308 309 305 302 302 299 298 297 296 296 296 295 295 295 295 293 293 293 293 292 292 292 291 290 290 288 287 286 286 285
309 306 309 308 308 305 306 308 307 309 311 311 311 310 311 308 305 303 302 299 298 297 296 295 295 294 294 294 294 293 293 293 292 292 292 292 292 289 287 287 286 286 285 284
306 304 307 306 307 305 306 307 309 310 311 309 309 308 309 309 306 304 301 300 299 298 296 295 294 293 293 293 293 293 293 292 292 292 292 291 291 288 286 286 285 285 284 283
305 305 306 306 306 306 306 305 308 308 307 307 306 307 307 308 307 305 302 300 298 298 297 295 294 293 293 293 293 293 293 292 291 291 292 290 287 287 286 286 285 284 284 284
306 307 307 308 306 306 306 307 305 306 306 306 306 306 305 306 305 305 302 300 298 298 296 295 294 294 294 294 293 293 293 293 293 292 290 287 286 286 285 284 284 284 284 284

GFSCGP_925_thetae_075.txt.gz
Theta_e
319 318 317 315 315 316 317 318 320 319 318 320 320 319 319 317 314 312 310 311 311 311 309 311 312 313 314 317 321 330 339 340 340 339 338 339 340 340 340 339 339 339 337 335
318 319 315 316 316 318 318 319 318 317 315 318 319 320 318 317 315 314 312 310 310 310 307 306 309 310 311 312 313 315 316 320 328 335 339 339 339 339 339 339 339 338 339 338
317 318 316 318 319 319 317 317 317 318 315 314 317 318 318 316 314 312 312 310 310 308 307 308 310 311 312 312 313 312 312 312 313 314 317 326 335 338 338 337 336 337 337 337
318 316 317 318 319 318 320 316 316 315 316 318 315 319 313 315 316 313 312 310 308 307 307 308 310 312 312 313 313 312 312 311 311 311 312 313 316 323 328 331 331 329 331 334
315 317 318 319 318 317 318 318 315 316 315 315 314 316 314 309 312 314 314 311 307 305 307 308 310 313 313 313 313 313 313 313 313 312 311 311 311 312 313 315 315 316 318 320
315 312 314 315 315 317 317 315 315 315 314 314 315 316 314 311 310 310 310 307 307 306 307 309 313 314 313 313 313 313 313 312 313 313 313 313 311 311 311 312 312 313 316 320
315 315 314 313 314 314 316 317 322 320 320 317 311 314 317 310 309 309 308 305 304 306 307 309 311 312 311 312 312 312 311 311 312 312 312 313 314 314 313 313 314 314 315 316
315 320 315 312 313 315 317 313 315 318 318 314 310 315 314 309 308 306 307 305 306 307 307 309 310 310 310 310 310 310 310 310 310 311 311 311 311 312 312 312 312 312 312 313
311 314 312 313 314 313 316 320 310 308 306 306 310 308 306 306 307 308 308 309 309 309 309 309 308 308 308 308 308 308 308 308 309 310 310 310 309 309 308 308 308 308 308 309
310 312 313 314 314 314 315 314 317 308 314 313 310 309 311 309 309 309 311 311 311 311 309 307 306 306 307 306 306 306 306 307 307 307 307 307 306 306 305 304 304 304 304 305
310 310 314 313 317 317 317 319 318 315 308 311 312 309 303 305 306 309 311 312 313 312 309 306 305 306 306 305 304 304 304 304 304 304 304 303 303 302 302 303 302 302 302 302
312 310 314 315 315 313 314 316 317 311 314 304 303 308 305 303 303 309 310 313 312 310 307 305 304 304 304 303 302 302 302 302 302 301 301 301 300 300 300 300 299 299 300 300
312 312 316 315 313 315 316 316 317 312 304 301 308 310 305 304 306 308 309 311 311 309 307 304 303 302 302 302 301 301 301 301 300 300 300 299 298 298 297 297 297 297 297 297
311 309 311 313 311 311 316 314 315 316 309 308 306 310 309 308 307 307 308 310 310 309 308 304 302 301 302 301 300 300 300 299 299 298 298 297 296 296 296 295 295 295 294 294
308 310 309 307 306 309 309 310 313 315 316 314 315 310 310 307 307 308 309 309 309 308 306 305 302 300 301 300 300 299 299 298 298 297 296 296 295 296 296 295 294 294 294 294
306 305 302 303 308 309 309 309 310 313 314 315 314 309 308 307 305 306 308 310 310 308 307 304 302 300 300 300 299 299 298 297 297 296 295 294 295 294 294 293 293 293 293 293
307 304 301 305 308 307 307 309 308 310 309 311 311 312 308 307 306 306 305 307 309 309 306 304 302 300 300 300 300 299 298 297 296 295 294 294 294 293 292 292 291 292 292 292
306 304 301 303 305 307 307 305 306 308 309 308 309 308 308 307 306 305 304 304 306 307 305 302 301 300 300 300 299 298 297 296 295 294 294 293 293 292 291 291 290 290 290 291
305 306 307 308 307 305 308 307 308 308 309 306 308 308 306 307 308 308 305 306 306 306 304 302 302 301 300 300 299 297 296 295 294 294 294 293 292 291 291 290 290 289 289 287
305 307 308 304 309 310 305 309 306 308 310 310 306 307 306 307 309 308 307 307 306 305 303 301 300 300 299 298 298 296 295 294 294 294 293 292 292 291 291 289 288 287 287 287
311 311 311 309 312 308 304 304 307 313 309 311 307 305 305 308 306 306 304 301 301 299 298 299 298 298 298 297 296 295 294 294 294 293 292 292 292 291 291 289 288 287 287 287
310 313 313 311 313 311 305 309 311 309 310 310 308 305 305 307 306 304 301 299 298 297 296 297 296 296 296 296 296 295 294 294 294 293 292 292 291 291 289 288 287 287 287 286
309 307 308 308 308 305 304 308 308 308 310 311 311 310 306 307 306 303 301 300 298 297 296 296 296 295 295 295 295 294 293 293 293 292 292 291 291 289 290 288 287 286 285 284
305 303 306 306 306 305 304 304 306 308 310 309 309 309 309 310 305 303 301 299 298 297 296 296 295 294 294 294 294 294 292 292 293 292 292 292 291 290 287 286 286 286 285 284
304 303 304 304 304 305 305 303 306 308 308 307 306 307 307 307 306 305 302 299 298 298 297 296 295 294 294 294 294 293 293 293 292 292 292 292 291 290 287 286 286 285 285 284
303 304 306 306 304 305 305 306 303 306 307 305 306 306 305 305 306 305 304 302 300 298 297 296 295 294 294 294 293 293 294 293 292 291 291 291 291 288 286 286 285 284 284 284

GFSCGP_925_thetae_078.txt.gz
Theta_e
314 317 317 314 315 314 316 317 319 318 318 319 322 319 321 320 320 320 320 318 311 311 311 311 311 316 321 322 330 336 338 339 339 339 338 338 337 337 337 335 337 338 338 336
316 318 313 315 315 317 317 317 318 317 316 318 319 320 318 317 317 317 317 315 309 310 308 307 309 310 313 317 318 320 327 333 337 338 338 338 338 338 339 339 338 338 338 338
316 317 315 317 317 318 316 316 316 317 314 315 317 318 318 317 315 314 313 311 309 308 307 305 308 309 311 312 313 314 314 314 315 317 321 328 335 337 338 338 337 337 336 337
316 316 317 317 319 316 319 315 315 316 316 320 315 321 315 317 317 314 315 313 310 308 305 305 308 310 311 312 312 312 312 312 312 312 312 313 314 321 326 329 330 330 328 330
315 318 316 317 318 316 317 317 315 315 314 315 314 316 315 310 312 315 315 312 309 307 305 306 308 310 312 312 312 312 312 312 312 312 311 311 311 311 313 315 318 316 316 319
315 312 314 315 315 316 316 315 314 313 312 318 313 315 316 313 311 310 310 311 312 306 304 306 310 312 312 311 312 312 312 312 313 313 313 312 310 310 310 311 312 312 313 316
316 315 314 312 314 315 315 317 315 315 320 318 310 313 316 311 309 308 309 307 306 305 305 308 310 310 310 311 311 311 311 311 312 312 312 313 313 313 313 313 313 313 314 315
318 320 316 313 313 316 315 315 313 316 316 313 309 315 314 309 308 307 307 306 304 304 305 308 309 310 310 310 310 310 310 310 310 311 311 311 311 311 311 311 311 311 311 312
312 315 312 314 314 313 316 315 309 311 304 305 310 308 306 305 305 305 305 305 305 305 306 308 308 308 308 308 309 309 309 309 309 309 309 309 309 308 308 307 307 307 307 307
310 311 313 313 314 313 315 312 316 312 315 314 310 308 310 308 307 306 308 307 306 307 308 307 305 306 307 307 307 307 307 308 307 307 306 306 305 305 304 304 304 304 304 304
308 309 314 314 316 318 318 318 314 311 308 310 312 310 303 306 305 303 306 308 308 308 308 306 304 305 306 305 305 305 305 305 305 305 304 304 303 303 302 302 302 302 302 302
310 308 310 314 314 312 315 316 316 318 314 305 302 311 304 303 302 301 306 310 309 309 307 304 303 304 303 303 303 303 303 303 302 302 302 301 301 300 300 300 300 300 300 300
310 309 312 316 313 314 316 315 315 313 308 303 315 313 304 304 304 306 308 310 310 308 306 303 302 302 302 302 302 302 301 301 301 300 300 300 299 299 298 298 297 297 297 297
313 310 309 310 310 310 316 313 314 316 317 315 310 310 308 307 307 307 308 309 308 308 306 303 302 302 302 301 301 300 300 300 300 299 299 298 297 297 296 296 296 294 294 294
311 311 309 309 307 310 311 313 314 316 316 317 312 310 310 310 307 306 306 308 309 307 306 304 303 301 301 300 300 300 300 299 298 298 297 296 296 296 296 295 295 294 294 293
306 310 304 304 307 308 310 308 309 313 314 315 314 314 311 308 305 305 306 309 310 308 307 304 302 301 300 300 300 299 299 298 297 297 296 295 295 295 294 294 293 293 293 293
306 306 304 307 307 306 306 308 308 308 310 312 315 313 309 308 307 306 306 308 310 309 307 305 303 301 301 301 301 299 299 298 297 296 295 294 294 294 293 292 292 292 292 292
305 304 303 304 305 308 305 305 306 307 308 309 309 310 308 308 306 305 303 306 307 308 307 305 303 302 301 301 300 299 298 297 296 295 294 294 294 293 292 292 291 291 291 291
304 305 310 312 308 305 307 305 306 307 308 305 307 308 307 305 307 306 304 302 304 304 305 305 304 303 301 301 300 299 296 296 295 294 294 294 293 292 291 291 290 290 291 289
305 306 311 306 311 310 303 309 305 306 309 308 306 305 305 305 308 308 306 304 304 305 305 303 302 301 301 299 299 298 296 295 295 294 294 294 293 292 291 290 290 289 288 287
310 311 312 311 312 307 304 303 305 312 308 310 308 306 304 305 305 304 304 304 303 301 300 301 300 300 300 299 298 296 295 295 295 294 293 293 292 291 291 290 288 287 287 286
310 310 312 311 313 311 303 307 309 307 308 310 309 305 304 305 305 305 302 300 298 297 297 298 298 298 298 298 297 296 295 295 294 294 293 292 292 291 290 289 288 286 286 287
309 307 308 307 307 304 303 307 306 305 308 310 310 308 304 305 306 303 301 298 297 297 297 297 297 296 296 296 297 295 295 294 293 293 292 292 291 291 290 289 287 286 286 285
304 302 305 307 305 304 302 302 303 307 308 309 309 309 307 307 304 303 300 298 298 297 296 296 295 294 294 295 295 296 295 293 293 292 292 292 291 291 290 289 287 286 285 284
303 302 303 303 303 303 304 302 303 304 307 307 306 307 308 307 306 304 302 299 298 297 297 296 295 295 294 294 294 294 294 293 292 292 292 291 291 290 290 288 286 286 286 285
302 303 304 305 303 304 304 305 302 305 306 305 305 305 305 305 306 305 304 302 300 298 297 296 296 295 295 294 294 294 294 293 292 292 292 292 291 291 289 287 286 285 285 284

GFSCGP_925_thetae_081.txt.gz
Theta_e
315 317 319 315 315 314 317 319 320 318 318 323 324 322 321 322 320 321 321 320 320 319 314 312 310 319 330 334 338 339 339 339 338 339 339 339 339 339 339 339 339 339 334 336
314 318 313 314 316 317 317 318 319 317 316 321 321 323 319 322 321 321 321 320 320 315 311 310 309 310 315 319 325 334 337 338 339 339 338 338 338 338 338 337 337 335 336 337
314 316 314 316 317 317 316 317 316 318 315 316 319 321 319 318 319 320 320 319 319 315 312 310 308 309 310 312 315 320 326 332 336 337 337 337 337 337 337 337 337 337 337 336
316 315 316 316 316 315 319 315 315 316 318 323 314 325 317 319 319 317 318 318 318 313 309 308 307 309 310 311 311 312 312 313 314 315 316 319 322 324 327 329 331 332 330 329
316 317 317 317 317 314 316 315 314 313 314 316 315 319 316 313 319 318 316 316 316 313 311 309 308 309 310 311 311 311 311 311 311 311 311 311 311 311 312 314 316 317 317 318
315 312 314 315 315 315 314 314 313 312 313 319 315 317 317 315 313 312 315 317 316 314 311 309 308 309 311 311 311 312 312 312 312 312 312 311 310 310 310 311 311 312 312 314
316 316 313 312 315 315 316 315 319 317 319 318 310 314 317 314 311 310 311 310 311 312 309 308 310 310 310 310 311 311 312 312 312 312 312 312 312 312 312 312 312 312 312 313
318 318 316 313 313 316 316 316 315 317 318 315 309 316 315 310 308 309 308 307 306 306 306 308 310 310 309 310 310 310 311 311 311 311 311 311 312 312 311 311 311 311 311 311
316 316 313 314 313 313 315 318 310 312 305 310 311 309 307 306 307 306 306 306 306 306 306 309 310 309 308 308 309 310 310 310 310 310 310 310 309 309 308 308 307 307 307 307
311 313 314 314 314 313 315 311 316 315 316 317 311 309 312 309 308 307 306 306 307 306 307 309 308 306 307 308 308 308 308 308 308 307 307 307 307 306 306 305 305 304 304 304
308 309 314 314 316 318 317 317 314 312 310 315 313 311 305 307 306 305 304 303 307 307 308 308 306 306 306 306 306 306 307 306 306 306 305 305 304 303 303 303 302 302 302 302
309 309 314 315 313 313 315 315 316 318 314 306 306 314 305 303 303 302 303 306 309 308 308 307 305 304 303 304 304 305 304 304 304 303 303 302 301 301 301 300 300 300 300 300
310 311 314 314 313 313 316 315 316 311 310 305 315 313 303 304 305 305 307 308 310 308 307 306 304 303 302 302 302 303 303 302 302 301 301 300 300 299 299 298 298 298 298 297
312 311 310 312 309 309 314 314 314 315 316 313 313 312 311 310 308 306 307 309 309 309 308 306 304 303 302 302 302 301 301 301 301 300 299 299 298 298 297 297 297 296 295 295
314 315 311 310 307 311 311 312 312 314 314 315 312 312 311 310 309 306 305 307 309 309 307 306 305 303 301 301 301 301 301 300 299 299 298 298 297 296 296 296 296 295 295 294
307 313 307 307 308 307 309 309 311 312 312 313 313 314 311 310 306 308 307 305 309 309 309 307 305 303 302 301 301 300 300 299 299 298 297 296 296 296 295 295 294 294 294 293
307 308 309 313 307 306 307 308 310 311 310 312 314 313 311 311 310 311 311 307 307 310 309 307 305 304 302 302 302 300 299 299 298 297 296 295 295 295 294 294 293 293 293 293
306 306 308 312 306 310 306 304 306 308 309 309 309 310 309 310 309 306 304 305 306 308 308 307 305 303 304 304 302 301 299 298 297 296 295 295 294 294 293 293 292 292 292 292
306 306 310 312 308 305 307 304 304 306 306 305 307 308 307 306 305 306 303 303 305 306 307 307 306 305 304 303 302 300 298 297 296 295 295 294 294 294 292 292 292 292 291 290
304 309 313 307 309 310 304 307 304 305 310 306 304 305 304 303 307 307 304 303 302 302 305 306 306 304 303 301 300 299 297 296 295 295 295 294 294 293 292 291 291 291 290 289
309 311 313 310 310 308 303 304 304 312 308 308 309 308 306 304 305 303 304 305 303 302 302 303 302 302 301 300 299 297 296 296 296 295 295 294 293 293 292 291 290 290 288 287
311 311 311 311 312 312 303 304 308 306 307 309 309 307 304 302 304 304 302 301 299 298 298 299 299 299 299 299 299 297 296 297 296 295 294 294 293 292 291 290 289 289 287 286
310 306 307 307 308 304 302 306 304 304 306 309 309 308 304 304 305 304 301 299 298 297 297 298 298 297 297 298 298 297 297 296 295 294 293 293 292 291 291 290 289 286 286 286
305 301 305 307 305 304 303 302 302 303 306 308 309 309 304 305 304 303 300 298 297 297 296 297 297 296 296 297 297 298 296 295 294 293 293 292 291 291 290 290 289 287 286 286
303 302 303 303 303 302 303 301 301 301 303 307 306 307 307 306 305 303 301 299 298 298 297 297 297 296 296 296 296 296 295 294 293 293 292 292 291 290 290 290 289 287 286 286
300 302 304 305 303 303 304 304 302 302 305 305 304 305 305 305 305 304 303 301 299 298 298 296 296 296 296 296 295 295 294 294 292 292 292 291 291 291 291 290 289 287 286 285

GFSCGP_925_thetae_084.txt.gz
Theta_e
312 319 319 317 319 318 320 321 322 321 322 323 323 323 322 321 322 322 323 324 324 324 322 319 315 314 326 332 338 338 340 340 341 341 341 341 341 341 341 340 340 339 339 337
313 318 316 317 318 318 319 319 319 319 320 323 323 324 322 321 322 321 322 323 324 323 323 319 314 313 317 326 328 334 337 339 339 340 340 341 341 340 340 340 339 338 338 338
315 316 315 317 318 319 318 318 319 320 319 322 321 322 322 321 321 321 321 322 324 324 323 321 317 313 313 317 319 323 329 335 337 337 336 336 337 337 338 338 338 337 336 336
316 315 316 317 318 318 320 318 319 319 321 322 320 323 321 321 321 321 321 321 321 323 322 320 316 313 312 314 314 314 318 324 329 332 328 333 337 338 336 334 331 331 334 333
317 316 316 318 318 317 318 317 319 319 321 320 320 322 320 318 320 321 320 320 320 321 321 316 315 313 313 313 313 313 312 313 314 315 314 316 316 316 315 315 316 318 320 321
315 314 315 315 317 316 316 317 318 317 318 321 317 320 319 318 317 318 319 320 319 318 320 317 316 314 313 313 312 311 313 313 312 311 311 311 312 312 312 313 313 314 314 313
316 317 316 316 318 317 318 319 321 323 323 319 315 318 316 316 317 316 316 316 318 318 319 318 316 314 314 313 313 312 313 313 313 313 313 313 313 313 314 313 313 313 313 312
320 319 317 316 317 319 317 317 317 317 317 316 314 317 315 315 315 315 315 314 311 312 314 315 315 314 314 313 313 312 313 312 312 312 312 312 312 312 311 311 310 309 309 309
319 317 314 315 314 316 319 321 315 318 312 317 316 315 315 315 314 313 313 312 313 313 311 310 311 312 314 313 312 312 312 311 311 310 310 310 310 309 308 308 307 306 307 306
315 317 315 315 314 315 317 315 319 320 321 319 316 315 314 313 313 312 312 311 310 311 310 309 311 312 312 311 311 311 311 311 309 307 307 306 306 307 306 306 305 305 305 305
313 315 316 316 318 320 317 317 317 316 317 319 315 314 313 312 312 311 312 310 310 311 311 310 311 311 310 310 309 310 309 308 307 306 305 305 304 305 304 303 303 302 303 303
311 313 317 316 315 315 316 316 316 318 317 316 316 315 310 310 309 309 311 312 313 312 311 311 311 310 309 308 308 308 308 307 306 304 303 302 301 301 301 301 301 301 300 301
312 317 318 316 315 314 317 316 316 316 315 319 318 316 308 309 310 310 313 314 314 312 312 312 312 310 309 308 307 306 306 305 303 302 302 301 300 300 299 298 298 297 297 296
312 315 316 316 314 314 316 315 316 318 321 316 317 314 313 312 313 312 312 311 314 314 312 313 312 311 309 307 306 305 305 303 302 301 301 301 300 299 299 298 297 297 296 295
313 317 315 313 311 313 314 314 315 317 317 317 315 314 313 312 313 312 312 310 311 314 313 313 313 312 309 307 306 304 304 302 301 300 300 300 299 299 298 297 297 296 295 295
313 316 314 315 314 313 313 313 314 314 315 315 314 315 313 312 312 312 312 311 311 312 314 313 313 312 310 308 306 304 303 302 300 300 300 299 298 298 297 296 295 295 294 294
313 313 314 317 312 312 315 312 312 313 313 314 317 315 313 313 312 313 313 312 313 313 312 313 313 312 310 309 307 304 303 301 300 300 299 298 298 297 296 295 294 294 293 293
312 313 314 314 310 315 310 306 309 311 311 312 312 312 312 312 311 311 311 311 311 311 310 312 313 312 311 309 306 304 302 300 299 299 298 297 297 296 295 294 293 293 293 293
310 312 315 315 314 311 311 307 307 309 310 309 310 310 310 309 308 309 309 309 311 311 310 311 312 312 310 307 305 303 300 300 299 298 298 297 296 296 294 293 292 292 292 292
307 311 314 313 314 313 308 309 306 307 312 309 308 309 311 309 313 314 308 308 308 308 308 309 310 309 308 306 304 302 300 299 298 298 297 296 296 295 293 293 292 292 291 290
311 314 315 313 314 312 309 308 307 310 312 311 312 313 312 310 310 308 307 308 306 306 306 307 306 307 306 303 302 301 300 299 298 297 296 296 295 294 294 293 292 291 290 289
313 314 313 313 314 313 306 307 310 310 310 311 313 312 311 309 307 307 306 306 305 304 302 303 304 303 301 300 300 300 299 298 297 296 295 295 294 293 293 292 291 290 289 288
313 311 312 312 311 308 306 309 308 309 310 311 313 312 308 308 308 307 306 305 304 303 302 302 302 300 299 299 300 299 298 297 296 295 295 294 293 292 292 291 290 288 288 288
308 304 309 309 309 309 307 306 307 308 309 310 311 311 306 307 308 307 305 304 303 302 302 300 300 300 299 298 298 299 297 296 296 296 295 294 292 292 291 290 289 289 288 288
303 303 307 308 307 307 307 307 307 306 305 307 309 310 311 310 309 307 306 304 302 301 300 299 300 300 299 297 297 296 296 295 296 295 294 293 291 291 290 290 289 289 288 287
298 301 307 309 305 305 307 306 305 306 306 306 309 308 307 308 309 307 307 304 302 301 298 298 298 297 297 297 296 296 295 295 295 294 294 292 291 291 290 289 289 289 288 287

GFSCGP_925_thetae_087.txt.gz
Theta_e
312 319 319 318 318 318 317 319 318 318 321 324 324 323 323 322 323 323 323 323 323 324 325 322 319 316 327 339 341 342 342 342 341 342 342 341 342 341 341 341 341 341 340 340
316 320 317 316 317 319 320 319 320 319 320 321 321 321 320 321 322 322 323 323 323 324 325 323 319 316 317 330 337 341 341 340 341 341 342 342 341 341 341 340 342 342 341 340
317 318 316 317 318 319 319 319 321 320 320 320 321 322 321 321 321 321 321 321 322 323 324 325 321 318 316 322 329 333 338 340 341 341 341 340 340 340 341 341 340 340 339 339
316 316 317 317 317 317 319 318 317 319 321 322 320 320 318 319 321 321 321 321 321 323 325 325 322 319 315 316 321 322 329 335 338 338 337 336 337 339 339 338 338 335 331 331
318 317 317 318 316 316 318 318 319 319 320 321 321 322 319 319 321 321 321 321 320 322 324 325 322 319 316 315 317 317 318 321 321 323 327 331 333 332 330 327 323 322 322 323
316 316 315 316 317 317 318 318 318 319 320 325 320 321 319 319 319 319 319 320 320 320 321 323 320 318 316 316 316 315 315 316 316 316 317 317 317 316 315 315 315 316 316 316
316 318 316 316 318 317 317 318 322 322 323 321 316 317 318 317 317 317 317 318 319 320 320 321 320 318 317 317 316 315 315 315 315 315 315 314 315 315 315 315 315 315 315 315
319 321 317 316 317 316 316 318 319 319 318 317 316 316 315 315 315 315 316 316 315 316 319 320 321 319 316 316 315 314 315 315 315 315 315 315 315 315 315 314 313 312 312 312
322 322 316 317 316 317 318 321 316 319 316 317 316 315 314 314 315 315 315 315 316 315 314 316 316 314 316 316 315 314 315 315 314 314 313 312 312 311 310 309 309 308 307 306
319 321 317 316 316 317 319 316 319 320 319 316 313 315 314 314 314 314 314 313 313 312 314 314 312 313 314 315 315 314 314 314 313 312 311 310 308 307 307 306 306 305 304 304
314 317 318 317 318 316 318 318 318 317 314 317 315 315 314 314 314 313 314 314 314 313 313 313 312 313 314 314 314 313 313 313 311 310 308 307 306 305 305 304 304 303 303 302
314 317 322 317 316 316 316 315 315 319 317 316 317 317 312 312 312 312 315 315 315 314 313 313 313 313 312 312 312 313 312 310 310 308 307 307 305 304 304 303 302 301 301 301
313 317 318 319 318 316 319 319 318 316 316 323 319 317 312 312 312 312 315 313 314 315 314 313 313 312 312 311 311 311 310 310 308 306 306 305 304 304 303 302 301 300 299 299
315 316 316 318 317 315 317 316 316 319 323 318 319 315 314 313 312 312 313 314 313 314 314 314 314 312 312 312 311 310 308 307 305 305 305 304 304 303 302 301 300 299 298 298
312 317 317 315 312 314 316 316 315 318 318 319 317 316 314 314 313 313 314 313 312 312 314 314 314 314 313 312 310 309 308 306 304 304 304 303 303 302 302 301 300 298 298 297
314 317 315 317 316 314 315 314 315 315 315 316 316 317 314 313 313 313 313 313 313 312 312 314 314 314 313 312 310 309 307 305 304 304 303 303 302 301 300 300 298 297 296 296
310 313 316 319 316 315 317 315 315 315 314 315 318 315 314 313 313 313 313 313 312 312 313 313 314 314 314 312 311 308 307 305 304 304 303 302 301 300 299 298 297 296 295 295
308 309 315 317 314 318 312 310 313 314 313 313 313 312 312 312 312 311 311 311 311 312 312 313 313 314 314 313 311 309 307 305 303 303 303 301 301 300 298 297 296 294 294 294
306 309 316 316 314 311 311 308 309 310 310 310 311 311 310 310 310 311 311 311 311 311 311 312 311 313 314 313 311 309 306 305 303 303 302 301 300 299 297 295 294 294 293 293
307 307 314 317 317 312 310 308 307 309 311 311 310 311 313 313 315 315 310 309 309 309 310 310 311 312 313 313 310 307 305 304 303 302 301 300 299 298 296 294 294 293 293 292
311 311 313 315 314 312 310 309 309 310 313 313 313 314 315 314 313 311 309 308 308 307 309 308 311 313 313 310 308 306 305 304 303 301 299 299 298 297 295 294 293 293 292 290
313 314 316 315 315 313 309 309 310 311 312 311 313 314 314 311 310 308 309 308 307 307 305 307 309 309 308 306 306 305 304 302 301 299 298 298 297 295 294 293 292 291 291 290
311 311 314 312 311 309 308 310 309 309 310 311 314 314 313 310 310 310 309 307 307 306 305 305 306 303 303 303 304 304 302 300 299 298 298 297 296 294 292 292 291 290 290 289
308 306 310 310 309 309 309 308 308 309 310 311 311 313 311 310 310 310 308 307 306 305 305 304 304 304 302 302 302 303 301 299 298 298 297 296 295 293 291 292 291 290 289 289
302 304 308 309 309 309 309 308 308 308 308 307 308 311 312 313 312 310 309 307 305 304 303 303 304 303 302 301 301 300 299 299 298 298 297 296 294 293 291 291 291 290 290 290
300 301 302 305 307 308 308 307 307 307 307 307 308 310 310 310 311 309 309 307 304 304 302 301 300 301 300 299 299 298 298 298 298 298 296 295 293 292 291 290 290 289 290 290

GFSCGP_925_thetae_090.txt.gz
Theta_e
313 319 320 317 318 316 318 318 318 320 324 325 323 324 322 320 322 322 320 320 319 320 322 323 319 320 334 339 341 341 340 341 341 341 341 340 339 340 339 339 339 339 339 339
316 320 316 316 317 318 319 316 317 320 322 324 322 322 320 319 320 321 320 319 319 319 320 320 318 317 328 338 340 341 341 341 341 339 340 339 338 338 339 339 340 340 340 340
316 319 317 318 318 319 320 319 319 321 320 319 319 319 318 318 317 318 319 318 319 318 319 319 316 316 318 329 336 340 341 341 338 341 341 339 338 337 339 338 338 338 340 339
317 316 317 318 319 318 320 318 320 321 320 321 318 320 318 318 318 317 317 317 317 317 318 319 318 316 316 319 331 333 337 340 340 340 339 336 335 336 336 337 337 338 338 338
318 317 317 319 317 316 319 318 320 320 319 318 321 321 316 317 318 318 317 316 317 316 317 319 318 317 316 317 324 326 329 335 338 338 338 336 336 335 336 337 336 335 330 328
315 315 317 316 317 316 318 319 318 318 318 321 320 319 318 315 316 318 316 317 317 316 317 319 320 317 316 315 317 319 321 324 327 328 333 331 333 325 324 322 320 319 317 317
315 317 316 317 319 318 318 319 321 321 322 318 315 318 317 315 315 316 315 314 315 315 316 318 317 316 316 316 316 316 316 317 318 318 320 320 318 316 315 315 315 316 315 315
313 318 317 316 318 318 317 318 321 319 318 315 314 316 313 313 313 313 314 314 314 312 313 316 316 317 316 317 316 315 315 315 316 315 315 315 315 315 315 315 314 314 314 314
317 316 315 316 316 316 316 316 316 320 316 314 316 314 312 311 313 314 315 315 314 313 312 317 315 318 317 317 316 315 315 315 315 315 315 315 314 314 313 313 312 311 310 309
318 319 316 316 316 317 319 317 319 316 315 316 311 310 313 313 312 313 312 312 312 312 312 311 311 315 316 316 316 314 315 315 315 314 313 312 311 311 310 309 308 307 307 307
316 318 318 316 317 318 319 321 320 317 314 312 314 313 309 311 311 311 311 313 312 312 311 310 309 312 314 316 315 315 315 314 313 312 310 310 310 309 307 307 307 307 306 305
313 316 317 318 316 315 316 317 319 321 318 314 312 314 312 309 309 311 313 314 313 313 312 310 310 313 313 314 314 314 314 313 311 310 310 308 307 306 306 305 305 304 303 303
313 314 319 320 317 317 318 316 316 316 316 315 315 313 310 310 311 311 313 312 312 312 312 311 310 311 312 312 313 313 312 311 310 308 308 307 305 305 304 303 303 302 301 301
313 315 313 315 317 316 317 317 317 317 320 316 317 316 313 311 311 310 311 310 310 310 312 311 310 309 311 311 312 312 311 310 308 307 306 305 304 304 303 302 301 300 300 299
310 313 315 314 314 315 316 316 317 318 318 317 316 316 314 313 312 311 309 309 311 310 311 311 310 308 311 311 311 310 309 308 307 306 305 304 304 303 302 301 300 300 299 298
307 314 311 316 316 316 316 315 315 315 316 317 316 316 313 313 312 312 310 310 310 311 310 309 311 310 310 311 310 309 308 306 305 304 304 304 303 302 302 301 300 299 298 297
306 309 312 317 315 313 316 314 314 314 314 315 317 314 312 312 312 311 310 310 310 310 309 309 309 311 312 311 310 309 307 306 304 304 304 303 302 301 301 300 299 297 296 296
305 305 308 317 315 316 313 309 312 314 313 313 313 312 312 311 310 309 308 308 308 308 309 309 309 312 313 313 311 309 307 305 304 304 303 303 302 301 300 298 297 296 296 296
304 305 309 316 315 312 309 308 311 312 311 310 310 310 309 309 309 309 308 307 307 306 306 308 311 311 313 313 311 309 307 305 304 304 303 302 301 300 299 297 296 295 295 295
305 304 310 314 315 316 310 307 307 308 309 310 308 310 313 311 312 311 309 307 306 307 307 308 310 311 313 313 311 309 306 305 304 303 303 301 301 300 298 296 295 294 294 294
310 309 307 312 314 312 308 307 308 310 313 313 313 314 314 313 310 308 307 307 307 306 305 307 310 311 312 313 310 308 306 304 303 303 302 301 300 299 298 296 294 293 293 293
310 310 312 311 312 314 308 308 309 310 310 311 312 314 313 311 309 308 308 307 306 305 305 307 309 308 311 310 309 307 305 304 303 302 301 300 299 298 297 295 293 293 292 291
309 310 311 314 313 308 307 308 307 307 307 310 312 313 312 310 309 309 307 305 304 304 304 305 304 304 305 306 306 305 303 303 302 300 299 298 297 296 295 293 292 292 291 290
307 305 308 308 309 308 307 306 305 305 307 308 309 310 311 309 310 309 306 304 303 304 303 304 303 302 302 303 304 304 302 301 300 299 298 297 296 295 293 292 292 292 290 289
300 300 304 305 304 307 307 304 304 305 305 306 307 307 311 312 310 309 306 304 303 302 303 303 303 302 302 302 302 301 300 299 298 298 297 296 296 294 293 292 292 292 292 291
298 299 299 300 300 303 304 300 304 306 307 305 306 308 309 310 308 307 305 304 303 302 301 301 301 301 300 300 300 299 299 299 299 298 297 296 295 294 293 291 291 291 291 291

GFSCGP_925_thetae_093.txt.gz
Theta_e
311 314 316 316 317 317 318 318 319 321 323 322 325 325 323 320 321 319 318 319 318 317 321 323 325 338 337 341 341 341 340 340 339 339 339 341 340 340 340 339 338 338 337 335
313 316 316 316 315 316 318 317 318 321 324 324 324 324 323 321 320 319 319 318 317 316 317 319 321 324 333 337 340 342 342 341 341 340 339 340 340 340 340 339 337 338 338 338
314 317 317 317 317 318 318 317 317 322 322 322 322 321 318 319 316 318 318 317 316 316 315 316 314 318 328 337 340 341 340 340 341 341 341 340 339 339 337 336 335 335 335 337
315 316 316 317 319 317 320 319 319 320 321 321 316 318 314 316 315 315 315 316 316 315 315 316 312 314 318 335 339 340 340 340 340 340 339 338 337 337 336 335 335 334 334 329
314 316 317 318 317 315 318 318 319 320 318 317 319 318 316 313 314 315 312 312 313 314 314 317 314 315 316 326 332 337 339 340 340 339 339 337 336 335 334 335 335 334 332 333
315 314 315 315 316 316 316 318 317 316 316 315 317 319 316 313 314 315 313 313 313 314 314 313 318 317 314 316 325 331 331 335 338 338 338 337 335 334 334 335 334 332 330 327
310 313 315 315 317 317 317 318 319 314 313 314 314 316 317 313 311 312 312 312 312 312 313 314 312 313 314 317 320 322 324 328 331 329 333 333 334 332 333 330 326 321 318 316
306 305 315 315 316 316 317 316 315 318 317 313 312 315 312 310 310 312 311 310 309 309 310 314 314 313 315 315 316 316 317 319 320 320 321 319 324 323 320 318 316 315 315 315
311 312 315 315 315 315 314 315 314 316 315 309 312 312 310 310 312 311 312 312 311 309 310 312 313 313 315 315 315 315 315 315 315 315 315 315 315 316 315 314 314 314 314 313
315 314 315 315 315 316 317 315 316 316 321 317 310 312 312 311 309 311 309 308 309 308 309 310 311 313 315 315 316 315 315 315 315 315 315 315 314 314 313 313 312 311 310 309
315 316 317 316 316 317 318 318 318 315 313 311 312 310 308 308 309 310 311 311 311 310 307 307 307 312 315 315 315 315 314 315 315 314 313 312 311 310 309 309 309 308 307 307
314 316 318 320 316 314 316 317 318 312 316 311 309 312 308 307 309 311 312 312 311 311 309 306 308 311 312 314 315 314 314 314 313 313 314 312 309 309 308 307 305 306 306 305
313 315 316 318 316 315 317 317 317 317 313 307 311 311 307 307 308 310 312 312 310 310 310 308 308 309 311 312 313 313 314 313 312 311 310 310 307 305 306 308 309 306 303 302
311 310 314 316 316 316 318 316 316 317 318 313 310 314 310 309 309 309 309 308 308 309 309 308 307 307 310 312 312 313 313 312 312 311 310 309 307 305 305 304 304 302 301 301
309 311 314 313 313 315 316 316 317 317 316 314 314 314 314 312 311 309 308 308 308 308 309 308 308 306 308 310 311 311 311 310 309 308 307 306 305 304 304 303 302 301 300 300
305 311 310 311 313 315 314 316 316 317 317 316 315 315 312 311 310 310 309 308 308 308 307 309 309 307 307 309 310 310 309 309 308 307 306 305 304 303 303 302 301 300 300 299
303 306 302 312 315 313 315 313 315 314 315 316 317 315 313 313 311 310 309 309 308 308 307 307 307 308 308 309 310 310 309 308 307 306 305 304 303 303 302 301 300 299 299 298
301 301 301 307 314 314 311 310 312 313 312 313 314 312 312 312 310 309 307 307 307 306 306 306 305 308 310 310 310 310 309 307 306 305 304 304 303 302 301 300 299 298 297 296
300 301 302 309 315 312 309 308 312 312 312 311 310 310 310 308 308 308 307 307 307 306 305 305 306 308 310 310 309 309 307 306 305 304 304 303 303 302 300 299 298 297 296 296
302 302 305 308 313 314 309 307 306 306 308 310 307 308 308 309 308 307 308 306 305 305 306 305 306 308 308 311 310 307 305 305 304 304 303 303 302 301 300 299 298 296 295 296
307 307 306 308 312 310 309 306 308 308 307 312 312 312 313 311 308 307 306 306 305 305 304 305 306 309 310 310 308 306 304 304 305 304 303 302 301 301 300 298 297 295 293 294
308 308 309 309 309 310 306 307 308 308 308 310 311 312 312 310 308 307 307 305 303 303 303 305 305 305 308 309 308 305 304 305 305 304 303 301 301 300 299 297 295 294 293 293
305 308 310 313 311 309 307 306 304 303 305 308 312 311 311 309 308 308 306 304 303 303 303 303 303 304 305 306 307 305 305 304 303 303 302 300 299 299 298 296 295 293 292 291
303 303 305 305 307 307 305 302 301 303 304 303 307 309 310 309 309 306 304 303 302 302 303 303 302 302 302 305 305 306 304 303 303 301 300 299 298 297 296 295 294 292 292 291
297 298 299 300 299 302 303 300 300 303 304 305 304 305 310 310 308 305 305 303 301 301 301 302 302 301 301 302 303 303 302 302 301 300 299 298 297 296 295 294 293 292 293 292
295 297 297 297 297 298 299 298 301 301 303 304 304 306 307 308 306 305 303 302 302 301 300 300 300 300 300 300 301 301 301 300 300 298 297 297 296 295 295 293 292 292 292 292

GFSCGP_925_thetae_096.txt.gz
Theta_e
311 311 315 316 316 316 317 322 323 320 321 324 324 324 325 323 322 319 317 316 315 318 322 324 332 339 340 341 340 341 342 342 342 341 341 342 342 341 339 338 338 338 337 337
310 312 316 316 316 316 317 318 317 321 321 322 322 320 321 323 321 318 316 316 316 315 315 320 322 331 338 340 340 341 339 339 338 339 339 340 341 341 339 339 338 338 337 337
310 315 316 316 317 317 316 315 317 323 323 322 321 322 322 320 320 316 317 316 316 316 314 316 318 320 332 337 339 340 340 340 339 339 339 339 339 340 340 338 339 337 336 336
314 314 315 316 318 316 319 317 317 322 324 326 321 322 314 315 317 317 315 315 315 314 313 314 317 316 320 331 338 339 340 341 340 340 339 339 339 338 339 338 336 335 335 335
312 315 316 317 317 315 317 317 319 320 318 317 318 319 315 313 314 315 311 312 315 314 312 314 315 317 320 323 334 337 339 341 340 340 340 339 339 338 337 338 336 335 334 334
313 313 314 315 315 316 315 317 316 319 318 321 316 319 317 314 313 313 311 311 313 315 312 313 317 317 317 318 323 335 337 338 339 339 339 339 337 337 336 335 335 335 334 332
308 312 314 315 316 315 316 320 322 322 322 322 313 318 317 313 311 310 310 310 309 310 312 310 313 313 314 315 316 325 331 335 337 338 338 338 335 335 335 334 334 331 330 328
305 305 313 314 314 315 316 318 317 318 318 315 313 317 314 310 311 309 309 309 309 309 308 309 311 314 315 315 316 323 326 329 330 329 331 332 334 334 331 332 331 328 325 322
310 310 312 314 315 313 315 316 314 314 312 310 311 311 309 310 310 310 310 309 309 309 310 308 311 313 314 315 319 322 320 321 322 321 320 322 325 325 325 324 324 324 322 322
312 317 313 314 315 316 314 314 319 316 320 318 310 312 312 310 309 310 309 308 308 307 308 311 310 311 312 314 315 315 315 316 316 315 315 316 317 317 318 317 316 315 314 313
311 314 314 315 316 315 317 316 316 314 313 314 311 309 304 307 307 309 308 308 308 308 306 306 308 312 313 314 314 314 314 315 315 315 315 314 314 314 313 312 312 312 310 309
312 316 317 315 316 314 315 316 316 316 314 309 308 311 308 308 309 310 311 310 310 309 307 305 307 310 313 314 314 315 314 314 315 314 314 314 312 311 311 310 308 308 309 309
313 314 316 316 315 315 317 316 316 313 312 308 311 310 306 306 310 310 310 309 309 309 308 307 307 308 310 312 313 313 313 314 314 313 312 310 309 309 309 308 308 306 305 304
310 309 312 312 314 314 316 317 316 316 316 311 307 309 309 307 308 309 310 309 310 309 309 307 306 306 309 311 312 312 313 313 313 312 311 310 308 308 310 311 310 307 304 302
308 306 310 311 312 313 314 316 316 317 315 313 312 312 312 307 308 308 308 308 307 307 308 307 307 305 307 309 311 312 312 312 311 310 309 309 310 309 310 307 303 302 301 301
303 307 300 305 310 312 313 315 316 316 316 315 314 314 311 310 308 309 309 308 307 305 306 308 307 306 307 308 310 311 312 311 311 310 310 309 307 305 304 303 302 301 301 301
300 299 296 301 307 312 310 310 314 314 314 316 317 315 313 314 312 310 308 307 307 306 305 304 306 307 308 309 310 310 310 310 310 309 307 306 304 304 303 302 301 301 300 299
300 298 299 298 311 315 312 309 312 314 313 313 313 313 312 312 311 309 307 307 305 305 305 304 303 305 308 310 309 310 310 309 307 306 306 305 304 303 302 301 301 300 299 298
298 299 299 305 310 312 310 308 312 312 312 310 310 311 311 308 308 307 306 306 307 306 304 305 306 306 305 308 310 309 308 307 306 305 305 304 303 303 302 301 300 299 298 298
301 302 303 306 311 312 310 305 304 307 309 310 308 307 308 306 308 306 307 306 305 305 305 304 304 305 306 307 309 308 307 306 305 305 305 304 303 302 301 301 300 299 297 296
303 302 301 300 303 308 307 305 305 308 305 309 311 311 311 310 307 307 305 306 304 304 303 304 305 305 307 306 308 306 305 305 307 306 305 304 303 302 302 300 299 298 296 295
306 304 304 307 306 308 306 306 307 304 302 306 310 312 311 309 307 306 306 304 302 301 303 303 303 304 306 307 307 305 305 306 306 305 304 303 303 302 301 300 298 296 296 293
308 306 309 307 305 307 305 305 302 303 304 304 304 311 310 308 308 307 305 304 302 301 302 302 302 302 304 305 305 304 304 305 305 304 303 302 302 301 300 298 297 295 294 293
299 301 303 305 303 302 303 304 303 302 302 303 304 303 309 308 307 306 303 302 301 301 301 302 302 301 301 303 304 305 304 304 304 303 302 301 300 299 298 297 296 295 293 292
296 297 297 299 297 300 300 299 301 302 301 302 303 303 303 309 307 304 304 304 301 300 300 301 301 300 300 302 303 303 303 303 302 301 300 299 299 298 297 296 296 295 294 293
294 296 296 297 296 296 296 296 297 300 302 302 302 303 303 307 307 306 303 301 301 300 300 300 300 300 300 301 301 301 301 301 301 299 298 298 297 297 296 296 294 294 293 293

GFSCGP_925_thetae_099.txt.gz
Theta_e
310 311 317 315 314 315 318 321 322 321 321 323 322 323 324 324 321 319 317 315 316 317 320 327 333 338 339 339 339 339 339 341 342 341 340 339 339 339 337 335 335 335 335 334
308 311 315 315 316 315 316 319 318 320 322 321 324 324 322 322 321 320 318 315 315 316 315 318 323 330 336 339 340 340 340 340 341 341 342 342 341 341 340 338 337 337 336 336
308 313 314 315 316 316 315 316 316 320 322 321 322 323 322 320 322 320 319 314 314 315 316 314 318 321 329 336 338 339 340 341 341 342 342 341 340 340 340 340 338 338 337 337
313 313 315 316 317 315 317 316 315 323 323 323 320 322 315 320 321 321 319 314 314 313 313 313 315 318 320 331 337 338 338 338 339 339 339 339 338 338 338 339 338 338 338 337
310 314 315 316 316 315 316 316 317 322 319 317 323 319 317 313 318 318 319 313 312 313 312 312 312 317 322 322 331 335 337 338 338 338 338 338 338 338 337 338 338 336 337 335
311 311 313 314 315 315 314 315 317 318 318 323 317 319 317 315 314 313 313 312 311 313 313 311 313 316 317 319 320 329 335 337 338 338 338 338 338 338 337 337 336 335 334 334
306 310 313 314 315 314 316 316 322 322 324 317 313 319 317 314 311 310 311 310 309 310 312 311 311 312 315 314 317 319 330 336 337 338 338 338 338 337 336 335 335 333 331 328
306 305 311 313 313 314 315 318 315 318 319 318 314 320 316 311 309 309 308 307 307 307 307 309 309 313 314 315 317 317 319 329 334 336 336 335 334 335 334 332 332 331 329 327
310 310 309 312 314 314 316 313 314 318 311 309 315 310 308 308 308 309 308 309 309 309 307 307 308 312 315 315 316 317 317 324 329 331 331 331 331 331 331 329 328 328 326 326
310 310 311 313 314 315 314 313 317 315 320 319 311 310 310 309 309 309 309 309 309 307 308 309 307 310 312 315 315 315 318 322 322 322 322 322 322 325 326 327 326 323 321 320
309 312 311 314 315 314 316 314 315 314 316 313 312 308 305 308 307 308 308 308 308 307 306 306 307 309 310 312 313 315 316 316 316 316 316 317 318 319 319 319 318 317 315 313
310 311 312 311 313 314 315 317 316 317 315 307 304 309 307 305 306 306 308 309 309 308 305 305 307 310 311 312 313 313 314 314 314 314 314 314 314 314 314 314 312 311 311 310
311 311 311 308 315 314 318 315 315 313 311 309 310 310 305 306 310 310 309 308 308 308 307 305 306 307 309 312 313 314 314 313 313 313 313 312 312 311 310 310 309 308 308 307
308 308 308 307 312 311 314 316 315 315 315 311 311 310 309 308 310 311 310 310 309 309 308 306 305 305 308 310 311 313 313 313 313 313 312 311 310 309 308 307 307 306 307 309
307 306 307 308 309 311 311 314 316 315 315 312 311 310 310 307 307 307 307 307 308 308 308 307 306 305 306 308 310 311 312 312 312 312 311 310 309 309 308 307 308 308 306 304
301 297 303 298 305 309 311 311 313 315 316 316 313 313 309 310 307 307 308 308 308 306 304 305 306 305 306 307 309 310 311 311 311 311 311 310 309 307 307 307 305 303 302 303
299 299 301 297 302 305 306 309 310 312 313 315 316 313 312 314 312 309 308 307 306 305 305 304 303 305 307 308 309 309 310 311 310 310 309 308 308 307 306 304 302 301 301 301
298 297 302 297 307 309 307 308 308 310 312 312 312 311 312 313 312 310 308 307 305 304 303 303 302 303 305 306 308 309 309 309 309 308 308 307 306 305 303 302 301 301 301 300
296 298 299 303 306 305 309 306 310 312 312 309 309 309 310 310 309 307 306 305 305 305 304 304 305 305 305 306 306 308 308 308 308 307 307 306 305 304 303 301 301 301 300 299
300 301 303 305 305 309 308 306 303 307 310 305 305 307 307 305 308 307 305 306 305 304 304 304 304 304 304 305 305 306 306 306 306 307 307 306 304 303 302 302 301 300 299 298
302 301 299 298 299 304 307 306 303 308 305 303 304 309 309 308 305 305 305 305 304 303 302 303 304 304 305 305 304 305 305 306 307 307 306 305 304 303 303 301 300 299 298 297
302 304 304 303 303 304 305 305 307 304 303 303 304 305 309 308 307 305 305 304 303 302 302 303 302 302 304 305 304 304 305 306 307 306 305 304 303 302 301 301 300 298 297 296
305 304 306 302 303 304 304 304 301 302 302 302 302 303 303 306 307 306 304 303 301 301 301 301 301 301 302 303 304 303 303 304 305 305 304 303 302 302 301 300 298 297 296 295
298 299 303 304 302 300 303 303 303 303 303 301 301 302 302 302 305 306 303 302 300 300 300 301 301 300 300 301 302 304 304 304 304 303 302 302 301 300 299 299 298 297 296 294
295 296 296 297 296 300 301 297 296 295 300 301 301 301 302 302 306 305 303 302 300 299 299 300 299 299 299 300 301 301 302 303 303 302 301 300 300 299 298 298 298 296 296 295
292 295 296 296 295 295 295 294 296 296 298 301 302 302 301 301 304 305 303 301 300 299 299 299 298 299 299 300 300 300 301 301 301 300 299 299 298 298 297 297 296 295 295 295

GFSCGP_925_thetae_102.txt.gz
Theta_e
310 316 318 316 314 314 318 320 320 320 321 319 320 319 321 319 318 318 317 316 315 317 319 327 335 338 337 336 336 337 338 332 336 338 337 336 336 337 337 337 336 336 336 335
308 315 315 314 315 315 317 320 320 321 322 321 321 319 321 319 319 318 318 317 315 315 315 316 323 334 336 337 337 337 337 335 335 336 335 337 337 337 339 338 338 336 335 335
308 313 314 315 315 315 315 316 316 321 323 321 321 322 322 320 318 318 318 316 314 314 314 314 316 322 332 336 337 336 337 337 337 336 335 337 337 338 338 339 337 336 335 334
312 312 314 315 316 314 317 315 315 322 322 322 319 320 320 320 320 320 318 315 315 313 312 312 313 317 321 330 336 338 338 338 339 337 337 336 336 337 337 338 338 337 337 336
309 314 314 316 316 314 316 316 316 321 318 320 322 320 316 318 321 320 318 316 314 311 312 312 311 315 320 322 323 333 336 337 338 338 337 336 336 338 338 337 338 338 337 337
309 309 313 313 314 314 313 316 316 316 317 321 317 320 318 315 316 317 317 314 314 312 310 311 314 315 316 318 320 321 332 336 337 335 337 337 337 337 337 336 336 336 336 335
305 308 310 313 315 313 315 316 320 322 323 318 312 320 319 314 312 310 311 310 310 309 309 309 310 311 314 316 317 319 323 331 335 336 337 337 337 335 336 336 335 334 332 331
305 305 309 312 313 313 315 314 312 318 318 314 314 320 317 311 309 308 308 307 307 306 305 305 309 311 314 315 316 316 318 324 331 334 335 335 334 335 333 334 333 333 331 329
309 309 308 310 313 313 315 314 313 311 309 306 313 311 307 308 308 308 307 308 308 307 306 305 307 310 312 314 316 316 317 319 324 331 332 332 332 332 331 331 331 330 329 327
308 308 309 312 313 314 314 312 317 318 320 318 311 309 310 309 309 309 309 309 309 306 308 308 307 307 309 312 313 314 316 316 320 326 329 329 328 327 327 327 328 327 326 324
309 312 307 311 313 313 317 319 315 314 314 314 313 309 304 307 306 307 307 308 307 307 306 307 307 308 309 311 312 314 315 317 320 321 321 320 320 322 324 324 324 324 323 321
309 311 309 309 311 314 315 317 316 316 315 307 304 309 305 305 306 305 307 308 308 307 304 304 305 308 309 310 312 314 316 317 317 317 316 315 316 318 319 318 318 317 316 312
309 306 307 302 311 313 316 315 315 314 310 305 309 310 305 306 308 307 308 308 307 308 306 304 304 304 307 310 311 311 312 313 313 313 313 313 313 314 314 313 311 310 309 308
306 304 301 302 302 309 308 311 311 316 316 309 310 310 308 307 310 310 309 308 308 308 307 306 305 305 306 308 310 311 311 312 312 312 312 312 311 311 310 309 308 307 306 306
303 296 303 305 305 308 310 310 310 314 315 313 310 310 309 308 307 308 308 307 308 308 307 307 306 305 305 308 309 310 311 312 312 311 311 311 310 309 308 307 306 305 306 308
299 294 300 297 301 303 306 309 310 312 311 315 313 312 308 309 305 307 307 308 308 308 306 304 303 304 305 306 308 309 311 311 311 311 310 309 308 307 306 306 306 307 306 303
298 299 296 299 300 306 303 307 309 310 313 313 315 313 312 313 311 311 309 307 306 307 306 304 303 302 304 306 307 309 309 311 310 310 309 308 308 307 306 306 306 304 302 301
297 296 300 299 304 303 305 306 308 308 309 311 312 311 312 312 311 311 308 308 307 305 304 302 301 302 304 304 305 307 308 309 310 309 309 308 307 306 305 305 303 301 300 300
294 297 296 302 304 302 307 307 304 311 311 306 305 306 308 308 308 308 306 304 304 304 303 303 304 304 305 305 305 304 306 308 308 309 308 307 307 306 305 302 301 300 300 300
299 299 297 298 304 307 308 307 304 303 311 305 305 305 307 306 310 310 305 305 305 303 303 303 303 303 304 304 304 304 304 305 306 308 308 308 307 306 303 302 301 300 300 300
299 299 299 297 298 300 303 306 303 309 305 304 305 305 305 307 305 305 305 305 303 303 302 303 303 302 303 304 304 304 303 304 307 307 307 306 305 304 303 302 301 300 299 299
300 301 303 301 301 301 304 304 307 304 302 303 302 304 304 305 305 305 305 304 302 301 302 302 301 301 302 303 304 303 303 304 305 306 306 305 304 303 302 301 300 299 298 297
302 300 301 300 301 301 304 303 301 301 302 301 301 301 302 303 303 303 304 303 301 300 300 301 300 300 301 302 303 303 303 304 305 305 305 304 303 302 301 301 299 298 297 296
297 298 302 303 302 300 300 303 300 297 299 300 301 300 301 302 302 302 303 301 300 299 300 300 299 299 299 300 301 302 303 303 303 303 302 302 302 300 300 300 299 298 297 296
294 297 297 296 296 299 300 296 295 295 295 296 299 300 301 301 302 301 302 301 300 299 299 299 298 298 298 299 299 300 301 302 302 302 301 300 300 300 299 299 299 298 297 297
291 295 296 296 294 294 295 293 295 295 296 295 297 299 300 301 301 300 302 300 300 299 299 298 298 298 298 298 298 299 300 301 301 300 300 299 299 298 298 298 296 296 296 296

GFSCGP_925_thetae_105.txt.gz
Theta_e
310 317 319 317 314 314 318 319 319 317 316 319 319 319 318 318 319 319 319 318 319 323 325 334 335 333 332 333 328 327 327 328 334 338 336 335 335 334 331 331 331 332 334 334
310 316 315 314 314 314 318 320 321 320 319 319 318 319 318 319 318 319 318 319 319 316 319 323 334 335 332 332 331 331 328 328 335 338 335 335 334 335 335 334 335 335 335 335
310 312 313 315 314 315 315 318 319 320 321 321 319 320 320 319 318 317 317 317 317 318 316 316 321 331 334 334 333 332 330 333 334 333 330 326 330 334 335 334 335 335 336 336
311 311 313 314 316 313 317 314 316 323 323 323 320 322 319 318 319 318 318 318 318 317 315 314 316 318 328 333 335 334 334 335 333 332 333 329 328 332 335 332 327 334 334 334
310 313 313 315 315 313 315 315 319 321 319 321 322 321 320 316 319 318 317 319 318 316 315 315 314 315 318 325 332 334 335 334 333 335 335 334 331 332 332 328 333 334 336 336
309 308 312 312 313 314 314 315 316 317 318 323 318 320 318 319 319 318 317 318 316 316 314 314 314 314 315 317 320 326 333 335 334 334 335 335 334 334 334 334 334 334 335 336
304 307 308 312 315 312 314 315 319 323 323 320 311 320 318 314 313 313 314 314 314 314 315 314 313 312 313 314 316 319 322 330 334 333 335 335 335 333 333 333 334 333 332 333
306 302 308 311 313 314 315 314 314 317 319 317 314 321 319 313 312 311 310 309 307 310 310 310 311 312 313 315 315 315 319 323 330 334 335 335 335 333 334 333 333 333 333 331
309 308 307 309 313 313 315 318 312 311 307 312 314 312 309 308 308 308 307 307 308 308 308 307 306 308 311 314 316 315 315 320 326 331 332 332 333 334 332 331 332 332 332 330
307 308 309 311 312 313 315 313 320 319 318 318 312 310 312 309 308 307 309 309 307 307 309 310 307 306 309 311 314 314 314 316 321 326 330 331 330 330 331 330 330 329 329 328
308 311 307 308 311 312 316 317 316 316 316 316 313 311 304 307 306 307 305 307 307 307 307 308 308 306 308 310 312 313 314 316 318 322 326 328 326 325 325 325 326 324 325 323
308 310 309 307 310 312 313 315 314 318 317 307 308 311 304 304 306 307 306 308 307 306 305 306 307 307 308 310 312 313 314 315 318 321 321 320 319 320 321 322 322 323 322 318
308 304 298 301 305 309 310 309 309 311 311 306 314 313 304 306 308 307 308 308 307 307 306 305 305 306 308 309 310 312 314 315 316 316 315 315 315 317 318 318 319 319 318 315
305 301 300 301 298 307 307 308 310 308 317 312 309 310 308 306 309 309 308 307 307 307 307 306 305 305 306 308 310 311 311 312 312 313 313 313 313 314 314 313 312 311 310 308
299 296 300 303 302 304 305 307 309 306 309 316 310 309 309 307 306 307 307 306 306 307 306 305 306 305 305 306 308 309 311 312 312 312 311 311 310 310 309 308 307 306 305 305
297 294 294 293 300 302 304 304 305 308 309 309 311 312 309 309 306 305 306 307 308 307 307 306 304 303 305 306 306 308 309 310 311 311 310 309 308 308 307 306 305 305 305 306
297 296 294 298 300 303 302 307 307 309 309 311 311 313 312 312 311 310 309 306 307 307 306 306 304 302 303 305 307 307 308 310 310 310 309 308 307 306 305 304 304 305 305 302
296 295 300 301 298 300 308 305 308 309 309 307 310 309 308 309 310 309 308 307 307 306 305 304 302 302 304 304 304 305 307 308 309 309 309 308 307 306 304 304 304 304 302 301
293 296 296 301 303 300 307 307 306 308 311 307 307 307 307 306 305 308 306 305 305 304 303 303 303 303 303 304 304 304 305 306 307 308 308 308 307 306 305 304 303 302 300 300
298 297 295 296 301 306 306 306 304 303 310 306 305 306 306 306 311 309 304 304 304 303 302 302 303 303 303 303 304 303 303 304 306 307 308 308 307 306 304 304 302 300 300 300
298 298 297 297 298 299 298 303 303 310 306 304 304 304 305 307 306 305 304 304 303 302 302 302 302 302 302 303 303 303 303 303 304 305 307 307 306 306 305 302 300 299 299 299
298 297 298 300 301 300 303 303 307 303 302 302 302 303 304 304 303 303 303 303 302 301 301 301 301 301 301 301 302 302 302 304 303 304 306 306 305 304 303 301 299 299 299 298
301 298 300 299 300 298 304 303 301 300 302 301 301 301 302 303 303 302 302 302 301 300 300 300 300 300 300 300 300 301 302 303 303 304 304 304 303 303 302 301 299 298 297 297
296 297 302 302 300 300 299 302 300 296 296 296 297 298 299 301 302 302 302 301 300 299 299 299 299 298 298 298 299 300 301 302 302 302 303 302 302 301 300 300 299 299 297 296
294 295 297 297 296 296 300 296 295 294 295 295 295 295 298 299 301 301 301 301 300 299 299 298 298 297 297 298 299 299 300 301 301 301 301 300 300 300 299 299 299 298 298 298
291 295 297 297 294 294 295 294 294 295 295 294 294 294 296 298 300 301 302 300 299 299 298 298 297 297 297 298 298 299 300 301 301 300 299 299 299 299 298 297 296 297 297 297

GFSCGP_925_thetae_108.txt.gz
Theta_e
312 321 319 317 318 318 319 319 316 319 317 319 319 318 320 320 325 326 325 327 330 334 332 333 333 332 333 333 332 335 337 340 340 338 337 336 335 334 333 333 332 334 335 337
316 320 317 316 317 318 321 321 322 320 318 319 320 319 320 320 324 324 323 323 327 328 331 334 333 332 332 332 332 330 334 337 336 336 336 336 337 337 336 335 334 334 334 335
317 316 315 316 317 319 321 321 322 321 320 319 321 322 321 320 322 322 321 321 320 325 331 333 334 333 327 332 331 332 333 337 336 337 335 330 329 330 333 336 336 335 334 335
314 314 315 316 317 317 319 317 319 322 323 325 320 325 323 320 324 324 325 323 322 321 320 325 330 333 328 332 331 329 329 333 333 333 331 331 328 328 332 331 333 333 330 332
315 315 315 316 316 316 318 318 318 321 321 320 322 322 324 320 320 323 325 324 323 322 320 320 319 324 333 331 329 333 329 330 329 329 327 327 330 328 327 329 330 327 325 331
313 310 314 315 315 315 317 320 321 321 321 323 318 321 317 322 323 322 322 322 324 323 321 320 319 318 320 327 332 334 333 331 330 331 329 331 331 329 329 327 328 327 327 327
309 309 311 313 316 316 318 319 322 321 324 320 316 322 317 317 318 317 318 320 319 321 321 320 319 317 317 319 321 329 334 334 333 333 333 330 332 331 332 328 330 329 330 331
313 311 311 312 316 317 317 318 319 317 318 319 317 322 318 316 316 316 315 315 314 315 319 319 318 319 317 318 319 321 326 333 334 334 333 333 332 333 332 332 332 332 331 330
311 311 309 310 313 315 319 320 316 318 313 319 318 317 314 312 313 314 313 311 313 313 316 316 314 316 317 317 318 319 322 326 331 333 334 333 332 332 332 331 331 330 330 330
311 313 311 313 313 314 315 315 321 322 322 318 315 314 315 313 312 311 313 313 312 312 315 315 313 311 312 313 316 316 318 323 327 330 331 331 331 332 331 331 329 330 329 328
311 312 311 310 312 311 313 315 317 316 320 318 315 314 309 311 312 312 311 312 312 314 315 315 313 311 310 311 313 314 316 319 324 328 328 327 327 328 329 326 326 327 327 326
311 312 311 309 309 311 312 313 315 319 319 316 314 314 309 311 312 310 310 311 311 311 312 314 313 312 311 313 314 315 316 318 320 322 324 324 322 324 322 323 324 324 325 324
309 310 308 305 311 308 309 309 310 311 315 318 317 315 310 312 312 311 312 312 311 311 310 311 313 314 313 313 313 314 315 316 316 317 318 317 317 318 317 318 320 321 322 319
306 308 308 306 307 307 308 307 308 310 313 315 316 313 311 312 312 312 312 312 311 311 311 311 311 311 312 313 313 314 314 314 314 314 314 314 314 314 314 316 317 319 317 315
304 304 304 303 303 303 304 305 305 308 309 313 315 315 314 313 313 309 311 310 311 312 311 310 311 310 310 311 312 312 312 311 311 311 311 311 311 311 312 313 313 312 309 307
301 305 301 302 303 306 304 304 305 307 307 309 309 311 310 311 312 312 310 309 310 311 312 311 309 308 309 309 310 310 311 311 311 311 310 309 308 307 306 306 305 305 304 304
301 303 303 307 304 306 309 310 310 310 310 310 312 312 312 312 313 313 313 312 313 312 311 310 309 307 307 307 308 309 310 310 310 310 309 308 307 306 305 304 303 303 303 303
301 301 303 307 306 312 311 308 310 310 309 308 309 309 309 310 310 309 310 312 312 311 310 309 307 307 306 306 306 306 307 309 309 310 309 308 306 306 304 303 303 303 303 302
300 302 304 307 306 306 309 309 309 309 312 307 307 308 308 309 308 309 308 307 307 307 307 307 306 305 305 305 304 304 306 307 308 309 309 308 306 305 304 303 303 302 302 301
301 301 304 305 306 307 311 307 306 307 312 307 306 307 307 310 314 312 307 306 306 306 305 305 305 305 305 305 304 305 305 305 307 308 308 307 306 305 304 303 302 301 301 301
302 301 304 304 305 303 302 305 305 312 311 306 306 305 306 308 306 305 305 306 304 303 303 304 304 304 303 303 303 304 305 305 305 305 306 306 305 304 303 303 301 300 299 298
303 303 304 303 305 306 302 306 308 307 305 305 305 305 305 304 305 306 305 306 304 303 302 302 302 302 301 301 301 304 305 304 303 303 304 305 304 303 303 301 300 298 296 296
305 303 306 305 305 302 306 306 304 304 305 302 301 301 302 303 303 303 305 305 304 302 302 301 301 301 300 299 299 301 303 302 302 303 304 304 303 301 301 299 297 295 296 296
301 300 305 305 305 303 303 304 304 300 299 298 298 299 299 301 302 302 303 305 305 302 301 300 301 302 301 299 298 299 300 301 302 303 303 302 302 300 299 297 297 296 295 298
301 301 304 305 303 300 301 301 300 297 298 298 298 298 298 298 301 301 302 303 304 302 300 300 300 299 299 298 298 298 299 300 301 302 301 300 300 298 297 297 297 297 298 298
298 303 304 304 301 300 301 298 297 297 297 297 297 298 298 298 298 300 302 302 301 300 299 299 298 297 298 297 297 298 299 300 301 300 299 298 298 297 297 296 296 297 298 299

GFSCGP_925_thetae_111.txt.gz
Theta_e
315 320 322 318 318 319 319 320 318 316 318 318 321 322 321 320 327 328 332 336 336 335 333 331 332 332 331 330 336 339 338 336 336 336 335 333 332 332 334 337 339 338 336 336
316 320 318 317 318 320 320 320 320 321 319 319 322 323 324 321 326 328 331 335 336 334 333 333 333 332 332 330 331 332 337 337 337 337 336 336 335 334 333 333 333 334 335 336
318 318 316 317 318 318 320 321 320 321 321 320 322 325 325 322 325 326 327 330 333 334 334 333 333 333 332 331 330 330 330 335 336 337 337 336 336 336 336 336 335 335 335 335
315 315 315 317 317 317 319 318 320 321 322 323 320 331 327 324 327 327 326 327 328 331 333 331 333 333 331 327 326 329 327 330 336 336 336 335 332 333 334 334 333 333 334 335
317 315 316 316 315 317 318 318 319 320 321 320 320 322 327 326 327 328 327 326 325 327 330 332 333 333 331 327 324 329 329 330 330 332 331 330 329 328 330 329 330 332 330 330
312 312 313 316 315 316 317 319 318 319 320 324 319 320 325 326 327 327 327 326 325 323 323 324 330 334 330 330 333 330 329 329 330 330 330 329 329 328 329 328 328 328 328 328
312 310 310 314 316 315 317 319 323 322 325 321 318 320 319 318 319 324 325 326 325 324 323 322 321 322 327 330 332 330 330 330 329 329 328 328 330 329 327 327 326 324 326 327
312 314 311 311 315 317 317 317 321 324 321 318 318 320 320 317 317 318 318 319 320 322 323 322 321 320 321 324 328 331 332 331 331 330 329 327 330 328 326 326 326 325 327 328
311 311 309 311 313 314 317 319 317 319 316 317 317 317 314 314 315 316 316 315 316 315 317 322 321 320 319 320 323 326 330 332 331 331 330 330 331 330 328 327 327 328 330 329
311 312 311 310 312 313 314 315 319 319 320 317 315 314 315 314 314 314 314 315 315 314 316 319 316 316 318 319 320 321 324 327 332 334 333 333 332 332 332 331 331 330 331 331
310 311 311 309 311 311 312 314 314 315 319 323 319 314 312 314 314 314 313 314 314 316 317 317 315 313 312 313 316 319 320 324 327 333 333 331 332 333 333 332 331 331 329 329
311 310 311 307 308 310 311 311 312 316 320 318 318 317 314 314 312 312 313 313 313 314 314 316 315 313 313 313 313 316 317 320 324 329 330 329 329 329 329 329 327 326 326 325
309 310 311 309 311 309 309 309 309 312 314 319 319 318 313 313 314 313 314 313 313 312 312 314 316 315 314 315 315 316 317 319 323 326 327 327 325 325 324 322 321 322 322 320
307 311 309 307 307 307 307 307 306 309 315 312 316 317 315 314 313 313 313 313 312 312 312 312 313 314 315 315 315 316 317 318 318 320 320 320 320 321 320 318 317 318 317 317
305 307 305 304 304 304 304 305 305 308 309 312 312 312 314 313 313 313 312 313 313 313 313 312 311 312 312 314 314 315 315 315 315 315 316 316 316 316 315 315 315 315 313 313
304 308 304 305 305 305 304 304 304 306 308 309 310 312 311 312 313 314 313 312 313 313 313 312 311 310 310 311 311 313 313 313 313 313 313 312 311 311 311 311 311 311 311 309
303 305 307 308 307 308 312 310 310 311 311 311 312 312 311 311 311 312 312 313 313 313 312 311 309 309 308 308 309 311 312 312 313 312 311 310 309 309 308 308 307 306 305 305
303 304 306 310 309 315 311 309 311 310 310 309 310 310 311 311 311 310 310 310 311 310 310 310 309 309 308 308 308 307 309 310 311 312 311 309 308 308 307 306 305 305 304 304
302 304 308 311 308 308 309 309 310 310 312 309 309 310 310 311 310 310 308 308 308 308 308 308 308 307 307 307 307 307 307 308 310 311 311 310 308 307 306 305 305 304 304 303
302 302 307 308 309 307 311 310 308 309 312 309 307 308 308 310 314 311 307 308 307 307 307 306 306 307 307 306 306 306 307 307 308 309 310 310 309 307 306 305 304 303 303 303
304 304 307 307 308 305 308 307 307 312 313 309 308 307 308 309 308 307 307 307 306 304 305 305 305 306 306 304 304 306 307 307 307 307 308 309 309 307 306 305 303 302 302 300
305 305 306 305 307 308 306 307 310 309 307 307 307 305 305 305 305 305 305 307 307 305 303 303 303 304 304 303 303 305 306 306 305 306 305 307 307 306 305 303 302 300 299 298
305 304 308 306 307 306 306 308 307 306 307 306 303 302 301 302 303 303 303 305 307 305 304 303 303 303 302 301 301 302 303 303 304 304 305 306 306 304 303 302 300 299 298 299
304 303 304 306 306 305 306 306 305 305 303 301 300 300 300 300 300 301 302 303 305 306 303 302 303 303 303 301 301 300 300 302 303 304 305 305 305 303 302 300 298 299 299 299
304 303 304 305 305 304 303 303 304 301 300 299 299 299 299 299 299 300 301 302 304 304 302 302 301 301 300 300 300 299 299 301 303 304 304 304 304 302 301 299 297 298 298 300
301 303 305 305 305 304 304 303 300 300 299 299 298 298 298 299 300 299 300 301 303 301 301 300 299 299 299 299 299 297 298 299 302 302 302 301 299 298 298 297 296 297 298 298

GFSCGP_925_thetae_114.txt.gz
Theta_e
317 320 321 320 318 317 319 319 319 317 319 320 320 318 320 321 321 323 324 326 333 333 330 329 327 326 325 327 327 327 327 334 332 335 335 335 334 334 333 334 333 332 332 331
318 318 317 318 317 317 318 320 321 320 319 318 319 320 321 321 321 324 326 329 333 332 331 330 330 329 330 331 330 333 331 332 330 331 332 335 336 336 336 334 336 335 335 335
315 316 316 316 316 317 318 321 320 321 320 319 320 322 321 323 321 324 327 329 330 332 333 332 331 331 331 331 330 329 330 333 332 332 332 332 332 332 333 333 336 336 336 337
315 314 314 315 316 316 319 319 318 318 320 325 320 321 325 324 322 326 325 329 332 333 332 331 330 331 331 330 328 326 328 331 333 333 334 334 334 335 334 333 333 333 334 334
315 315 315 316 316 315 317 317 317 318 319 319 320 319 328 324 326 326 325 326 329 331 331 329 329 331 329 329 328 326 325 327 329 332 333 333 334 335 335 335 334 335 335 335
311 310 312 314 313 314 314 316 317 317 320 319 318 318 324 325 326 327 325 324 326 327 329 328 327 331 329 324 326 326 325 325 328 329 329 330 330 330 330 332 332 331 330 329
312 311 310 312 314 314 315 316 317 317 315 317 317 318 319 316 319 324 323 325 323 324 324 324 329 332 329 324 326 328 326 326 326 329 328 329 329 328 329 329 329 328 327 327
311 310 310 309 312 314 314 317 321 325 325 324 317 322 314 313 314 319 320 318 321 322 320 322 321 324 328 328 328 330 329 327 325 325 327 328 329 329 329 328 327 327 325 324
312 310 309 310 309 313 314 315 314 321 316 316 315 313 311 312 312 313 315 316 314 313 318 320 319 320 322 325 329 330 329 328 328 329 328 328 329 330 329 327 326 326 326 325
311 311 311 309 310 312 313 314 317 317 314 317 313 312 315 313 312 312 312 312 313 315 315 314 315 316 318 320 324 329 330 330 329 329 329 328 329 329 329 329 329 327 324 325
310 311 310 309 310 310 313 312 313 314 316 322 323 319 312 311 310 311 311 312 313 314 315 314 312 312 311 314 320 323 327 329 329 329 329 329 329 329 330 330 328 324 327 328
309 309 308 309 309 309 309 310 310 312 312 315 320 318 311 310 311 312 311 311 311 312 313 313 312 312 312 312 316 318 319 323 326 330 332 332 332 333 332 331 330 330 330 329
307 307 303 309 311 307 308 307 307 308 311 310 317 319 313 310 310 310 311 309 309 310 309 311 312 312 314 314 314 316 317 320 325 329 328 329 329 331 331 331 330 329 328 328
306 306 305 304 303 304 305 306 305 307 309 305 314 315 313 311 312 310 310 310 310 309 309 308 309 312 313 315 316 317 319 321 325 326 326 326 324 325 326 325 324 323 323 323
305 300 304 304 304 305 304 304 305 301 306 304 308 308 311 311 311 311 309 310 312 311 310 308 307 307 310 313 314 315 316 317 319 321 322 321 320 320 320 320 318 318 319 319
303 303 299 298 305 305 304 304 304 305 307 309 310 312 310 310 310 309 310 311 311 311 310 308 307 306 307 308 312 313 313 313 315 315 316 319 318 317 316 315 315 316 315 314
302 301 301 305 307 305 303 309 309 311 309 310 310 310 309 310 310 310 308 309 309 308 308 308 307 306 307 307 308 309 311 312 313 312 312 312 312 312 312 312 312 312 311 310
302 301 304 303 303 305 310 309 310 310 310 309 309 309 309 310 309 308 307 307 307 307 306 306 305 306 307 307 306 307 308 311 312 312 310 310 309 309 309 309 308 308 308 307
301 302 304 304 304 307 308 307 310 310 310 308 308 308 308 308 309 307 305 306 305 305 305 305 306 306 307 306 306 306 307 307 309 311 311 310 309 308 308 307 307 307 306 305
301 301 300 304 306 307 311 309 308 308 309 308 307 308 307 307 313 309 306 306 305 304 306 305 305 306 306 305 304 305 306 307 307 307 309 311 309 308 307 306 305 305 305 304
300 300 302 303 304 305 307 307 307 311 309 307 307 307 306 307 307 305 306 305 306 305 304 303 304 304 304 304 304 304 305 306 306 307 306 309 310 308 307 306 305 305 304 303
304 301 301 303 304 303 305 306 309 307 307 307 306 305 305 304 303 303 303 304 305 305 304 303 303 303 303 302 302 302 303 303 304 304 305 306 308 308 307 306 304 304 302 301
302 302 305 303 305 304 305 306 305 305 305 305 304 302 301 300 300 300 301 301 304 305 303 303 302 303 303 301 301 301 301 301 302 303 304 305 306 307 306 304 303 301 300 299
302 302 301 303 304 304 304 306 305 304 303 300 300 300 299 299 299 298 298 299 302 304 303 302 302 302 301 301 300 300 300 300 302 303 304 305 306 304 303 302 302 300 299 298
300 300 301 302 302 304 302 303 303 300 299 299 299 298 298 298 298 298 297 298 300 303 302 301 301 300 300 299 299 298 298 300 302 303 304 304 304 304 302 301 300 299 299 300
299 300 301 301 302 301 303 300 300 299 299 299 298 297 297 298 298 298 298 298 300 302 301 300 300 300 299 299 298 297 298 299 300 301 302 302 302 302 301 300 298 298 298 299

GFSCGP_925_thetae_117.txt.gz
Theta_e
314 317 317 317 317 318 319 318 320 320 319 321 321 320 318 315 320 320 321 322 325 331 330 328 327 325 325 326 326 328 329 332 332 330 329 328 329 331 331 330 329 329 329 329
317 316 314 316 318 318 317 318 321 323 319 319 318 319 317 318 320 319 321 321 330 331 330 328 327 327 327 327 327 328 330 332 333 331 331 329 328 328 329 329 328 327 327 326
314 313 314 315 315 316 315 319 320 320 317 318 319 319 319 319 321 321 320 327 330 330 331 330 329 329 329 329 329 331 329 330 332 334 333 332 331 331 331 328 328 328 328 330
313 313 314 314 315 315 317 316 316 317 317 319 320 322 321 322 323 322 323 329 330 329 330 330 330 330 330 330 329 328 331 332 332 332 332 332 332 333 333 334 333 333 333 332
309 312 312 312 315 313 315 314 314 316 316 316 317 321 322 325 326 325 325 328 329 330 331 330 330 330 329 328 327 326 331 331 331 330 331 330 330 331 334 333 335 335 336 335
309 309 310 312 311 312 313 314 314 315 317 314 318 321 320 317 323 325 321 323 328 330 329 327 328 329 329 327 326 324 328 329 328 328 326 327 327 331 331 333 333 334 335 334
307 309 309 310 310 311 312 313 308 313 309 314 315 317 314 312 322 321 320 318 325 326 329 327 329 327 326 326 327 324 326 327 328 328 326 327 328 328 329 331 333 334 334 333
304 305 308 309 310 312 312 315 319 322 323 319 316 314 314 310 312 319 320 318 319 322 324 325 326 328 327 324 325 326 325 326 326 328 327 327 328 328 329 329 329 330 331 329
307 307 308 308 309 312 311 312 313 319 319 319 314 313 310 311 310 313 317 317 316 316 315 320 321 324 327 327 325 328 326 325 326 325 327 325 325 326 328 327 328 328 327 327
309 307 308 309 307 308 312 311 311 310 315 322 317 316 316 312 311 311 313 314 314 316 314 313 312 314 320 326 328 328 327 326 325 325 325 323 324 324 325 326 327 326 326 326
305 307 306 306 309 309 309 309 310 305 313 321 319 319 313 310 309 310 309 310 311 313 313 312 310 311 311 315 320 327 329 327 326 326 326 325 325 326 326 326 325 327 326 326
305 306 301 310 307 306 307 307 306 305 309 316 313 319 312 311 307 308 308 308 308 308 310 312 311 312 313 312 316 322 326 328 328 326 326 325 325 327 328 327 326 327 327 327
305 301 293 301 300 301 305 304 306 305 307 304 316 318 312 307 310 308 308 308 308 307 306 309 311 310 312 314 314 316 318 323 326 327 328 328 328 327 327 328 328 327 328 327
305 300 297 298 299 302 302 303 304 302 297 308 308 308 310 308 309 309 309 308 307 307 306 306 306 309 311 313 314 317 319 323 326 326 326 326 326 326 327 325 327 327 327 327
301 295 301 302 303 304 303 303 304 297 303 301 307 312 311 309 308 309 306 308 308 307 306 306 305 304 305 310 312 314 315 317 321 322 323 323 323 323 323 323 324 325 325 324
300 297 294 296 304 304 304 303 303 304 306 308 308 313 309 309 306 306 306 307 307 307 306 306 305 304 304 305 308 311 312 313 316 317 318 318 318 320 319 318 318 318 317 317
299 295 296 301 305 299 299 307 308 310 309 308 306 309 308 309 310 307 306 305 306 305 305 305 303 304 305 305 306 307 311 312 312 313 314 315 315 317 317 317 316 315 315 315
299 296 298 298 297 297 303 309 309 309 308 308 309 308 309 310 308 305 304 305 304 305 304 303 303 304 305 305 305 306 307 310 311 311 311 311 311 312 312 313 313 313 313 313
298 299 299 300 298 302 308 307 309 308 307 306 306 307 307 306 308 307 305 304 304 303 303 304 304 304 304 304 304 305 306 306 307 310 311 310 310 310 310 310 309 309 310 309
300 299 297 299 303 305 306 307 306 306 306 306 305 306 306 306 309 309 304 304 304 304 303 303 303 304 303 302 303 305 305 306 306 306 306 310 310 309 308 308 307 307 306 306
294 294 298 298 299 302 306 306 306 307 301 305 305 305 305 304 305 303 303 302 304 304 303 303 303 302 302 302 302 302 303 302 303 304 305 306 309 309 308 307 306 306 305 305
301 298 298 299 300 299 304 305 305 303 305 305 304 303 303 303 302 301 301 301 302 304 303 302 302 302 302 301 301 300 300 301 302 303 303 304 305 308 308 306 305 304 304 303
300 300 302 300 300 299 302 304 303 302 303 304 303 302 301 300 299 298 298 298 301 302 303 302 302 301 301 300 300 299 299 300 301 302 303 304 305 306 307 306 305 303 302 302
300 299 300 301 299 302 303 303 302 303 301 299 298 298 298 298 298 297 296 296 296 302 303 302 301 300 300 299 299 298 299 300 301 302 303 304 305 305 305 304 303 302 301 299
297 299 299 299 299 301 301 301 301 299 297 297 297 297 297 297 297 297 296 296 297 300 302 301 301 300 300 299 299 299 299 299 300 301 302 303 304 304 303 303 302 301 301 300
296 299 299 299 298 299 299 298 299 298 297 297 296 296 296 297 297 297 297 297 297 299 301 300 300 300 299 299 298 297 298 298 299 299 300 300 300 301 301 301 301 300 300 299